GFSGL_sfc_thetae_003.txt.gz
Theta_e
337 339 335 335 335 334 334 335 337 336 338 337 337 337 336 336 337 338 338 338 337 335 336 336 336 337 337 337 336 336 333 333 326 330 334 338 338 338 339 338 335 330 330
339 339 335 333 337 335 335 336 337 337 337 336 337 337 335 336 336 336 336 337 336 335 335 333 334 336 332 333 335 335 335 334 329 327 332 333 334 336 334 329 332 330 326
340 336 338 336 335 333 334 336 336 335 335 336 337 335 335 333 332 330 330 329 327 326 327 327 328 331 329 330 331 331 333 334 332 331 329 331 329 331 326 324 323 322 328
338 337 335 336 337 338 337 337 335 336 333 334 336 334 333 332 330 330 330 327 325 323 323 323 322 323 325 327 325 323 327 330 331 329 326 327 328 330 327 322 318 316 316
337 336 334 334 337 339 337 337 336 335 333 333 333 331 330 331 331 329 328 324 322 320 319 319 319 323 322 322 320 319 323 325 329 327 326 327 327 327 325 324 319 318 315
337 337 337 335 335 337 336 334 334 333 332 332 328 323 320 323 326 327 327 324 321 318 315 314 314 316 321 320 318 319 321 320 325 326 325 320 318 321 321 320 317 314 312
335 339 338 337 335 335 334 332 330 326 326 323 320 314 309 309 317 323 326 323 322 319 319 320 320 320 317 314 311 311 312 316 317 319 313 315 311 314 318 315 313 312 308
337 336 336 336 334 333 332 329 325 323 319 318 314 309 306 307 312 320 319 313 309 309 311 311 309 310 314 309 305 304 305 305 305 307 308 306 307 309 310 313 312 314 313
332 332 333 334 332 330 326 323 318 314 311 308 308 308 306 305 308 312 311 308 305 304 306 308 308 311 314 311 307 306 307 307 311 311 311 311 311 311 310 307 305 304 303
323 326 325 325 323 321 321 317 313 310 308 306 305 304 306 304 304 307 309 307 304 304 304 303 307 306 306 309 311 309 307 308 309 309 308 309 307 309 310 307 306 302 301
314 315 315 315 314 311 309 308 306 306 305 304 304 304 304 304 303 303 305 307 305 304 302 301 302 304 301 301 302 301 301 305 307 306 306 306 306 305 307 308 307 305 302
310 310 310 310 309 308 306 305 304 304 302 302 303 302 303 304 304 302 303 304 306 302 302 303 303 301 300 301 304 303 304 306 306 307 307 303 299 300 301 304 304 304 304
307 307 307 308 307 307 305 304 303 303 302 301 301 301 301 303 303 302 303 304 305 304 304 304 303 300 300 302 303 304 304 303 300 299 298 299 299 300 299 297 300 304 303
308 308 308 307 307 306 306 305 303 302 301 301 300 300 300 300 301 303 304 305 306 305 306 304 304 304 303 303 302 299 299 299 298 296 295 295 296 293 293 293 292 293 293
302 300 300 299 298 297 298 299 299 296 300 300 299 298 295 294 294 295 299 302 299 297 296 297 297 297 297 297 297 296 295 296 294 296 295 294 292 292 290 291 291 292 290
297 297 297 297 296 294 292 292 297 295 294 292 294 294 291 293 293 292 292 293 295 295 297 294 293 292 292 292 292 294 294 296 293 295 293 292 291 290 289 289 291 290 290
297 297 298 297 295 293 291 290 288 291 294 292 291 291 292 292 292 293 293 293 295 295 293 292 292 292 292 293 292 292 291 292 294 293 291 291 290 289 288 289 289 289 288
302 303 299 298 297 295 293 293 292 291 289 289 292 291 292 292 292 292 292 293 294 293 292 292 291 293 293 292 291 290 290 290 289 290 291 289 289 288 288 288 288 288 287
302 302 301 300 300 298 296 295 296 296 293 290 289 291 290 292 291 291 292 290 290 290 291 291 291 291 291 290 290 291 290 291 289 290 288 288 288 287 287 287 287 293 291
306 309 305 301 302 302 301 300 298 297 295 292 292 291 291 291 291 292 293 292 291 290 290 291 291 291 291 291 290 290 290 290 289 288 288 288 288 287 287 287 287 287 288
304 305 307 303 302 301 302 300 299 300 298 295 292 292 294 293 292 291 291 291 291 292 291 291 290 289 292 292 290 291 290 289 289 288 288 287 287 287 287 286 287 288 289
305 306 306 304 304 303 302 302 300 299 295 292 289 288 292 290 291 292 292 292 292 292 292 291 290 289 291 291 291 290 290 289 288 288 287 286 286 286 287 287 289 290 289
309 309 307 305 303 303 302 301 300 299 296 294 291 290 290 291 292 293 293 293 293 293 293 293 292 291 292 293 293 292 290 289 288 288 286 285 285 287 288 288 289 289 288
308 308 308 306 303 302 303 302 300 297 297 296 294 293 293 293 294 293 293 293 293 293 293 292 291 291 291 291 290 290 289 290 288 287 286 285 285 287 288 288 288 288 288
304 306 307 305 304 303 303 302 302 298 297 296 295 294 294 294 294 294 294 294 294 294 293 293 292 292 293 291 289 287 285 284 285 287 284 284 285 287 288 287 288 288 288
304 305 303 304 303 303 303 301 300 298 296 296 295 294 294 294 294 295 294 294 293 294 294 294 293 293 294 293 292 286 284 284 284 284 282 283 285 286 288 288 287 287 287

GFSGL_sfc_thetae_006.txt.gz
Theta_e
335 333 332 332 332 331 331 332 332 333 333 335 335 334 333 333 334 334 334 336 334 335 335 334 332 332 332 335 335 334 334 332 326 330 333 336 335 337 337 335 335 332 332
335 334 331 332 333 331 332 332 333 332 334 335 336 334 332 333 333 334 335 335 334 333 334 335 332 337 333 332 333 332 333 334 329 327 331 331 332 334 335 329 331 329 328
336 335 331 330 332 332 331 332 332 331 332 334 333 331 330 330 329 328 327 326 326 327 327 328 330 330 329 328 327 327 330 332 331 329 327 329 329 330 325 323 320 324 326
337 333 333 332 333 333 334 332 332 331 332 332 330 330 330 330 330 329 327 325 324 323 323 324 324 324 326 323 323 324 326 327 328 327 326 326 327 326 324 320 315 317 321
335 333 332 332 334 335 333 332 331 331 330 329 327 327 328 328 328 325 325 324 322 319 319 321 322 324 324 323 322 322 324 325 326 326 325 325 325 325 322 322 316 316 314
338 335 335 335 336 333 332 330 330 327 324 320 316 316 320 324 323 324 323 319 317 315 314 314 316 319 319 319 320 321 322 323 325 324 324 319 317 319 319 320 316 311 308
336 336 335 336 334 331 330 326 323 319 316 312 309 309 309 315 320 321 323 320 318 318 319 317 318 319 315 310 312 312 313 316 320 324 315 312 310 312 316 313 312 313 311
333 333 333 333 332 329 325 321 316 315 314 311 308 306 306 309 315 313 314 309 307 307 309 311 313 314 312 305 304 305 306 306 306 309 310 308 308 309 312 312 312 311 308
327 331 334 332 328 324 319 314 310 308 305 304 305 306 307 309 309 309 308 307 304 302 305 308 309 308 310 310 308 306 306 307 311 311 311 311 310 310 309 304 301 303 300
317 323 331 330 326 319 315 311 308 306 304 304 304 305 306 305 305 306 306 306 302 302 303 303 308 306 305 307 307 305 305 306 307 307 307 305 307 308 309 305 304 302 302
314 314 314 314 313 311 308 307 306 304 303 303 304 305 305 304 304 304 305 305 303 302 302 302 302 304 302 302 303 305 304 307 308 307 305 304 303 304 305 306 307 305 303
309 309 309 309 310 308 306 305 305 305 304 303 303 303 304 304 304 303 303 304 306 304 303 304 303 300 300 301 303 302 303 305 306 304 302 299 298 299 300 303 303 303 304
308 307 307 307 307 306 305 304 304 304 303 302 302 301 301 303 304 303 302 304 306 304 305 305 303 300 300 302 302 302 302 300 298 296 295 295 297 295 292 291 293 294 299
306 305 305 304 304 304 304 305 303 302 300 301 301 300 300 301 302 303 304 305 306 305 305 304 304 302 302 300 297 296 296 295 293 292 290 291 291 290 288 288 289 290 290
301 300 300 299 298 297 297 296 296 295 299 300 298 298 297 296 296 296 299 301 299 297 296 295 294 294 294 294 294 293 292 292 292 291 289 288 288 288 287 287 287 288 287
296 297 296 294 292 292 291 290 296 295 294 293 293 292 291 292 292 292 292 293 294 296 293 290 289 289 290 289 291 290 290 293 291 290 289 288 287 287 286 287 287 287 287
294 293 293 291 289 288 288 288 287 290 294 292 291 291 291 291 292 291 291 293 293 294 290 289 290 290 289 289 288 288 288 288 288 288 289 287 287 286 287 286 287 287 287
295 299 293 291 290 289 289 291 291 289 286 286 290 290 291 291 291 290 291 293 292 291 290 289 290 290 289 288 288 288 288 288 288 288 287 286 286 285 286 285 285 286 285
298 296 294 293 291 291 290 290 291 289 288 287 286 289 289 291 291 291 291 290 288 288 288 289 289 289 288 288 288 288 288 288 287 287 285 285 285 285 285 285 285 291 290
298 302 300 296 294 293 292 292 293 291 289 288 288 288 288 289 289 290 290 289 288 288 289 289 288 288 288 289 288 287 288 288 286 285 285 285 285 284 285 284 284 284 285
302 303 304 299 300 298 297 297 297 294 291 290 291 291 292 290 290 290 289 288 289 289 288 288 288 288 288 289 288 288 288 287 286 285 285 284 284 284 285 284 285 286 286
302 302 302 301 301 300 298 297 298 295 295 293 289 289 292 288 290 289 289 290 290 290 290 289 287 288 289 288 289 288 288 287 286 285 285 284 283 284 285 285 286 285 286
305 306 305 303 302 302 301 300 296 295 293 290 288 288 288 289 290 290 291 291 291 290 290 290 290 289 289 291 291 290 288 287 286 286 284 283 283 284 285 285 285 284 284
307 307 306 305 301 301 300 298 298 296 293 291 289 289 289 290 291 291 291 291 291 291 291 290 289 288 289 289 289 289 289 287 286 285 284 283 283 284 285 285 284 285 284
301 303 305 304 302 300 300 299 298 295 296 294 291 291 291 292 291 292 292 292 291 291 290 289 289 290 290 289 287 287 286 285 284 284 282 282 283 285 285 284 284 285 285
301 302 303 303 302 301 301 300 300 297 294 293 294 291 292 293 292 292 292 292 291 291 290 290 290 292 291 290 290 287 284 284 284 284 281 282 283 284 285 286 286 285 285

GFSGL_sfc_thetae_009.txt.gz
Theta_e
333 331 330 329 328 329 330 330 330 331 333 333 332 331 331 331 332 331 331 334 334 333 332 333 332 333 332 334 334 332 332 331 326 329 333 334 335 335 334 333 332 331 331
334 330 330 330 329 329 330 330 330 331 332 334 333 330 331 331 332 332 335 335 334 332 333 330 331 335 333 333 332 332 331 332 329 325 330 331 333 333 331 329 329 329 327
334 331 328 329 329 328 329 330 330 330 330 330 329 329 328 327 326 326 327 327 327 328 330 333 332 332 330 328 328 328 328 330 330 328 326 328 330 328 322 320 321 323 324
334 333 330 327 329 330 330 330 329 329 327 327 327 327 327 328 328 326 325 323 323 322 323 324 325 326 324 323 325 325 326 328 328 327 325 326 326 324 322 317 314 319 317
334 331 331 331 332 332 330 328 328 326 323 322 323 324 325 326 326 324 325 323 321 319 321 323 324 326 326 326 324 324 325 323 325 325 324 324 324 323 320 320 315 315 314
334 332 334 331 333 331 329 327 325 319 316 316 316 321 322 324 320 322 320 316 316 316 315 316 317 318 319 320 321 321 321 323 322 322 322 321 317 317 318 321 314 313 310
332 335 334 333 330 329 327 323 318 313 311 309 312 316 317 319 318 319 321 317 318 318 317 317 318 316 312 310 310 310 311 313 317 321 316 311 311 313 316 315 314 314 311
328 332 332 331 329 325 321 317 313 310 307 305 306 307 314 315 312 312 313 308 306 306 308 313 314 309 307 307 307 306 306 308 308 309 308 308 308 309 311 313 313 309 309
322 329 332 330 327 321 314 309 306 305 303 302 306 309 311 309 308 308 306 303 302 302 304 307 305 304 311 310 307 305 306 305 309 310 310 310 310 310 309 304 301 302 301
315 317 331 328 322 315 312 307 305 305 302 304 304 306 308 307 305 305 306 305 301 302 302 302 308 304 305 306 306 306 304 305 306 305 305 305 306 306 309 305 305 302 302
312 313 313 317 315 311 309 308 307 303 303 303 303 305 305 305 304 303 304 305 304 303 302 302 303 304 302 302 303 305 304 307 308 304 301 300 301 303 305 305 306 304 302
309 308 308 311 310 309 306 306 306 306 304 304 304 303 304 304 304 303 303 304 307 305 304 304 302 300 299 300 301 301 302 304 303 301 300 298 297 296 296 300 297 301 301
307 306 306 307 307 307 306 305 305 305 304 303 303 302 302 304 304 303 303 304 306 304 304 304 303 300 299 300 301 300 298 294 292 291 290 290 289 289 288 289 290 290 291
303 303 304 304 303 304 304 304 304 303 302 302 301 301 301 302 303 304 304 305 305 304 303 302 302 301 300 297 294 293 293 293 291 288 287 287 287 287 286 286 286 288 287
301 301 300 300 299 298 297 298 299 299 301 301 300 300 300 299 297 297 299 301 298 298 296 293 291 291 292 291 290 290 291 291 290 288 287 286 286 286 285 285 286 286 286
298 297 296 295 294 294 293 292 296 296 294 293 293 294 292 294 293 292 292 293 294 295 290 288 287 288 289 289 288 287 287 290 288 288 286 285 285 285 285 286 286 286 285
292 290 290 290 290 289 287 288 287 290 293 292 291 291 291 291 291 291 291 292 293 292 289 288 288 288 287 287 287 287 287 285 286 286 285 285 285 285 285 285 286 285 285
292 295 288 287 287 286 287 287 287 286 286 286 290 290 290 290 291 291 291 293 292 291 288 289 288 288 287 287 286 286 286 286 285 284 284 284 284 284 284 284 284 284 284
293 291 289 288 288 288 288 288 286 286 286 286 286 289 289 290 290 291 291 291 289 287 287 288 288 287 286 287 286 286 286 286 286 284 283 284 283 283 283 283 283 288 287
294 297 293 290 290 289 290 290 288 286 287 288 288 288 288 290 290 289 288 288 288 288 287 287 287 287 287 287 286 286 286 286 284 284 283 283 282 283 283 283 283 283 283
296 296 298 293 292 291 292 293 291 289 289 289 289 289 291 289 290 289 288 288 288 288 287 288 286 287 287 287 287 287 286 285 285 284 283 282 283 283 283 283 284 284 284
300 299 300 297 296 296 296 296 295 292 291 291 290 290 292 290 290 289 288 288 288 288 288 287 287 287 288 288 288 287 287 286 285 284 283 282 282 283 284 284 284 283 283
302 302 300 300 299 299 299 297 298 296 295 295 292 290 290 289 289 289 289 289 289 289 289 289 288 287 288 289 289 289 288 286 286 285 284 282 281 283 284 284 284 283 283
307 305 302 301 300 299 299 297 297 296 296 294 290 289 289 290 290 290 290 290 290 289 289 289 288 288 288 289 288 287 287 286 285 284 284 281 281 283 283 283 283 283 283
300 300 303 301 300 299 299 299 298 297 296 294 290 290 289 290 290 291 291 290 290 289 290 288 288 288 290 289 288 287 287 285 285 284 281 281 281 283 284 283 283 283 283
300 300 301 301 300 300 300 299 298 297 295 295 293 290 290 291 292 291 291 290 290 290 290 288 288 289 290 289 289 288 285 283 284 283 281 280 282 283 283 284 284 284 284

GFSGL_sfc_thetae_012.txt.gz
Theta_e
334 334 333 332 332 333 333 333 333 335 335 334 333 334 336 337 338 337 336 336 335 336 336 336 336 338 338 338 337 334 334 333 328 330 335 336 337 337 334 332 332 333 333
335 333 332 333 332 332 332 332 334 334 333 331 332 331 332 334 336 335 335 336 335 334 335 336 336 337 335 335 334 333 333 333 330 327 331 331 332 330 328 324 327 327 327
335 332 331 333 333 332 332 332 332 331 330 330 331 330 329 329 329 329 330 328 329 330 333 332 334 334 331 332 331 329 330 332 331 329 327 330 329 326 321 320 321 321 323
335 333 330 331 332 333 332 332 330 329 328 328 328 329 329 329 328 327 326 325 324 324 325 325 326 326 326 327 328 328 329 329 328 327 326 326 325 324 322 318 316 317 316
335 335 334 332 333 332 331 331 327 325 324 325 326 326 327 327 327 326 325 323 322 320 320 323 325 327 327 326 325 324 325 326 326 325 324 325 325 323 321 319 316 315 314
335 334 334 333 333 330 329 327 322 320 320 324 324 324 323 323 319 321 321 320 320 319 317 317 317 317 317 317 317 319 319 321 323 323 324 321 318 318 318 321 316 315 310
333 337 334 334 332 329 325 322 318 315 316 317 319 322 321 319 316 317 319 318 317 318 318 318 315 312 311 310 311 312 313 314 317 319 309 309 310 311 316 315 315 312 309
328 332 334 333 330 327 322 316 313 311 311 312 314 317 314 312 311 310 311 310 310 312 314 310 309 310 310 309 308 306 307 308 309 310 311 310 310 310 309 313 311 307 309
320 324 333 331 326 322 316 312 309 309 308 309 312 312 310 309 307 307 309 308 307 307 310 310 311 311 310 310 310 309 308 307 309 309 309 309 309 309 310 309 306 309 306
315 316 328 329 324 317 313 309 308 308 307 308 309 309 308 307 305 305 308 308 306 306 307 308 308 307 305 305 310 309 307 307 307 306 306 307 308 307 309 307 307 305 304
311 312 313 316 315 313 309 309 308 307 306 306 306 306 306 306 305 303 305 308 306 305 305 305 305 303 301 301 303 309 308 310 306 304 303 301 300 301 303 302 305 305 305
309 309 309 309 310 309 307 308 308 308 306 305 304 304 305 305 304 303 304 305 308 306 303 303 302 299 298 299 300 299 300 303 302 301 299 297 296 294 295 297 299 306 307
307 306 306 307 307 308 307 306 306 306 305 304 303 303 304 305 305 303 303 304 305 304 304 304 301 298 298 298 299 299 299 299 298 296 295 295 294 294 297 298 300 300 304
303 304 305 305 304 305 305 306 305 304 304 303 303 303 303 303 304 305 305 306 304 304 304 302 301 300 298 298 299 299 300 298 296 295 294 294 295 295 295 295 296 296 299
303 302 302 301 300 298 297 300 301 301 303 302 302 303 302 300 299 299 300 300 301 300 299 299 299 298 297 297 296 297 297 297 296 295 294 294 294 295 294 295 295 296 295
300 299 300 299 297 296 295 294 296 296 295 293 294 298 297 295 293 293 292 293 294 294 296 296 296 296 295 295 295 294 294 295 295 295 294 293 293 293 294 295 295 294 295
295 295 295 294 293 292 292 293 292 293 293 292 291 292 292 292 291 291 292 292 292 294 296 295 295 295 294 294 294 294 294 294 294 293 293 293 293 293 293 293 294 294 295
295 293 291 291 291 291 291 291 292 293 293 293 292 292 290 290 290 291 292 295 297 296 296 295 295 295 295 294 294 294 294 293 293 293 293 292 292 292 292 292 292 293 294
293 292 291 291 291 291 291 291 291 292 292 292 292 292 292 290 290 290 291 298 296 295 295 295 295 295 294 294 294 294 295 294 293 293 292 292 292 293 292 292 292 291 292
295 295 293 293 293 293 293 291 291 292 292 293 293 294 294 295 295 295 295 295 296 295 295 295 294 294 294 295 295 295 295 294 293 293 292 292 292 293 292 292 293 292 293
297 298 296 295 295 294 294 294 293 292 293 293 294 293 291 296 295 295 295 294 295 295 294 294 295 295 294 295 295 295 295 294 293 293 292 292 292 292 293 293 293 293 293
300 299 299 297 296 296 296 296 296 294 294 294 294 294 291 296 296 296 294 294 294 295 295 295 295 295 295 295 296 296 295 294 294 293 292 291 292 293 293 293 293 293 293
303 302 302 302 300 299 298 298 298 298 297 296 296 296 296 296 295 295 295 295 295 295 295 295 295 294 295 296 296 296 295 295 295 294 292 292 291 291 293 293 292 292 292
306 306 304 303 302 301 301 301 300 297 300 298 297 297 296 296 295 295 296 296 296 295 295 296 296 296 296 296 296 296 296 296 294 293 293 292 290 290 292 292 292 291 292
308 308 305 305 304 303 302 302 301 301 300 299 298 296 294 295 296 295 296 296 296 296 296 296 296 296 297 297 296 296 292 285 292 289 291 290 289 290 292 292 292 292 291
303 304 304 305 304 303 303 302 302 302 300 300 299 297 295 295 295 296 296 296 296 296 296 297 296 296 296 297 297 292 286 284 288 285 289 289 288 290 291 292 292 293 292

GFSGL_sfc_thetae_015.txt.gz
Theta_e
345 344 342 343 343 343 342 343 343 343 343 342 339 338 340 344 346 343 341 340 339 340 341 340 342 344 343 344 344 344 342 341 334 337 337 338 337 337 334 335 336 336 332
345 345 342 344 343 342 342 342 343 341 342 342 337 334 335 338 341 342 339 339 337 337 338 338 339 342 342 344 343 341 335 334 332 329 333 334 331 327 326 325 327 327 327
346 345 341 343 344 342 342 341 341 341 340 339 339 337 336 335 334 332 332 330 328 331 335 337 337 338 335 335 334 334 334 335 334 331 329 332 329 325 321 320 321 322 324
345 344 343 342 344 344 341 340 340 340 338 338 338 338 337 336 336 334 332 329 326 326 326 326 326 327 327 329 329 328 331 331 330 329 328 327 325 324 323 319 316 318 317
344 343 344 342 343 342 337 338 338 337 337 337 337 336 335 332 329 331 331 330 324 321 320 322 323 324 324 325 324 323 326 328 328 327 326 327 325 324 322 319 316 315 315
343 343 346 344 343 340 333 336 335 334 334 335 333 332 331 327 318 322 329 327 325 324 321 319 316 316 317 318 318 319 320 323 324 324 322 319 314 316 318 320 315 315 311
342 344 344 344 342 338 332 334 333 330 329 328 329 329 327 325 314 316 321 326 323 322 321 319 315 313 313 313 313 314 314 316 318 318 313 312 311 310 317 317 316 312 310
333 339 344 342 340 333 333 332 329 330 326 323 322 322 323 317 310 312 317 325 319 318 317 319 319 318 316 316 315 314 313 314 316 315 316 314 311 315 316 316 311 309 310
327 328 334 339 334 331 330 327 326 326 326 322 320 319 320 317 307 309 318 321 317 317 317 319 318 316 310 312 316 314 313 310 308 309 309 309 309 310 312 315 310 314 310
321 320 323 335 331 328 325 323 323 324 323 321 315 315 311 314 304 306 315 317 316 315 316 314 307 311 305 307 318 316 313 312 311 311 311 311 311 308 310 313 310 309 309
315 316 316 318 319 319 318 320 319 319 318 313 311 311 311 310 308 304 306 314 312 311 311 308 307 302 300 301 306 313 310 308 308 306 305 305 305 304 304 308 312 308 307
313 313 312 311 311 311 311 312 312 316 315 312 309 306 310 308 306 303 304 306 309 306 304 304 302 298 298 298 301 300 302 307 308 306 304 302 302 302 304 306 310 311 312
310 309 309 309 309 309 309 309 308 309 308 307 304 305 305 307 308 303 302 304 306 305 305 301 300 298 299 301 300 301 303 306 304 302 301 301 301 304 305 306 307 312 313
307 307 308 307 307 308 307 309 308 307 305 304 304 305 307 307 308 308 308 306 306 306 305 305 302 302 301 304 305 305 305 304 303 302 301 302 302 302 301 303 302 304 304
307 306 305 305 304 301 299 302 304 304 306 305 306 308 305 304 304 302 303 303 304 303 306 306 305 304 303 303 303 304 304 304 302 302 301 300 300 301 301 303 302 302 300
309 308 306 304 301 300 299 296 296 296 295 294 296 302 301 297 294 293 293 293 294 295 304 304 303 302 301 301 302 301 302 301 302 301 300 299 298 299 300 301 301 300 299
311 308 305 305 303 299 303 301 297 295 294 292 292 292 293 293 292 291 291 292 293 297 303 303 302 302 301 301 302 301 300 301 302 300 299 299 299 299 301 299 300 301 300
304 300 301 300 300 300 301 301 304 304 303 302 293 295 291 291 291 291 292 295 301 301 303 301 301 302 301 301 301 301 300 300 300 300 300 299 298 298 299 299 299 298 300
301 301 301 300 300 299 300 300 300 301 302 302 302 296 295 291 291 291 293 305 302 301 301 301 302 300 301 301 301 302 303 301 301 301 300 300 300 300 300 300 299 292 294
302 299 302 302 301 301 301 301 301 301 301 302 302 302 302 299 302 303 304 304 302 302 301 301 301 301 300 301 302 302 301 300 300 300 301 301 301 300 300 299 299 298 300
305 303 301 304 304 304 303 303 302 302 302 302 302 301 292 302 302 302 303 303 302 302 302 302 301 300 301 301 302 302 302 301 300 300 300 300 301 299 300 300 299 300 300
306 306 306 307 306 305 306 306 304 303 302 302 302 301 292 300 302 302 302 302 302 303 303 302 301 301 301 301 301 301 301 300 301 300 300 299 299 299 298 298 298 298 298
309 308 308 308 307 305 305 305 305 305 304 303 303 302 301 301 302 303 303 303 302 302 302 302 301 301 302 302 303 302 300 300 301 301 300 299 298 297 296 297 297 296 297
311 311 311 311 312 311 310 309 308 301 306 306 306 305 304 303 303 304 303 303 303 303 303 303 302 301 302 303 303 303 302 301 302 301 300 299 297 293 295 296 297 296 296
311 311 312 313 311 310 311 310 310 309 308 307 307 307 306 306 304 304 305 304 303 303 303 303 303 303 303 304 303 301 294 287 297 294 300 298 295 294 295 296 296 296 296
312 311 308 310 310 310 310 309 309 309 308 308 308 308 308 307 305 304 304 304 303 303 304 304 304 304 304 304 303 297 287 285 292 286 297 296 295 295 294 296 296 296 296

GFSGL_sfc_thetae_018.txt.gz
Theta_e
349 348 346 348 348 348 346 347 345 346 346 346 343 342 346 348 350 351 349 344 344 343 343 344 344 348 346 346 354 351 350 348 340 347 345 347 341 337 333 333 332 332 330
349 349 347 349 349 347 346 346 345 344 345 344 344 341 341 342 345 345 342 341 340 339 339 340 341 342 347 349 350 347 346 345 340 332 335 334 328 325 324 323 325 326 326
348 348 347 348 349 347 345 346 346 344 343 343 342 340 341 340 338 335 335 333 330 333 334 334 335 340 338 338 335 335 338 338 337 333 332 333 325 324 320 321 321 321 322
348 348 347 349 349 346 345 343 344 343 342 342 342 340 340 339 340 339 336 333 331 329 329 328 327 329 330 330 328 329 332 331 330 329 327 326 325 325 323 320 317 319 317
348 347 347 349 350 348 343 341 342 341 341 340 339 339 339 337 335 338 335 334 331 328 323 322 324 325 324 325 327 326 330 329 329 328 327 325 322 322 321 321 315 314 314
348 347 349 349 348 345 342 340 340 338 338 337 336 336 335 331 318 323 332 332 331 329 325 324 322 319 317 318 319 320 323 329 326 324 319 316 316 319 321 320 315 314 310
348 347 348 349 347 343 343 340 339 335 335 333 333 334 333 329 316 318 326 333 330 329 328 324 322 319 319 321 318 319 318 319 322 325 317 315 314 316 321 321 317 314 312
342 342 346 347 345 340 342 338 336 333 331 331 332 333 331 320 312 314 322 329 328 328 328 327 325 324 322 323 321 318 317 318 320 319 321 319 319 321 321 319 317 315 312
335 333 336 335 343 338 338 336 337 332 329 329 333 333 330 323 309 310 322 327 325 324 324 323 322 320 311 314 321 318 315 312 309 310 309 308 309 310 314 322 317 314 310
327 330 331 330 337 336 337 334 335 332 330 328 328 329 317 323 306 307 317 324 323 320 321 318 307 314 306 308 323 321 317 316 316 316 316 313 313 311 312 318 315 314 317
323 322 320 320 324 328 329 331 328 329 327 326 320 313 315 316 315 305 307 326 323 319 314 311 308 302 302 303 308 318 313 313 311 314 313 310 310 310 310 313 315 313 312
320 318 316 315 314 315 317 321 323 321 321 322 320 316 314 314 306 304 304 307 312 313 307 307 305 299 298 300 306 301 303 308 313 310 308 307 306 307 308 311 314 315 313
315 314 313 312 311 311 311 313 311 312 310 308 307 305 306 309 307 302 303 305 306 310 310 303 301 298 298 302 301 302 303 311 309 307 306 305 306 307 311 311 313 316 314
313 311 310 310 310 311 311 311 309 309 307 306 306 306 308 310 310 310 308 306 305 304 304 307 306 304 302 306 307 308 308 308 307 306 305 306 307 307 306 308 307 310 310
314 313 311 309 306 302 300 302 305 305 307 310 309 310 307 308 308 303 304 310 307 306 305 309 309 309 308 307 308 308 309 309 307 307 306 305 305 306 305 307 307 308 305
315 313 310 307 305 304 303 300 297 297 296 295 298 304 302 297 294 294 294 294 297 298 307 310 310 310 309 308 307 306 306 305 306 306 304 304 304 304 305 306 307 306 304
317 316 313 313 312 310 307 305 301 297 294 293 292 292 294 294 292 292 292 293 295 297 308 310 309 309 308 308 307 307 305 305 308 305 304 304 304 303 302 304 306 305 305
314 303 309 308 308 308 309 311 312 311 309 307 294 297 291 292 292 292 292 294 303 302 309 307 308 308 307 306 307 306 304 304 305 305 305 305 304 303 304 304 304 303 304
308 308 308 307 307 306 307 307 307 308 307 306 306 298 296 292 292 293 294 306 308 307 307 306 307 306 307 306 306 306 305 303 303 303 305 305 305 303 304 303 301 294 295
309 305 308 309 308 309 309 309 308 307 307 307 306 306 305 302 304 305 306 307 306 306 307 306 306 306 306 306 305 304 303 302 303 303 304 305 305 303 302 301 302 301 302
310 309 305 311 311 311 311 310 310 310 307 307 307 304 294 305 306 306 306 306 306 306 306 305 305 305 304 305 304 304 303 303 303 303 303 303 304 301 303 301 301 301 302
313 312 313 313 313 313 315 315 314 313 312 309 307 303 293 303 305 305 305 306 306 306 306 305 305 305 305 304 304 303 303 302 303 303 303 303 302 302 301 300 300 301 301
314 314 314 316 316 310 313 313 313 312 312 311 309 306 304 304 304 305 305 306 306 306 307 306 304 304 304 305 305 305 303 303 304 304 303 302 302 301 300 299 300 299 300
317 317 316 316 316 315 315 314 314 306 311 312 311 309 308 307 305 305 306 307 306 306 306 306 306 304 305 305 305 305 305 304 304 303 304 302 301 298 298 298 299 299 299
318 317 316 315 314 314 313 312 312 313 313 313 312 311 311 310 309 308 308 308 307 307 307 307 306 306 306 306 306 306 296 289 298 291 303 302 301 301 298 298 299 300 300
316 318 314 313 310 314 312 311 312 313 314 314 313 312 313 312 312 311 309 309 308 308 307 307 307 308 307 307 306 300 288 286 294 287 300 301 300 299 299 298 298 299 299

GFSGL_sfc_thetae_021.txt.gz
Theta_e
351 349 349 348 348 353 349 349 347 348 348 346 346 345 345 348 350 351 349 347 347 347 346 345 345 350 351 358 359 356 349 349 340 341 343 346 335 334 331 331 331 329 328
351 350 349 349 348 348 347 347 347 346 348 346 345 344 344 342 345 345 342 342 341 340 341 342 342 345 347 350 350 348 347 347 343 338 341 332 326 324 324 323 323 325 324
351 349 348 348 349 348 347 346 347 344 344 344 343 342 343 343 341 341 339 336 335 334 334 334 336 339 336 337 338 338 339 341 340 336 333 329 324 324 321 321 320 319 321
348 347 348 348 349 349 347 345 345 344 344 342 343 342 342 341 340 339 338 335 333 331 330 330 332 331 333 334 333 334 336 333 331 329 327 325 325 325 324 320 315 317 316
348 347 348 349 349 349 347 345 344 343 342 341 341 341 338 337 334 338 335 334 332 330 328 324 324 324 324 326 330 331 334 331 330 329 325 323 322 322 321 320 315 315 315
347 346 351 350 349 349 346 342 343 340 340 340 339 337 336 332 320 325 333 334 332 331 330 331 330 327 321 321 322 322 328 331 328 323 321 318 319 320 322 319 315 314 310
351 350 350 350 350 348 347 343 339 338 338 338 337 337 334 330 318 320 327 333 332 330 330 329 326 325 327 325 321 321 321 322 325 328 321 320 319 320 323 320 318 317 314
347 347 348 350 349 350 346 343 340 336 335 334 334 334 332 323 313 314 320 334 331 330 329 328 328 326 320 324 321 317 315 315 321 321 322 322 323 326 324 323 322 318 317
342 340 339 343 346 344 344 340 339 335 334 333 334 332 332 327 312 314 320 331 329 327 324 320 324 322 312 313 322 318 316 312 309 309 309 311 311 311 315 322 320 318 315
332 333 333 332 338 340 339 338 338 335 334 332 331 330 322 327 307 309 314 327 326 322 322 319 308 313 307 309 326 323 319 319 319 318 315 313 316 314 314 323 317 315 318
329 328 326 322 322 331 333 334 334 334 331 330 325 325 322 312 313 306 308 327 325 322 319 314 312 304 303 304 310 322 317 317 315 317 314 312 312 313 312 315 319 314 312
324 323 320 318 316 318 320 322 322 328 327 325 323 323 318 314 305 304 304 307 315 318 314 312 307 300 299 300 309 302 303 307 315 311 309 308 308 309 310 314 317 315 315
321 319 317 315 313 313 313 315 313 313 319 316 307 307 307 307 307 304 303 305 307 315 313 304 301 299 299 303 302 303 305 312 311 310 307 307 308 309 314 314 317 317 316
319 315 313 311 309 310 311 312 310 309 309 306 307 310 308 310 310 311 309 307 305 304 305 306 307 307 303 306 306 309 311 310 309 308 307 308 310 309 308 308 308 309 309
320 318 315 311 307 304 302 304 307 304 308 310 311 312 312 309 306 300 304 309 310 307 307 305 304 311 310 310 311 311 310 310 309 309 308 307 306 307 306 307 306 307 305
320 319 315 314 312 310 308 304 298 298 297 296 298 303 302 298 295 295 295 297 298 299 306 309 311 311 310 310 309 309 309 306 308 308 307 305 304 304 305 306 306 305 304
319 319 316 316 317 315 313 311 306 299 295 293 293 294 295 295 293 293 293 294 297 298 308 311 311 310 309 308 307 307 307 307 309 306 305 304 304 303 301 303 304 304 305
321 307 319 317 316 315 317 317 316 314 311 308 295 300 293 294 294 293 293 294 304 302 307 310 309 309 307 306 306 307 306 306 305 305 305 303 303 302 302 303 303 302 303
312 311 311 311 310 309 311 310 310 311 310 309 307 299 297 293 293 294 295 305 308 308 309 308 309 308 306 307 306 306 307 305 304 304 304 304 304 303 303 302 302 295 295
312 310 311 311 311 311 312 311 309 309 310 309 308 308 306 303 304 304 305 308 308 307 308 307 308 307 306 307 306 305 305 305 304 303 304 304 304 303 302 302 302 301 302
311 312 307 313 313 313 312 311 311 311 310 309 310 303 295 306 308 308 308 308 308 308 308 307 306 306 306 306 305 305 304 304 304 304 304 304 304 302 304 302 302 302 302
314 313 315 314 314 315 314 316 315 314 313 311 309 305 297 304 306 307 307 308 308 308 307 307 306 306 306 305 306 304 304 303 304 304 304 304 304 303 303 302 301 302 301
315 315 314 315 317 310 314 315 314 314 313 313 313 309 306 305 305 306 307 308 308 308 308 307 306 305 305 306 306 306 304 304 305 305 304 304 303 303 303 301 300 301 301
316 317 316 315 314 315 315 315 314 307 313 313 313 312 311 311 309 309 309 309 309 309 308 308 307 307 307 306 306 306 306 306 306 305 305 304 303 301 302 301 299 300 301
317 317 317 317 315 313 313 315 314 314 313 313 312 314 312 312 312 312 312 311 311 310 309 309 308 308 308 307 307 306 297 288 300 291 302 303 303 303 302 301 300 299 301
317 317 314 314 314 314 313 313 313 312 312 313 313 313 313 313 313 313 312 313 312 311 310 310 310 309 309 309 308 301 288 286 296 289 301 302 301 301 301 300 300 299 300

GFSGL_sfc_thetae_024.txt.gz
Theta_e
353 354 353 354 351 353 348 349 347 349 347 345 344 343 342 343 347 347 344 346 344 344 344 344 344 346 345 345 347 345 342 340 335 338 340 335 328 327 326 326 326 324 326
354 353 354 354 351 350 348 349 349 346 346 344 343 344 345 342 341 341 339 339 338 337 336 340 339 342 341 343 344 343 342 341 337 333 337 324 323 325 323 321 322 323 322
352 352 352 352 350 350 347 348 348 344 344 343 342 343 340 339 338 338 337 334 333 332 333 332 332 335 333 334 337 338 338 339 338 335 327 325 323 323 320 320 318 318 321
351 350 351 350 351 349 350 348 347 346 342 343 342 341 341 339 336 335 335 333 331 329 329 328 329 330 332 333 334 334 334 333 331 327 324 324 323 323 322 317 314 316 316
352 349 353 348 349 350 347 346 345 344 340 342 342 339 338 334 328 333 333 332 331 328 328 327 325 325 325 328 330 331 332 330 328 323 321 321 320 320 319 318 314 313 313
351 348 353 349 350 348 347 344 344 340 339 342 340 336 332 328 320 323 331 331 330 329 327 329 328 325 322 323 324 324 327 330 325 323 321 319 319 320 321 317 314 314 310
350 350 348 351 349 346 346 340 341 338 338 339 337 335 330 326 317 319 323 332 330 330 330 329 326 323 326 324 322 321 320 323 325 324 320 321 319 320 321 318 318 317 313
346 345 346 345 348 348 346 342 341 337 333 333 335 334 328 319 316 314 317 330 328 326 324 327 326 321 317 321 316 311 309 310 316 318 318 319 316 323 324 322 320 316 316
339 339 337 335 338 347 339 337 338 336 335 335 334 333 329 321 311 310 320 329 326 324 320 315 323 320 313 313 319 315 312 309 308 310 311 311 311 313 316 321 318 316 314
331 329 329 329 328 339 339 336 337 336 332 332 329 327 320 320 308 307 313 331 325 320 321 317 310 309 308 309 327 324 320 320 318 314 313 312 316 314 317 318 313 312 313
327 326 324 322 321 326 331 332 334 331 331 327 326 324 319 312 312 306 307 320 326 321 316 314 312 305 302 303 309 316 312 315 317 319 316 315 315 312 313 315 314 311 309
323 320 318 317 317 318 320 320 322 327 325 322 321 316 311 310 305 304 304 307 316 317 314 313 309 301 300 301 307 302 304 307 313 315 311 309 309 309 311 314 315 314 314
320 317 315 314 314 313 314 315 314 314 313 311 310 310 307 309 309 303 302 305 309 314 308 303 302 299 299 303 303 304 305 310 313 311 309 309 308 309 313 315 316 315 315
317 315 313 310 309 310 311 311 311 311 309 307 308 308 308 310 311 310 308 305 305 305 306 307 306 307 305 308 306 312 312 309 310 310 309 309 311 310 308 309 311 312 309
319 316 314 313 311 307 304 306 309 307 309 310 310 311 310 310 307 301 302 311 312 308 309 310 304 303 305 312 312 312 313 313 311 310 309 307 306 307 306 308 306 307 305
321 318 317 315 314 312 310 306 299 299 297 297 299 304 302 299 296 295 296 297 298 299 308 308 308 311 311 311 311 310 310 308 310 309 307 306 305 304 303 307 305 304 303
322 320 317 317 316 314 313 311 306 301 295 294 294 294 295 295 294 294 294 295 298 299 305 308 313 312 311 309 309 309 308 308 309 308 306 305 304 305 301 303 304 304 304
325 313 322 321 319 318 317 316 313 310 308 306 296 299 294 295 295 294 294 297 304 302 303 309 311 311 310 309 308 309 309 307 307 306 305 304 304 303 302 302 302 302 300
319 315 315 314 313 313 315 313 310 313 311 308 305 298 296 294 294 294 295 302 305 308 310 310 311 311 309 310 309 309 309 306 303 305 305 305 305 303 302 302 300 298 296
313 312 312 313 311 313 312 310 310 312 313 311 309 307 304 302 303 304 304 306 307 309 309 310 311 310 310 309 308 308 307 306 305 304 304 303 306 304 301 302 301 300 299
310 311 312 313 312 312 312 311 312 311 310 309 309 303 301 307 307 308 308 308 309 310 311 311 308 309 310 311 308 307 306 305 305 305 305 305 306 302 303 303 301 301 301
313 313 314 313 314 315 313 314 314 312 311 310 308 304 299 305 305 306 311 311 312 313 312 312 308 308 307 308 308 306 305 304 304 305 305 304 304 304 303 302 301 300 300
315 314 314 315 316 313 315 315 313 316 314 314 312 305 302 306 305 306 308 309 313 313 313 312 310 308 307 308 309 309 304 305 305 306 305 304 304 303 303 301 300 299 299
316 316 316 313 314 315 315 315 315 309 313 314 314 314 312 311 311 313 312 313 313 313 313 311 310 308 309 311 310 309 307 307 307 305 307 303 302 301 301 301 300 300 298
317 318 317 315 314 314 315 314 314 313 311 313 313 314 313 313 311 313 314 316 316 314 314 314 313 311 311 311 310 309 301 290 302 296 303 303 301 301 302 300 300 300 299
313 314 313 314 312 313 312 312 312 313 311 310 312 312 312 312 311 311 313 315 314 315 312 314 313 311 310 310 306 298 292 288 294 290 304 304 301 299 299 300 300 299 299

GFSGL_sfc_thetae_027.txt.gz
Theta_e
343 343 341 342 342 340 340 337 340 338 338 338 340 340 338 336 336 335 335 335 334 333 337 337 337 338 337 337 337 336 334 332 326 332 333 329 327 325 324 324 324 323 324
344 341 341 342 340 339 339 337 338 338 338 337 338 337 336 337 335 332 330 330 330 329 331 331 333 334 331 332 334 333 333 333 329 327 327 323 322 321 320 320 321 322 321
343 342 343 341 339 337 337 336 339 338 334 333 335 333 331 334 334 333 330 328 327 327 327 326 327 330 328 330 330 330 329 331 329 328 324 323 322 320 318 318 318 319 321
343 342 342 341 340 338 338 336 336 339 334 332 332 332 328 328 332 332 329 327 326 323 322 321 321 322 327 327 326 327 327 326 325 324 323 321 321 322 320 315 313 316 314
345 343 342 342 343 340 338 336 335 334 333 333 330 327 326 324 327 331 330 328 325 323 320 319 319 325 327 327 323 323 324 322 320 319 320 319 320 320 318 316 312 312 313
341 344 343 342 340 337 336 335 333 334 334 331 327 325 322 321 319 323 329 327 327 325 321 319 319 320 321 321 320 322 324 319 318 316 319 317 317 319 317 314 312 311 309
344 344 342 341 339 339 337 336 333 331 333 328 325 323 318 314 315 318 326 325 324 324 323 317 315 317 315 309 311 312 315 321 322 320 315 317 317 319 318 314 316 311 310
337 336 334 335 336 337 337 336 333 332 330 328 324 319 314 311 312 312 322 320 316 313 314 317 313 311 312 307 303 301 300 304 310 312 310 307 308 316 316 315 311 309 309
328 327 326 327 328 334 336 334 333 330 330 327 327 321 313 307 309 309 318 318 314 310 309 310 310 308 311 314 307 303 301 301 308 311 311 311 313 314 314 316 310 308 306
324 323 321 321 324 333 336 334 332 331 329 324 320 316 315 307 306 306 313 317 312 310 308 306 310 306 306 310 311 308 304 303 303 304 304 306 309 310 314 307 305 305 306
319 318 317 318 319 324 329 332 331 328 324 321 317 311 308 306 306 305 307 316 315 310 307 305 303 304 302 304 305 306 304 304 306 307 307 306 303 305 305 305 305 304 301
316 316 314 314 315 318 319 320 325 324 321 317 312 308 307 306 305 303 304 308 313 309 306 306 302 300 299 302 301 302 303 303 299 302 299 299 300 300 303 305 304 305 304
315 313 312 312 312 313 314 315 315 315 313 310 309 306 306 307 308 303 302 305 308 305 303 303 302 300 300 302 303 303 304 301 302 299 297 297 297 299 303 306 305 305 304
313 311 310 309 308 310 310 310 311 310 309 309 307 306 308 308 307 305 304 302 305 303 305 304 305 304 304 306 301 302 299 298 299 298 296 297 300 299 298 301 303 303 301
313 310 308 306 303 303 302 304 307 303 307 309 309 310 309 306 303 299 300 303 306 300 304 303 299 297 296 297 302 300 300 300 299 297 296 296 296 298 296 297 296 297 300
312 311 309 307 306 304 302 300 299 299 298 297 298 303 302 299 297 296 295 296 299 299 299 299 300 300 300 299 298 299 297 300 297 298 296 294 295 293 293 295 297 296 296
311 311 311 310 308 306 304 301 298 297 296 295 294 294 297 296 295 294 294 294 298 297 295 297 299 298 297 298 298 298 296 296 297 298 295 296 294 296 295 295 297 297 296
315 313 311 311 310 309 308 306 302 299 297 296 295 295 294 294 294 293 293 295 296 296 293 294 299 298 297 297 297 297 298 297 298 297 297 297 297 296 295 295 296 295 293
315 309 306 305 307 309 310 309 306 305 301 299 294 294 293 293 293 293 293 293 294 296 299 298 299 298 297 298 298 297 296 296 295 296 296 297 298 298 295 296 296 296 294
305 309 306 303 301 304 303 302 302 303 301 299 297 296 294 294 294 295 294 295 296 298 298 297 299 298 299 298 297 297 297 297 296 297 297 296 297 298 295 296 296 294 292
303 303 309 305 305 304 304 303 303 302 302 303 302 300 297 296 297 297 298 298 298 299 299 298 297 299 299 299 297 297 297 297 297 298 297 297 298 297 296 296 296 296 295
306 305 305 305 305 306 305 305 305 305 303 301 299 298 296 298 298 297 298 301 302 301 300 298 298 298 297 299 300 299 297 297 296 297 297 299 298 298 298 296 295 295 294
307 308 307 308 308 308 308 308 308 309 308 306 302 298 296 296 297 297 298 299 300 301 301 301 299 298 298 299 299 301 298 298 298 298 298 297 297 297 296 296 296 294 294
312 311 310 309 309 309 310 310 309 305 307 306 304 299 298 299 301 300 302 304 303 303 304 303 300 299 299 300 300 300 300 299 299 298 297 295 294 294 294 294 294 294 293
313 311 310 308 309 309 308 307 308 307 305 304 308 306 306 306 306 306 307 307 306 307 305 306 303 300 295 294 293 293 289 286 292 296 297 294 294 293 292 292 293 294 294
308 308 308 307 306 307 306 305 305 304 302 302 304 304 304 304 304 304 304 304 303 302 299 296 293 291 291 290 289 287 285 285 289 286 291 295 294 293 293 292 293 293 293

GFSGL_sfc_thetae_030.txt.gz
Theta_e
340 340 338 337 337 336 333 334 333 332 334 338 337 333 332 331 330 329 329 329 328 329 330 332 331 332 333 335 335 335 333 332 325 326 328 328 325 322 322 323 323 322 323
341 338 338 337 337 335 332 332 335 332 332 334 331 330 330 330 328 329 328 328 325 324 325 327 328 330 328 330 331 331 331 330 328 323 323 323 320 320 321 320 320 322 321
340 339 337 336 335 334 332 332 334 331 330 331 330 328 328 328 327 326 324 324 322 320 320 320 322 325 326 325 326 326 326 326 327 325 321 322 320 319 317 318 318 317 319
340 339 337 336 335 333 333 333 334 332 330 328 327 325 325 327 327 325 324 321 320 318 318 319 321 325 326 322 324 324 322 324 325 323 320 319 319 318 317 314 313 315 312
340 338 340 338 335 334 333 332 330 330 330 326 324 322 321 323 325 325 324 322 319 317 317 318 320 323 323 324 321 321 320 319 321 321 320 320 319 316 315 315 312 311 312
340 339 340 339 337 334 332 331 330 330 327 323 321 320 317 318 317 323 325 324 321 318 316 315 316 316 314 318 321 324 322 316 314 319 318 318 318 316 315 313 311 310 308
341 340 339 338 337 334 333 332 330 329 326 321 319 317 311 311 314 320 323 318 317 317 312 311 312 312 308 305 310 314 317 321 321 318 313 314 317 319 317 313 313 313 310
331 331 331 334 335 334 334 332 331 330 327 321 319 313 309 309 311 316 318 313 312 312 313 310 308 308 308 302 301 300 301 307 310 312 308 310 316 317 315 313 309 306 308
326 325 325 326 327 336 335 331 331 328 327 324 319 313 308 307 307 310 315 311 308 307 308 308 307 307 311 310 304 302 301 301 308 311 312 312 313 313 315 313 309 307 303
321 320 320 324 326 334 334 330 331 329 323 320 315 312 310 306 305 306 314 312 307 306 304 303 309 306 307 309 306 304 304 304 303 304 304 306 306 308 311 305 304 305 309
317 316 316 318 320 326 332 332 328 323 320 315 311 309 305 305 307 304 309 314 312 306 304 302 300 304 302 302 306 305 303 302 303 305 304 301 301 302 302 302 302 303 300
316 316 314 314 316 319 323 326 324 322 316 312 309 307 306 306 304 303 304 309 310 305 304 301 300 300 299 300 300 301 302 303 299 299 300 298 297 298 302 302 301 302 302
314 313 311 311 312 313 316 317 316 316 313 310 308 307 307 308 307 303 302 304 307 305 303 302 303 301 300 301 302 303 300 298 297 296 294 294 294 298 300 302 302 301 300
313 310 310 309 307 309 311 312 312 312 310 309 308 307 308 308 304 304 303 303 304 302 306 305 303 302 302 302 300 300 298 298 296 295 294 295 296 296 296 298 300 300 299
310 309 307 305 306 304 302 305 306 304 308 309 309 309 308 305 302 298 299 302 304 300 302 301 300 297 297 297 298 298 295 296 295 293 292 293 293 294 294 294 293 295 298
307 305 303 302 301 302 303 300 300 299 298 298 301 303 302 300 296 295 295 295 297 298 300 298 296 297 298 295 295 296 295 297 294 294 292 291 293 291 290 292 294 293 295
308 306 305 304 302 300 299 299 298 297 296 295 295 297 299 298 294 293 293 294 295 296 293 293 293 295 294 295 295 295 294 293 293 294 292 292 292 293 294 294 294 294 295
309 308 307 306 304 302 301 299 298 297 296 296 295 294 293 293 293 293 293 294 294 296 293 293 295 295 294 295 295 295 294 293 295 294 293 293 292 294 294 293 294 294 293
311 310 309 308 306 306 304 302 300 299 297 296 293 294 293 292 292 292 292 291 292 293 294 296 296 296 294 295 295 295 294 294 293 293 293 293 293 293 293 293 294 296 293
311 311 308 302 304 306 307 305 303 302 298 296 294 294 293 292 292 292 292 292 292 293 296 295 297 296 296 297 295 294 294 295 294 293 294 294 294 294 294 293 293 292 292
301 301 306 302 301 301 306 302 304 302 300 298 297 296 294 294 294 294 295 295 295 295 296 295 297 297 296 297 295 294 294 295 294 294 295 295 295 294 295 294 294 294 293
301 302 303 302 303 302 301 301 300 300 301 301 299 298 294 295 295 296 296 297 298 297 298 297 295 295 297 297 298 297 295 295 295 295 293 294 295 295 295 295 294 293 293
303 304 306 306 306 305 305 305 303 304 304 301 300 298 298 297 296 295 295 295 297 298 299 299 299 296 296 296 296 297 296 296 296 296 295 295 294 294 294 293 293 293 292
309 308 307 305 306 308 306 307 304 302 303 302 299 297 296 298 297 299 302 304 304 302 301 299 294 292 292 291 291 290 290 288 291 296 295 294 293 293 292 292 292 292 292
308 306 305 304 303 303 305 304 304 300 300 303 303 303 302 301 301 301 301 300 298 294 292 292 291 291 290 289 288 287 285 284 287 286 291 293 292 292 292 291 291 291 291
305 305 304 304 306 305 305 305 304 303 303 303 302 301 300 298 297 297 298 299 297 294 291 289 287 288 287 286 286 285 284 284 285 285 287 291 292 293 294 293 291 292 292

GFSGL_sfc_thetae_033.txt.gz
Theta_e
339 338 334 334 333 331 332 331 329 328 331 330 329 329 328 327 327 326 326 325 325 325 327 327 328 329 330 332 335 334 334 331 326 326 327 326 323 322 322 322 323 322 323
340 339 336 335 333 331 330 330 329 328 329 328 328 327 327 326 326 327 324 322 321 321 321 324 325 328 326 327 329 328 332 332 328 322 323 320 319 320 320 319 320 320 320
339 336 335 335 333 331 330 330 329 329 328 327 326 325 325 324 323 322 320 319 318 318 319 320 323 325 325 324 323 323 323 327 326 323 319 320 319 319 317 318 316 315 317
339 336 334 334 332 331 330 331 329 328 326 324 323 323 324 324 323 322 319 317 317 317 318 321 322 320 319 320 322 320 325 325 324 321 319 318 318 318 317 314 312 313 312
337 336 335 332 333 332 332 330 329 328 325 323 321 320 320 321 322 321 320 316 315 314 314 315 316 322 324 325 320 318 318 322 322 320 319 318 317 315 314 315 311 311 312
338 336 337 333 333 333 331 328 328 325 322 321 318 317 314 316 317 323 322 318 317 314 311 309 311 312 314 320 323 324 321 316 319 319 318 318 318 317 315 313 310 310 308
339 339 338 335 333 332 331 330 328 325 323 319 316 313 311 311 316 318 321 317 314 311 309 307 307 307 306 306 313 315 317 319 320 318 314 316 317 318 315 312 311 313 311
333 334 336 336 334 331 331 330 329 326 322 319 314 312 309 309 313 314 316 313 311 311 309 308 306 304 304 302 301 302 302 306 307 309 311 314 319 319 317 316 314 309 308
326 325 326 329 331 333 331 330 329 326 322 319 315 312 308 306 307 312 311 309 307 306 307 307 306 307 311 309 303 301 300 301 308 312 311 311 312 314 313 310 308 307 307
321 322 324 324 326 331 334 330 329 326 321 317 313 311 309 306 305 307 310 308 305 304 303 302 308 306 309 307 305 304 304 303 302 302 303 303 304 305 309 303 308 308 309
318 319 320 322 323 330 331 330 324 320 314 311 309 308 306 303 305 304 309 312 309 306 303 301 300 304 302 305 306 304 303 303 305 303 301 298 299 300 299 299 299 303 301
315 316 317 318 318 322 329 325 321 317 312 309 309 308 308 306 304 303 305 309 309 307 303 302 299 300 299 299 300 301 302 303 297 299 299 296 296 298 299 300 300 299 299
315 313 315 314 314 316 320 321 318 315 313 310 309 308 307 308 306 302 302 304 306 303 302 302 303 299 299 299 302 301 300 297 296 295 295 294 293 294 298 301 301 298 298
316 315 311 310 310 311 312 314 314 313 311 309 308 308 308 305 303 305 304 303 304 304 306 301 302 301 301 300 300 298 298 295 295 293 293 293 294 294 294 295 297 298 297
313 310 308 308 307 305 303 306 308 306 310 310 309 309 307 304 302 299 300 302 301 300 302 300 302 301 299 298 297 296 294 294 293 291 291 291 291 291 292 292 291 294 297
306 305 305 305 305 305 303 300 300 299 298 300 302 304 303 300 296 295 294 295 296 297 299 294 295 296 294 293 294 295 294 295 293 292 290 290 291 290 290 290 291 291 292
304 302 302 301 300 299 299 300 299 299 296 294 295 297 298 298 294 293 293 294 294 295 295 291 294 293 293 294 294 293 293 292 291 293 290 291 290 291 291 291 291 291 291
305 305 302 302 301 299 299 298 298 298 297 296 295 294 293 293 293 292 292 293 293 295 293 293 295 294 293 293 294 294 293 291 292 293 292 292 291 292 292 291 291 290 289
307 306 305 303 302 301 300 298 297 297 296 295 294 294 293 292 291 291 292 290 291 292 293 294 295 295 293 293 293 293 293 292 292 291 291 291 291 291 291 291 291 295 292
309 310 308 305 304 303 302 300 298 298 296 295 294 293 293 292 292 291 291 291 291 292 293 294 295 296 294 294 294 293 292 293 292 292 292 292 292 291 292 292 291 291 290
309 309 309 305 307 306 306 304 302 301 299 297 296 296 294 293 293 292 292 292 292 293 294 295 294 295 294 295 294 294 293 293 293 292 293 293 292 293 292 292 292 292 291
300 300 302 302 301 301 304 304 304 305 303 301 299 297 293 293 293 294 294 295 296 296 295 296 294 293 294 294 294 294 294 293 293 293 293 293 292 293 293 293 292 291 291
301 303 304 301 302 302 301 300 301 301 301 300 300 299 296 295 294 295 295 295 294 297 295 295 294 293 292 292 291 290 289 289 289 291 293 293 292 293 292 291 292 291 290
307 306 304 303 304 303 303 303 300 298 301 299 297 296 295 296 299 299 299 296 294 293 293 291 290 289 288 288 287 286 286 286 287 288 289 290 291 291 291 291 291 291 290
305 305 303 302 301 300 300 300 299 300 300 302 302 301 300 300 299 297 295 293 291 289 288 288 288 287 285 284 284 284 283 283 285 286 287 289 290 291 291 290 290 290 291
303 304 303 302 302 302 302 302 301 301 302 301 300 299 298 297 296 294 294 293 290 288 286 284 284 284 284 284 284 284 283 283 283 284 287 289 289 289 289 290 291 291 291

GFSGL_sfc_thetae_036.txt.gz
Theta_e
340 337 336 336 334 334 333 332 331 332 332 331 331 330 329 329 330 329 328 327 327 328 330 331 332 334 334 337 340 340 337 335 327 326 327 325 322 322 322 322 323 323 324
341 338 337 335 335 333 332 332 332 330 331 330 329 328 327 326 325 324 324 324 324 324 326 328 327 330 329 332 334 334 337 335 329 322 323 319 319 320 320 319 319 319 320
340 338 336 335 334 333 332 332 332 330 329 329 328 327 326 325 324 323 322 322 322 323 325 325 326 327 326 327 328 328 331 331 330 325 320 321 319 319 317 317 315 314 317
340 338 336 335 334 334 333 332 332 331 328 327 326 327 327 326 324 322 321 320 320 319 320 321 323 324 325 326 326 327 328 326 324 321 319 318 318 318 318 315 311 313 312
340 338 336 335 336 334 334 333 332 329 326 325 324 323 323 324 324 322 321 320 319 316 315 316 322 325 326 327 325 325 327 325 322 320 319 318 316 315 315 315 311 312 313
339 338 337 336 335 334 334 332 330 327 325 324 321 320 319 321 320 323 323 320 317 314 312 313 313 315 318 320 322 323 324 326 323 321 320 318 318 318 316 314 311 311 310
339 338 338 335 335 334 332 330 327 325 325 320 318 317 316 320 317 319 321 317 315 314 311 310 309 309 312 314 314 314 315 318 322 324 321 319 319 319 317 314 313 314 313
337 339 338 337 334 333 331 330 329 326 323 319 315 315 315 314 313 314 316 316 314 313 313 312 310 310 311 310 311 309 310 313 314 315 316 316 321 322 320 318 317 311 312
330 331 331 335 334 333 331 329 329 325 322 318 315 315 313 311 309 311 314 313 311 310 310 312 313 313 310 309 309 309 309 309 310 311 310 310 313 314 316 319 316 314 312
326 325 326 327 331 333 333 331 329 324 320 315 312 312 310 309 305 308 312 312 310 309 308 308 308 311 307 307 312 311 310 310 310 311 309 309 308 309 309 311 314 314 314
321 323 322 323 326 329 333 330 325 320 315 312 310 309 307 307 308 306 308 314 311 309 308 305 305 304 303 303 305 310 310 312 311 310 307 307 308 308 307 308 309 312 312
321 320 320 321 323 326 329 324 319 317 312 310 310 310 310 308 304 304 308 308 310 310 305 305 305 300 299 300 303 300 302 304 306 309 307 305 305 307 308 308 309 309 309
319 319 317 317 316 319 324 320 317 315 312 312 312 310 309 310 309 302 302 304 306 304 303 304 302 298 299 302 302 301 302 305 306 307 307 305 302 302 306 310 311 309 308
316 315 314 313 313 314 316 317 317 315 312 311 310 309 308 305 306 307 307 307 306 305 305 305 304 303 303 303 305 304 305 303 303 303 303 303 303 304 303 304 305 306 308
316 314 311 310 309 306 303 307 311 308 312 312 311 310 307 304 304 300 303 304 302 303 305 304 306 306 307 306 305 304 303 302 302 301 301 300 301 299 300 301 302 302 304
311 310 309 309 308 307 307 304 300 299 298 299 302 306 306 300 295 295 295 295 296 297 303 301 304 304 302 302 303 304 303 302 302 301 301 299 299 299 299 300 301 301 300
309 307 307 307 307 306 306 306 305 302 296 294 295 297 298 297 294 294 293 294 294 296 301 300 303 302 302 303 303 302 302 302 301 302 301 300 300 300 300 300 300 300 300
308 304 306 306 305 305 305 305 305 306 305 303 297 297 293 293 293 292 292 295 301 301 301 302 303 302 302 303 303 303 303 302 301 302 302 301 301 300 300 301 300 299 299
309 308 307 306 305 304 304 303 303 303 302 302 301 298 295 292 292 292 292 298 301 301 301 302 303 303 302 302 302 302 302 302 301 301 301 301 301 300 301 300 300 296 298
311 309 308 307 306 306 305 303 302 302 301 301 301 301 299 298 299 299 299 298 298 300 300 302 302 303 303 302 302 302 301 301 301 301 301 301 301 301 300 301 301 300 301
312 312 310 309 309 309 308 306 305 304 304 302 302 300 295 300 299 298 298 298 299 300 301 301 302 303 303 303 303 302 301 301 301 301 301 301 301 300 301 301 301 301 301
313 313 312 311 310 311 310 310 309 308 307 306 305 302 293 300 299 300 301 301 302 301 301 302 302 300 300 300 301 301 301 300 300 299 299 300 301 300 301 300 300 300 300
304 306 307 307 307 305 307 308 309 309 307 307 306 305 301 301 301 300 300 302 300 299 299 300 298 296 295 294 293 294 294 294 294 295 297 298 299 299 299 299 299 299 299
305 306 306 306 306 305 305 306 306 302 306 306 304 302 303 301 301 302 300 297 297 296 295 295 294 293 291 290 289 288 289 289 292 294 294 296 298 297 299 299 299 299 298
308 308 307 307 307 307 306 305 304 304 304 304 303 303 302 301 299 299 296 295 294 293 291 290 289 288 288 287 287 287 284 283 287 286 293 294 294 295 295 296 296 297 298
308 308 306 306 305 305 304 304 305 303 303 303 301 300 299 298 298 298 296 294 291 290 289 288 288 287 287 287 286 284 283 283 285 283 288 288 287 287 288 290 292 294 296

GFSGL_sfc_thetae_039.txt.gz
Theta_e
343 346 346 344 344 343 341 342 342 342 341 339 339 339 338 338 339 339 338 339 339 339 340 338 337 341 340 342 347 347 339 338 328 327 326 325 323 323 323 325 325 325 324
342 346 346 345 344 342 341 341 341 340 339 338 337 336 335 335 336 336 335 335 335 335 336 334 334 336 336 340 339 339 341 342 334 325 322 320 320 321 321 319 320 320 321
349 346 345 344 343 342 341 340 340 339 338 337 336 334 333 333 333 334 333 333 332 332 334 334 333 336 334 331 333 334 335 335 335 329 322 321 320 320 317 317 316 315 317
348 347 346 345 344 342 342 341 340 339 337 336 336 335 333 331 331 330 330 329 329 330 331 332 330 330 334 334 332 333 332 330 328 323 320 318 319 319 319 316 313 315 312
348 347 346 346 345 343 342 341 340 338 336 335 334 334 334 332 329 331 330 325 326 327 327 329 330 328 325 327 334 335 335 330 326 323 320 319 317 317 316 317 313 314 314
348 348 348 347 345 342 343 341 340 337 336 334 333 333 333 330 321 323 326 323 323 323 322 322 327 328 324 319 320 321 326 333 329 326 323 321 321 320 318 316 314 315 313
344 348 347 347 344 342 342 340 338 336 330 326 330 332 333 331 318 318 322 325 322 320 320 319 318 320 325 326 321 322 320 320 325 331 325 325 324 326 325 319 319 317 315
342 346 346 343 343 343 338 337 336 334 328 323 322 328 331 324 315 314 319 326 324 323 321 321 320 318 318 322 322 322 320 319 321 321 323 325 327 328 327 327 324 316 318
338 338 335 340 342 340 336 337 335 332 330 326 325 325 323 320 311 312 320 324 322 320 321 321 321 320 309 312 319 319 318 314 309 310 311 312 311 311 314 324 322 319 319
334 332 333 336 338 337 338 337 336 330 328 319 316 318 313 316 306 308 318 321 319 318 318 319 309 316 308 309 319 317 315 316 316 316 316 315 316 313 313 318 314 313 315
331 331 332 334 336 337 337 337 333 327 324 317 314 315 317 311 314 307 308 318 317 316 315 313 314 305 303 302 306 318 317 320 315 318 315 314 314 314 314 316 317 314 314
326 326 328 329 331 334 335 329 325 322 319 319 313 314 315 315 305 306 306 309 311 314 310 308 306 300 299 300 306 301 303 308 316 317 317 313 310 311 313 316 319 316 315
324 325 324 322 324 328 326 323 321 319 316 317 315 315 315 313 313 303 303 305 307 310 310 306 301 298 300 304 302 302 305 312 312 311 310 310 310 312 315 316 319 319 318
322 321 322 322 321 319 322 323 321 322 316 316 315 314 311 310 312 311 309 309 307 309 307 308 305 306 304 308 311 311 312 311 309 308 308 310 311 310 309 310 308 309 308
320 319 320 318 315 309 306 311 317 315 318 318 316 316 310 309 308 304 306 309 310 305 309 311 311 313 315 314 313 313 312 311 309 309 308 308 307 307 307 307 307 306 305
318 317 317 315 314 312 309 305 300 300 299 300 303 309 311 302 296 295 295 295 296 298 310 312 312 310 309 309 308 309 310 309 308 308 308 307 306 306 305 306 307 305 304
317 316 315 313 314 313 314 314 310 303 296 295 295 297 298 297 294 294 294 294 294 298 311 312 311 310 309 309 309 308 307 309 312 308 307 307 307 307 306 305 305 305 304
320 309 316 316 319 319 320 320 319 317 315 312 297 300 293 293 293 293 293 296 306 306 312 311 310 311 311 311 311 311 311 311 310 309 308 307 307 306 305 304 305 305 304
319 318 319 318 317 314 316 317 317 316 314 312 310 302 298 292 292 292 293 309 309 310 311 311 313 313 313 313 313 312 312 310 308 308 308 307 307 306 305 305 305 298 301
319 313 313 314 312 310 309 309 309 308 308 308 309 309 309 303 306 307 307 308 309 310 310 311 312 313 314 313 312 312 311 310 309 308 308 308 308 307 306 305 305 304 304
318 316 313 314 313 311 311 309 310 310 309 308 308 307 300 307 306 305 306 307 308 309 310 311 311 312 312 313 311 311 310 309 309 309 308 308 308 307 307 307 306 306 306
318 317 316 314 315 315 314 314 313 313 312 311 311 307 294 307 308 308 308 309 311 311 310 310 310 311 311 311 311 310 307 308 309 307 304 306 307 307 307 307 307 307 306
321 317 319 318 318 314 317 316 316 316 315 315 314 312 305 307 308 307 308 310 310 311 308 307 309 307 304 305 305 305 305 305 305 304 303 302 306 308 307 307 307 307 306
319 317 319 318 318 315 314 314 315 307 314 314 311 310 310 310 310 306 305 304 306 306 306 306 305 303 301 300 299 299 297 296 300 300 300 301 302 301 302 303 303 304 304
309 312 312 312 310 311 312 312 313 313 312 309 310 312 311 310 308 302 300 301 304 303 302 300 300 298 297 296 295 293 285 283 290 285 296 295 295 295 294 294 296 296 298
310 311 311 312 313 313 314 315 311 310 310 306 306 308 307 305 301 302 303 304 302 301 300 299 298 296 295 294 291 284 283 282 287 283 292 294 293 293 292 292 292 292 292

GFSGL_sfc_thetae_042.txt.gz
Theta_e
345 351 351 349 348 347 345 345 346 345 345 345 343 343 343 343 343 343 344 342 340 340 342 342 342 346 345 348 352 352 350 344 331 324 326 325 325 324 325 327 328 328 325
344 350 351 349 347 345 344 345 346 343 344 344 343 343 342 342 342 341 340 340 338 336 337 340 341 342 344 344 345 342 347 347 335 321 321 320 320 322 323 322 322 322 322
348 349 350 348 347 346 345 344 345 343 342 342 341 340 339 340 339 339 339 339 339 336 336 337 336 339 336 336 338 337 337 339 336 325 319 321 320 320 318 318 317 317 318
344 349 349 349 348 346 346 345 343 344 342 341 341 339 338 338 337 336 336 337 337 337 338 337 336 336 336 338 337 339 339 333 329 324 320 319 320 320 320 317 315 316 314
344 347 350 351 349 349 346 345 344 343 342 341 340 340 337 335 334 335 331 334 334 334 335 334 333 328 324 326 336 338 339 334 327 323 320 319 317 318 318 317 316 315 315
345 346 349 350 349 348 346 344 344 343 342 340 339 338 336 331 322 323 329 330 329 329 329 330 332 332 325 322 324 323 327 335 334 329 325 323 323 321 321 322 318 319 318
346 348 350 350 348 348 347 343 341 342 340 338 338 339 336 333 319 320 325 329 328 328 328 327 326 326 329 331 324 324 322 322 326 332 328 328 327 328 329 325 324 323 322
346 347 351 348 348 347 346 344 343 341 338 335 336 338 336 329 316 317 322 332 330 330 329 328 326 322 321 326 326 322 318 320 324 322 325 325 327 329 329 327 328 328 325
344 346 348 349 347 345 341 344 343 339 338 335 336 336 334 330 313 314 322 330 329 329 328 328 328 322 311 313 323 321 318 314 310 313 313 312 311 312 315 320 324 318 320
343 344 342 346 345 342 343 345 341 340 336 334 332 333 322 331 308 310 319 327 324 323 327 326 312 318 310 310 325 322 320 320 320 320 320 316 318 316 316 320 315 312 313
340 340 339 341 341 343 344 344 338 336 335 332 328 326 329 326 324 307 310 321 322 321 320 321 320 305 303 304 306 321 319 321 316 321 319 318 319 317 315 317 319 313 312
335 337 337 337 338 342 339 337 332 330 330 329 328 326 325 327 308 307 307 311 314 316 313 314 309 301 300 302 309 303 304 308 320 320 319 316 313 312 314 316 320 318 317
332 330 331 332 335 337 338 327 325 325 328 322 322 324 321 325 323 304 304 307 310 313 313 308 302 300 301 304 303 304 303 316 315 314 312 312 313 314 317 318 318 321 322
330 329 329 328 327 327 327 326 324 326 323 320 323 324 323 321 322 322 321 314 307 311 307 306 308 307 305 310 310 312 314 313 312 311 312 313 314 312 311 311 310 310 309
326 326 326 323 320 314 310 315 322 320 324 323 323 321 322 322 319 309 310 316 315 310 311 311 312 316 317 316 315 315 314 315 312 312 311 310 310 310 310 311 310 309 307
325 326 326 326 319 315 314 309 301 301 299 302 304 314 317 302 296 296 296 296 298 300 311 315 316 316 316 313 313 311 312 311 311 311 311 310 309 309 308 309 310 308 307
324 324 325 322 322 317 316 314 307 303 297 296 296 297 299 298 295 295 295 295 296 298 314 316 315 314 312 313 313 313 311 311 316 312 311 311 310 310 309 308 308 308 307
324 312 324 323 324 323 323 321 320 320 320 317 299 303 294 293 294 294 295 296 308 305 316 316 314 312 312 314 315 315 315 315 315 313 312 311 310 309 308 308 308 307 307
324 323 323 323 325 323 326 326 326 325 323 321 315 305 298 293 293 293 294 313 315 315 315 314 314 313 314 314 316 317 316 314 311 311 312 311 311 310 309 309 308 302 303
326 316 321 325 320 320 320 319 317 316 315 314 314 314 315 308 311 312 312 313 314 313 313 313 313 314 315 316 315 315 314 313 313 312 312 312 312 311 309 309 309 308 308
325 321 316 316 314 313 313 312 312 312 313 314 314 312 304 312 311 311 311 311 312 312 312 313 313 313 314 314 314 314 313 312 312 313 312 312 311 309 311 311 309 309 308
323 318 317 316 314 314 314 314 315 315 315 314 314 309 297 311 313 311 312 312 313 314 315 315 313 313 314 314 315 314 312 312 312 313 312 311 311 310 309 309 309 309 309
322 319 316 317 316 312 315 316 316 316 316 316 316 314 308 311 314 314 314 314 316 315 316 314 313 316 315 315 315 313 311 312 311 311 310 309 310 310 310 308 307 306 305
323 320 317 318 318 316 317 318 318 311 317 317 318 318 316 314 314 315 314 312 310 311 312 314 313 312 311 310 310 309 306 303 307 307 305 305 305 303 303 301 299 299 300
322 321 320 318 317 316 316 314 316 315 317 318 318 318 318 317 317 317 315 312 306 309 310 311 310 308 307 305 305 300 286 283 292 284 299 300 298 298 297 297 297 297 297
321 320 315 313 316 316 313 313 314 316 318 317 315 312 312 314 310 306 307 306 311 310 310 309 308 306 305 303 299 286 283 283 289 283 293 297 297 297 296 295 296 296 296

GFSGL_sfc_thetae_045.txt.gz
Theta_e
352 353 352 350 350 348 346 347 347 347 347 346 345 346 345 345 345 346 346 343 341 341 344 344 345 350 352 351 355 353 350 350 328 324 326 326 325 325 325 328 330 329 325
350 352 352 350 348 346 345 346 346 345 346 346 345 345 344 344 344 343 341 342 338 338 339 341 342 341 343 345 343 346 348 349 334 320 320 320 320 322 324 324 324 324 324
347 349 349 348 348 347 345 346 346 344 344 343 343 342 342 342 341 342 342 340 338 337 338 339 338 341 339 340 340 339 339 339 335 325 318 320 319 320 318 319 319 320 321
344 347 348 348 348 347 349 347 345 344 343 342 343 341 340 340 339 339 339 339 339 338 337 336 334 335 337 340 339 342 338 330 327 322 319 319 319 320 320 317 316 318 317
347 347 348 351 351 351 349 347 346 345 343 342 342 340 339 337 334 335 337 337 336 336 335 333 331 329 327 328 337 339 340 330 323 320 319 319 317 318 319 322 319 321 320
343 346 350 351 351 350 348 346 346 344 343 343 341 340 337 330 324 326 331 332 332 332 332 333 334 331 326 323 325 325 332 338 333 326 324 323 326 326 325 323 323 320 317
346 347 351 350 350 349 349 347 345 344 344 340 340 339 337 331 321 322 328 332 332 331 331 331 329 329 332 331 325 324 323 324 329 335 329 329 328 329 330 327 327 326 324
346 349 350 351 350 350 349 348 346 344 341 340 340 342 338 328 318 318 323 334 333 333 332 330 326 326 321 327 321 318 319 320 324 322 325 323 325 326 329 329 329 328 327
341 346 347 351 351 349 347 348 348 344 341 338 339 339 336 331 315 316 320 334 332 331 331 328 328 323 314 313 324 320 317 314 312 313 312 312 313 314 317 320 326 315 318
339 346 348 350 352 350 347 349 350 345 341 336 338 339 328 333 313 312 316 330 329 328 330 327 313 318 308 308 327 325 322 322 322 321 320 316 319 318 318 325 316 312 314
341 345 345 341 342 347 348 350 347 344 342 339 335 336 334 331 326 310 311 327 324 325 325 323 316 306 305 306 308 323 321 322 318 322 321 319 319 319 317 319 321 315 312
338 341 340 341 344 345 346 349 346 340 335 336 333 331 332 331 317 309 309 312 320 321 319 319 312 304 302 304 311 305 306 308 318 319 319 316 313 313 315 317 321 320 317
336 336 334 335 336 341 344 339 334 332 331 331 330 330 328 330 327 306 306 309 312 318 319 311 304 301 301 305 306 308 306 316 315 315 312 312 313 315 319 321 321 326 326
333 332 331 332 333 334 336 331 328 327 327 328 329 325 327 328 327 325 322 318 309 314 308 309 309 310 307 312 311 312 315 313 313 312 312 314 314 314 312 312 311 311 310
330 330 329 329 326 318 314 315 326 326 321 328 329 327 327 326 324 312 316 323 320 314 313 312 312 315 317 318 315 315 315 315 313 313 312 312 311 311 311 312 312 311 308
329 329 328 328 320 316 314 311 302 301 300 303 303 315 318 304 299 298 297 298 300 302 312 312 315 318 317 313 313 312 313 311 313 313 313 311 310 311 309 311 311 310 308
327 328 328 324 324 319 319 315 311 307 298 296 297 298 304 299 296 296 296 297 298 300 312 318 318 316 314 313 313 314 312 312 318 314 313 313 311 311 309 310 310 309 308
328 314 328 327 326 324 321 322 325 320 313 314 301 303 294 294 295 295 296 296 308 304 314 318 318 316 313 313 314 314 314 314 314 314 314 312 312 310 309 309 309 308 307
327 328 326 326 326 325 327 325 322 321 323 321 317 305 299 294 294 295 296 313 316 315 317 318 317 315 314 315 316 316 316 314 311 311 312 313 312 311 310 310 309 304 306
327 320 321 327 327 326 326 327 327 327 326 323 319 318 314 307 311 312 312 315 318 317 317 315 315 315 316 316 316 315 314 313 315 314 313 313 312 312 310 310 310 308 308
327 325 322 326 328 326 325 324 323 321 319 316 316 316 307 315 314 314 315 316 315 315 315 315 314 315 316 317 316 315 314 313 313 312 312 313 312 310 310 310 308 309 309
327 324 324 321 320 317 316 315 314 314 314 315 316 311 300 312 315 315 315 314 315 316 316 316 315 315 314 315 317 315 313 313 313 313 313 312 312 311 310 309 309 309 308
324 322 321 318 319 313 314 316 316 316 316 317 316 313 311 313 316 315 315 316 316 316 317 317 315 315 316 317 318 315 313 313 313 313 312 311 311 310 309 307 306 305 303
325 323 321 314 316 313 314 315 317 311 316 317 316 315 313 314 316 317 317 317 318 318 318 316 314 314 315 315 315 313 312 308 311 311 309 308 308 305 304 302 300 299 299
326 323 322 318 315 314 315 315 316 317 318 319 317 317 318 319 317 317 319 317 316 315 313 313 314 315 315 314 311 304 286 283 296 284 300 304 302 301 299 299 299 298 298
325 325 322 318 317 316 317 317 315 316 316 315 317 320 319 320 320 316 317 316 312 311 313 314 314 313 312 311 308 288 284 283 290 284 292 297 298 299 299 298 297 297 297

GFSGL_sfc_thetae_048.txt.gz
Theta_e
353 352 354 352 352 352 352 350 349 350 345 346 346 345 345 347 348 347 344 341 340 341 342 341 342 344 345 346 346 346 343 337 323 322 325 324 323 323 325 326 327 325 321
349 346 347 352 350 350 350 348 350 351 350 348 346 346 346 345 346 344 340 339 337 334 336 338 338 340 340 341 342 342 342 340 325 317 320 319 319 320 321 322 322 323 320
350 346 350 349 349 350 350 349 349 349 348 346 346 344 343 343 343 343 341 339 337 334 334 334 335 339 337 340 340 336 334 332 327 320 317 319 318 319 317 319 319 321 321
345 348 348 350 350 349 351 350 349 349 347 346 346 344 344 342 340 341 340 340 337 334 332 331 330 330 333 340 339 334 330 326 324 319 318 318 319 319 319 317 315 318 317
343 346 349 352 352 351 350 350 349 349 346 347 345 345 343 334 327 331 339 338 337 335 333 329 328 328 328 327 334 334 328 324 321 318 318 318 317 318 318 320 319 317 319
345 349 352 352 349 350 351 348 349 347 347 348 345 342 334 327 324 326 333 335 336 335 334 333 332 330 325 324 325 325 332 328 324 322 321 320 320 323 323 322 321 319 317
347 349 350 352 350 349 350 348 345 346 347 346 342 339 333 329 324 326 326 336 334 334 331 329 329 325 329 326 324 324 322 324 328 330 326 326 324 325 326 324 323 323 321
347 347 346 347 347 344 349 347 346 346 345 344 343 341 335 325 321 320 323 338 336 335 331 328 328 325 318 322 318 316 315 317 321 320 318 316 315 317 321 322 326 325 325
346 344 340 344 345 345 346 346 347 345 344 342 342 340 335 328 318 318 318 338 335 332 329 325 326 324 312 312 320 317 315 311 310 312 312 313 313 314 317 318 320 320 318
341 341 339 340 340 341 344 347 347 344 341 339 340 340 331 332 314 313 316 327 332 328 328 323 311 313 309 308 328 323 317 315 316 315 315 314 316 315 321 319 315 310 311
343 339 336 338 336 340 339 342 344 344 341 339 338 336 337 333 323 313 312 332 328 327 326 321 314 307 307 307 308 320 319 319 320 322 324 322 322 320 318 320 319 314 310
342 339 338 337 337 339 341 339 339 338 338 336 335 334 334 333 319 309 311 314 324 327 322 321 311 304 303 305 311 307 309 309 317 320 321 316 315 314 316 318 318 319 317
340 339 336 337 337 335 337 344 337 336 333 332 330 330 330 331 325 307 307 310 313 323 323 313 305 301 302 303 308 308 307 315 316 318 315 315 315 316 316 320 321 322 321
335 334 333 333 332 332 333 335 333 330 329 327 328 328 328 329 326 321 318 317 310 316 310 310 310 311 311 312 311 312 317 315 314 315 315 316 316 316 316 313 313 312 311
331 330 330 329 328 322 314 312 322 323 323 326 326 327 327 327 326 318 319 323 320 317 315 313 312 313 315 315 316 319 318 315 317 316 316 314 314 313 313 313 313 313 310
329 329 329 328 324 318 313 311 303 301 299 300 303 316 313 305 298 299 299 301 302 303 314 311 310 312 314 316 316 316 314 313 316 316 316 314 312 312 310 312 312 310 309
329 332 331 327 323 321 316 315 312 307 299 297 297 299 305 300 297 296 297 298 299 304 314 313 314 315 319 316 316 316 314 316 317 317 314 314 313 313 307 312 311 311 309
328 317 327 330 327 324 322 319 317 316 316 313 302 302 295 295 295 296 297 300 306 304 312 313 316 320 319 317 317 316 315 316 316 316 315 314 313 312 311 310 310 310 308
330 327 328 327 329 324 324 323 323 322 322 317 308 302 297 295 295 296 296 311 314 313 312 312 315 317 319 319 321 320 317 316 314 313 314 315 314 312 311 311 310 306 306
331 324 321 326 325 325 325 325 325 323 322 320 316 315 309 304 307 308 308 311 313 317 316 316 318 320 319 321 321 320 317 315 316 314 314 315 314 314 310 309 309 307 306
329 329 324 325 325 325 325 324 327 326 324 323 321 320 307 312 314 315 316 315 316 318 318 318 316 317 320 321 319 317 315 315 314 314 313 315 312 311 313 311 309 308 307
330 326 326 323 325 323 324 323 324 322 323 322 318 311 301 315 316 315 316 317 318 318 320 321 318 316 315 315 315 316 315 313 316 315 315 313 313 312 311 309 308 308 306
328 325 325 323 321 316 318 316 315 317 315 314 315 314 313 313 313 315 316 316 316 318 321 320 319 317 316 318 320 318 315 315 315 315 313 313 312 310 309 307 305 303 302
328 325 324 322 319 315 315 312 313 311 312 315 314 313 313 312 312 315 316 318 317 318 321 319 318 317 315 318 317 315 307 304 311 311 312 310 309 306 306 303 301 299 298
327 326 324 323 319 315 316 312 314 318 315 316 317 317 317 313 311 313 320 318 319 319 317 316 318 318 318 318 305 296 286 284 291 286 302 305 304 304 300 299 298 299 299
327 326 325 324 320 316 316 313 313 316 314 313 313 314 316 315 316 315 317 316 315 315 316 313 313 316 317 315 298 286 284 283 289 284 290 295 296 298 299 299 300 297 297

GFSGL_sfc_thetae_051.txt.gz
Theta_e
340 342 345 344 341 341 339 338 337 337 337 339 339 338 336 335 337 335 333 333 331 333 334 332 332 335 335 339 338 336 332 326 320 321 323 323 322 323 324 324 322 319 321
340 343 345 341 339 339 337 337 337 335 337 338 337 335 334 334 335 332 330 332 332 331 332 332 334 336 333 335 335 330 329 325 323 317 319 318 318 320 321 319 319 319 316
341 340 340 339 338 338 337 337 336 336 335 335 334 332 332 332 332 333 332 330 327 325 324 324 325 328 332 331 328 326 324 323 323 319 316 318 318 319 317 318 316 317 318
340 339 340 339 339 339 338 337 337 337 335 333 333 333 332 328 328 331 332 328 325 323 323 322 322 323 325 330 326 322 323 320 320 318 317 317 318 318 317 315 312 316 314
337 340 340 340 341 340 339 338 337 337 335 334 332 330 324 322 324 327 329 328 325 323 322 321 322 327 328 329 326 320 319 318 318 316 315 316 316 316 313 314 311 311 312
334 337 344 343 342 339 340 338 337 335 335 334 332 324 320 322 322 325 327 326 326 325 322 322 323 324 324 324 324 328 322 318 315 314 312 313 312 314 316 314 314 311 309
336 342 343 341 341 340 341 338 336 334 334 331 328 323 319 317 321 320 328 324 324 320 319 322 319 320 316 314 317 319 321 324 324 321 316 316 319 318 318 314 318 317 314
334 336 339 338 339 341 340 336 338 336 333 331 330 324 319 317 319 320 321 325 324 322 319 319 315 311 312 310 306 304 304 309 312 313 310 308 307 308 312 312 317 317 316
338 334 336 337 337 337 337 337 337 336 334 332 332 325 319 314 316 315 320 325 323 319 317 318 316 309 312 314 307 303 300 300 309 312 310 311 312 313 313 309 307 307 309
333 335 335 334 333 333 334 331 334 337 333 333 332 329 322 318 312 312 314 318 320 319 314 309 312 307 308 311 310 305 302 303 304 305 306 308 310 310 315 307 306 302 305
336 333 331 332 329 332 334 335 334 335 333 332 331 331 327 320 313 312 310 322 322 319 316 312 303 307 305 305 309 315 311 310 313 309 309 308 309 310 309 307 307 303 303
333 331 329 332 335 334 334 333 334 335 332 331 330 329 330 324 311 309 310 314 318 317 314 310 305 303 302 303 303 305 306 307 305 306 310 309 310 309 309 307 308 309 306
331 329 328 329 331 331 330 332 334 334 333 330 328 327 327 323 315 307 308 311 313 314 313 309 304 300 300 301 305 305 305 306 307 306 303 303 304 303 304 307 307 310 309
331 330 328 325 325 324 327 330 332 332 331 329 326 326 326 325 314 309 310 310 311 309 309 304 303 303 306 308 305 304 305 303 304 302 302 303 304 305 305 301 301 301 301
328 328 327 327 324 319 311 309 314 318 319 329 328 328 326 324 319 312 310 312 309 308 305 302 300 301 305 306 305 305 308 302 305 302 303 303 303 303 301 301 303 301 299
327 326 326 326 322 315 314 310 303 301 300 301 304 318 312 304 306 304 304 304 304 303 305 302 300 301 303 306 306 306 302 307 304 304 302 301 301 299 298 300 302 299 299
323 324 325 324 322 317 312 314 313 307 299 297 297 302 303 299 297 298 298 299 301 304 305 304 302 303 305 307 309 305 302 304 303 305 303 301 302 303 299 301 302 300 299
321 318 319 321 324 322 319 314 314 315 314 313 303 301 295 295 295 296 297 303 303 301 304 305 306 308 309 310 304 305 304 303 302 305 303 303 302 301 300 301 300 300 297
323 322 320 321 323 322 321 320 318 316 316 315 304 301 297 296 296 296 297 306 304 303 304 303 305 307 311 309 309 307 306 305 306 305 302 304 303 302 301 303 301 301 301
325 323 320 320 319 321 323 321 320 320 319 316 308 306 300 300 302 302 300 301 304 308 308 308 307 309 312 313 310 306 304 303 301 303 303 304 307 305 303 300 300 299 298
324 322 321 321 322 319 322 323 323 322 319 319 314 311 302 304 305 306 305 306 307 308 309 310 309 313 312 313 309 307 306 306 306 305 305 308 308 303 302 301 301 300 299
324 323 321 320 322 318 321 323 323 322 323 321 320 316 298 308 309 311 312 312 312 313 314 313 314 313 312 311 310 310 308 307 308 310 308 306 303 303 302 301 300 299 297
324 323 321 319 321 316 313 312 311 312 314 321 322 313 307 309 312 312 313 314 313 315 314 311 309 309 309 311 311 310 308 307 307 306 304 305 302 301 300 298 298 297 295
323 322 320 318 317 314 312 311 312 308 313 313 311 311 311 311 308 306 308 311 313 313 313 311 309 309 309 310 310 306 306 305 303 303 306 303 300 298 297 295 293 292 291
323 321 320 318 317 315 311 311 313 313 313 314 314 314 313 309 310 311 313 312 313 311 311 310 309 310 310 306 296 291 287 286 292 292 295 295 295 294 293 291 291 290 291
322 321 321 321 317 315 311 311 311 312 311 311 312 311 312 314 313 312 311 310 310 310 309 309 309 310 305 298 293 287 285 284 285 285 288 288 289 289 289 290 291 290 289

GFSGL_sfc_thetae_054.txt.gz
Theta_e
339 340 342 341 338 338 335 334 334 334 334 334 336 334 333 333 332 329 328 329 329 329 329 330 330 332 333 334 334 332 331 325 321 320 322 323 323 323 323 321 318 316 319
338 340 342 339 337 335 333 334 332 332 333 333 333 331 333 332 329 328 328 328 325 325 325 326 327 334 330 330 328 325 323 322 323 318 319 319 319 320 320 319 317 317 315
338 339 339 335 336 334 334 334 334 332 332 332 331 330 330 331 329 328 326 324 322 322 322 322 324 328 325 324 324 321 323 324 323 319 316 318 318 318 317 316 315 316 317
338 337 337 335 335 335 334 333 334 333 331 330 329 329 327 328 330 328 323 321 320 320 321 321 322 325 324 321 320 319 320 321 320 318 317 317 317 318 317 315 313 312 311
336 336 337 336 336 336 334 335 334 332 331 330 329 323 321 323 328 327 323 320 319 318 319 321 322 328 330 326 320 316 316 318 318 317 316 316 315 314 315 315 310 308 310
335 336 338 338 337 336 336 335 333 332 331 329 324 320 318 323 321 325 326 323 321 318 318 318 319 320 323 326 325 323 319 316 313 314 310 310 310 311 313 312 309 308 308
332 334 338 339 337 336 339 336 335 331 331 328 320 318 317 319 319 322 325 322 320 320 319 315 315 316 315 315 320 322 323 323 321 315 312 312 312 315 314 311 312 315 311
333 335 337 336 336 336 337 334 334 333 330 325 321 318 316 317 317 318 323 320 317 317 316 313 309 309 309 308 305 306 308 312 316 320 317 314 311 311 317 316 315 313 313
333 333 334 336 334 335 332 329 330 332 333 330 324 319 316 314 313 316 321 320 317 315 315 313 310 308 312 309 301 298 297 299 310 311 309 310 311 312 311 307 304 309 307
331 332 332 332 332 331 331 330 328 329 332 333 330 323 316 314 311 311 318 321 315 313 310 310 313 308 310 308 301 301 301 300 302 303 304 306 309 310 312 305 304 305 304
331 330 329 327 326 328 331 329 326 329 333 332 330 328 322 315 312 309 310 320 318 314 311 306 303 307 304 306 306 304 305 304 308 305 305 305 306 307 306 304 302 304 301
329 327 325 327 331 331 331 329 327 328 329 330 329 328 327 320 311 308 310 314 318 317 313 309 304 303 301 303 302 306 305 307 306 306 308 309 308 307 307 306 304 304 302
328 326 326 325 326 327 326 327 328 330 331 330 330 328 327 324 314 307 308 311 314 316 315 311 304 300 300 301 304 304 304 304 304 303 304 304 306 308 303 304 302 305 305
331 329 327 324 323 321 321 323 326 331 330 331 329 327 327 323 317 312 312 312 312 314 313 308 304 302 302 304 304 302 303 301 302 302 301 300 301 301 301 298 298 299 299
327 327 327 326 324 319 314 311 313 318 313 325 330 329 326 324 321 311 310 311 309 307 302 300 298 299 300 302 303 302 303 300 302 301 300 300 299 300 299 298 299 298 296
321 321 322 325 323 318 316 314 305 302 300 298 302 317 318 310 307 303 300 300 301 300 301 299 298 299 301 302 303 303 304 305 301 301 299 299 300 297 296 297 299 296 297
318 318 319 320 324 318 315 314 314 309 300 298 297 299 303 306 300 302 299 299 298 300 304 301 299 299 300 302 304 304 303 301 302 302 300 299 300 299 297 297 299 297 298
318 314 317 316 318 318 319 317 315 314 314 315 302 300 295 295 295 296 297 300 304 304 307 304 303 301 301 302 303 305 304 301 300 302 301 301 300 299 298 298 298 297 296
318 318 317 317 317 317 318 319 318 317 315 314 307 301 297 295 295 296 297 310 313 311 308 307 307 307 306 307 307 306 306 304 300 301 302 301 300 299 298 298 299 299 298
321 319 318 318 317 316 317 317 319 316 315 313 309 310 302 300 304 304 304 307 307 306 305 305 307 306 305 306 306 306 306 305 302 302 301 300 301 300 300 300 298 298 297
322 321 319 319 317 317 316 317 318 318 319 317 316 312 300 305 305 304 305 305 307 308 308 308 307 305 307 307 307 308 307 304 303 304 302 300 302 303 303 299 298 298 298
322 321 319 318 318 317 316 316 317 319 320 318 317 312 298 306 308 306 305 306 307 306 308 308 308 308 310 310 311 308 306 305 304 303 303 302 304 302 300 300 299 298 297
319 320 320 318 318 315 315 312 308 307 309 317 319 315 305 308 307 307 308 309 309 309 310 311 312 312 312 312 313 311 308 307 307 307 305 304 303 303 303 301 298 296 295
316 319 319 318 316 315 313 308 307 306 310 310 321 320 308 308 310 309 308 308 310 310 313 311 310 309 308 310 311 309 307 307 306 306 306 305 302 300 301 299 297 296 291
314 317 317 316 315 313 312 312 308 309 311 310 310 310 309 310 308 308 309 309 308 308 308 308 307 309 309 308 300 296 288 287 296 294 301 302 300 298 297 293 293 291 290
312 316 315 315 315 313 313 311 311 310 310 311 309 311 309 310 311 310 308 309 309 309 310 310 310 306 301 297 294 288 286 285 289 289 292 291 292 290 289 289 290 289 289

GFSGL_sfc_thetae_057.txt.gz
Theta_e
337 338 339 336 337 335 333 333 332 330 331 332 332 332 331 330 329 327 326 327 327 327 327 328 329 331 331 332 332 335 331 328 321 320 323 323 323 323 319 319 318 316 319
337 339 339 337 337 334 332 332 332 331 331 332 331 331 331 329 327 326 326 325 324 323 323 326 328 331 326 326 327 327 326 325 324 319 319 319 319 320 319 317 317 316 315
337 338 337 334 335 332 332 332 331 331 331 331 330 330 328 327 326 324 323 321 321 321 321 324 325 325 322 321 320 322 323 325 324 320 316 318 318 318 317 317 316 316 316
337 336 336 333 334 332 332 332 332 331 330 328 328 328 328 328 326 322 320 319 319 319 320 322 323 322 321 319 319 323 323 322 321 319 317 316 317 318 318 315 313 314 312
335 335 335 334 334 333 333 332 333 330 330 328 327 323 325 327 326 320 318 317 317 317 318 321 323 327 326 323 319 317 321 320 319 318 316 316 315 315 315 315 312 311 308
334 334 336 335 334 334 333 334 333 331 329 328 323 320 320 326 323 323 321 318 317 316 315 316 317 324 325 324 323 322 318 317 318 318 315 315 315 317 315 310 307 307 306
333 334 335 336 333 334 335 334 334 331 331 326 321 318 318 320 320 321 325 320 318 316 314 312 314 317 320 319 322 322 322 322 319 315 312 311 310 312 312 309 309 309 310
330 331 334 335 334 334 335 334 334 333 332 328 323 318 317 318 317 317 321 319 317 318 314 310 310 310 311 313 312 311 311 312 316 317 315 315 315 315 314 314 313 311 310
330 330 333 334 332 332 330 329 331 331 332 329 326 321 317 316 313 315 318 316 315 315 313 309 308 307 310 309 305 301 299 300 310 311 311 310 311 312 313 309 309 310 306
330 331 331 330 330 330 327 325 327 330 330 332 328 325 319 318 310 312 317 316 312 312 310 310 313 307 309 305 298 297 297 298 301 302 304 306 307 308 312 303 303 302 303
330 328 328 327 326 326 326 325 324 326 331 328 329 327 324 318 315 309 313 318 316 311 309 306 305 308 306 303 302 304 303 302 306 303 303 303 304 305 303 301 301 306 302
326 324 324 324 326 327 326 326 324 324 323 329 327 327 326 323 311 307 309 314 316 314 312 309 305 304 302 303 304 304 304 307 306 306 306 304 304 304 305 304 302 301 300
325 327 327 325 324 323 323 327 324 322 324 328 328 328 327 327 320 308 307 309 312 316 314 311 305 300 299 301 302 304 305 303 303 302 303 305 307 307 303 303 302 303 303
329 326 326 325 324 323 321 321 322 327 327 328 329 328 328 327 321 315 312 314 314 317 315 311 305 302 302 303 303 302 301 301 303 301 301 302 300 301 301 299 297 297 297
326 326 327 326 324 321 315 315 315 316 314 317 325 329 329 326 324 317 314 316 315 314 308 301 299 298 298 300 302 299 301 300 300 300 300 300 300 300 299 297 297 297 296
319 319 318 318 317 316 315 315 306 305 301 298 297 301 322 311 305 306 303 305 301 300 303 302 300 299 299 299 302 302 301 304 300 300 299 299 299 298 297 296 297 296 296
317 317 316 316 317 316 313 312 315 310 301 299 298 298 298 303 301 300 301 302 298 299 309 303 303 301 301 300 302 302 302 302 301 300 298 298 299 296 296 296 297 296 296
316 313 315 314 314 316 315 314 313 315 314 316 300 298 298 296 296 296 297 300 303 301 309 307 305 304 302 301 302 303 303 300 300 300 299 298 299 299 297 297 297 296 296
317 316 315 315 314 314 314 314 314 314 316 316 313 303 297 294 295 295 297 314 314 311 310 310 309 306 303 302 303 303 304 304 301 299 300 299 299 298 297 297 297 298 297
317 316 316 316 315 314 314 314 314 314 313 312 311 309 302 301 305 305 304 309 311 314 315 314 312 309 308 308 305 305 305 304 304 304 303 302 300 299 298 297 298 297 296
320 319 318 319 317 316 315 314 314 314 315 315 314 316 303 308 310 307 308 308 309 311 310 309 311 311 309 308 307 305 305 306 305 305 303 302 300 299 299 299 299 299 296
314 316 318 317 317 316 316 315 314 314 315 316 318 312 298 306 309 309 308 310 309 309 311 311 310 309 310 309 309 309 307 306 307 305 304 303 301 301 302 301 298 298 297
311 313 315 316 316 315 316 314 313 311 308 308 311 313 302 307 307 310 309 308 307 306 307 306 307 308 309 311 311 311 309 308 307 306 305 305 303 303 302 300 300 299 299
310 311 313 314 314 314 314 313 312 306 307 308 307 313 311 310 310 309 308 308 310 311 310 309 310 311 312 311 312 312 312 310 310 309 308 307 306 302 304 302 301 299 299
307 309 311 312 313 316 314 310 309 310 307 308 308 307 307 307 308 308 311 308 308 307 307 308 308 307 309 309 309 308 300 292 305 300 305 304 303 302 302 300 298 296 295
313 312 310 312 312 312 310 309 307 307 307 306 308 309 309 309 307 308 307 308 309 309 310 310 304 300 298 297 296 289 286 286 292 291 300 300 298 296 295 294 294 291 293

GFSGL_sfc_thetae_060.txt.gz
Theta_e
339 339 340 338 336 337 337 337 336 336 335 336 336 337 334 334 333 332 332 332 332 332 333 334 335 337 339 339 338 338 336 330 322 322 323 325 324 320 319 321 323 325 326
339 339 339 337 337 336 336 336 335 335 335 336 336 335 334 332 331 331 330 329 329 329 330 333 333 334 333 336 336 333 330 329 325 319 321 320 320 320 319 318 319 321 322
339 339 339 337 337 335 335 335 335 334 334 335 334 334 332 331 330 328 327 327 327 326 328 330 330 330 329 329 329 328 328 328 326 322 317 319 319 320 318 318 317 319 321
338 338 337 336 337 335 335 335 335 334 334 333 333 334 332 331 329 325 325 325 325 325 327 328 328 328 328 326 327 328 327 325 324 321 318 318 318 319 319 317 314 316 315
337 337 337 336 337 336 335 335 335 334 333 332 331 330 332 331 325 323 324 323 324 323 325 329 330 329 326 325 326 326 325 323 322 320 318 317 316 316 316 316 315 315 314
337 336 338 337 337 336 335 335 335 333 331 331 329 328 328 331 322 321 322 322 322 322 322 323 325 326 326 324 323 324 326 323 321 320 318 318 317 318 317 316 314 314 313
336 337 337 338 336 336 336 335 334 332 331 330 327 325 325 327 320 320 322 322 322 321 320 321 323 323 324 324 323 323 323 322 324 325 321 320 319 320 318 315 317 318 319
334 335 337 337 337 336 335 334 335 335 333 330 326 323 323 324 318 317 322 324 323 323 320 318 321 321 322 322 322 321 320 322 324 323 324 323 324 323 323 322 321 321 320
333 333 335 337 336 335 335 335 335 335 334 329 328 324 321 321 314 314 320 323 322 323 318 315 318 318 312 313 319 314 313 313 313 314 315 314 315 316 320 322 319 320 318
333 333 335 335 334 332 331 330 331 332 331 332 326 324 321 322 312 310 317 321 320 318 317 315 313 314 308 307 313 310 310 309 310 312 312 311 313 314 314 319 320 319 316
333 332 332 332 331 332 330 329 328 329 331 331 328 326 325 322 321 309 309 320 319 316 316 315 314 309 305 301 303 308 308 308 309 311 311 311 312 311 310 310 313 315 313
329 328 328 327 328 330 330 330 328 327 329 329 330 327 326 324 314 310 308 310 316 317 316 316 314 305 302 301 304 305 303 308 310 310 311 311 311 311 311 311 311 312 311
325 327 328 329 328 327 329 330 328 326 325 327 326 326 327 326 324 310 308 308 311 318 320 315 308 301 300 303 304 304 305 312 312 311 311 312 313 314 313 313 312 312 312
326 328 329 328 327 326 324 324 324 324 326 327 329 328 328 329 326 322 315 315 312 316 317 316 310 306 304 307 306 306 312 311 311 312 312 314 312 312 312 311 309 309 310
329 328 327 326 326 324 321 321 320 321 319 322 321 323 327 328 328 318 316 317 318 318 316 310 306 305 304 305 307 307 307 308 307 308 308 308 309 309 310 306 306 305 305
324 324 323 323 323 321 318 319 309 307 302 299 297 302 316 310 304 302 302 304 306 306 312 309 309 306 304 303 304 306 306 308 307 307 307 307 307 307 307 304 305 305 305
322 322 321 319 322 320 319 318 318 315 300 298 296 296 295 298 297 298 297 300 301 303 315 312 313 309 308 305 304 306 306 307 309 307 307 307 307 307 304 304 305 305 304
321 311 319 320 320 320 320 320 319 318 317 319 302 299 298 296 296 296 295 300 304 302 312 314 312 312 308 305 304 306 308 308 308 307 306 306 306 305 303 303 304 305 305
321 321 320 320 319 317 319 319 319 319 318 319 320 306 300 294 294 294 295 311 311 311 310 311 314 311 308 306 308 308 308 309 308 307 308 307 306 306 305 305 305 302 303
323 317 317 321 320 320 320 319 319 319 319 319 319 319 315 305 311 310 305 308 314 317 315 313 314 312 311 309 307 310 308 309 310 308 309 308 308 307 306 306 305 305 305
319 321 318 322 321 322 321 320 320 319 319 319 320 319 306 316 317 314 312 310 313 315 316 316 316 315 314 312 310 309 308 308 309 310 311 310 308 307 307 306 306 306 306
313 315 318 319 320 321 321 321 321 320 321 320 321 321 299 311 316 316 316 316 316 315 315 314 313 313 315 314 313 312 311 310 311 309 311 309 307 307 308 306 306 305 305
311 312 313 315 317 315 319 320 320 320 319 319 315 313 314 313 313 314 314 316 315 314 314 314 313 313 314 315 315 315 314 314 315 311 309 307 306 306 306 305 305 305 303
311 311 311 313 316 316 318 319 318 309 312 312 312 313 314 316 315 315 315 314 314 313 314 313 312 311 312 313 314 315 314 315 316 313 310 307 306 304 306 305 305 305 304
311 313 314 312 312 315 316 314 313 312 311 311 311 312 311 311 311 311 312 312 311 311 312 310 307 309 312 313 313 313 305 290 303 303 309 309 308 308 308 306 307 304 302
312 313 312 311 311 311 311 309 310 309 308 310 311 311 312 312 312 311 313 314 313 312 312 313 311 308 302 300 297 290 286 286 295 292 307 306 303 302 301 300 299 298 298

GFSGL_sfc_thetae_063.txt.gz
Theta_e
353 352 351 349 349 347 346 346 347 346 346 345 345 346 344 343 343 344 344 342 341 342 343 342 343 345 345 347 347 349 339 334 325 324 326 326 324 326 326 327 332 333 329
353 351 350 349 348 346 346 346 345 345 345 345 345 345 343 342 341 340 339 340 340 339 340 342 342 344 340 345 343 342 338 332 326 320 322 322 321 326 325 323 324 329 328
351 349 348 347 346 346 346 345 345 345 344 344 344 344 342 340 339 339 339 338 338 338 340 341 341 343 338 340 343 338 332 330 328 322 320 321 320 321 321 321 322 323 323
350 348 348 346 346 346 346 346 345 344 343 344 344 344 342 339 338 334 334 337 338 339 340 339 339 341 340 337 339 337 335 330 327 323 319 319 319 320 321 318 317 320 317
349 347 347 348 348 347 345 345 344 344 343 342 340 343 341 340 335 332 335 335 337 338 338 338 338 334 328 335 336 336 335 329 325 321 318 318 318 316 318 321 318 315 318
348 347 348 347 347 347 346 345 344 342 341 339 334 337 340 337 320 322 331 334 334 336 336 335 335 331 328 325 327 328 332 330 326 323 321 319 318 320 320 317 316 315 317
347 347 347 348 346 347 346 345 344 342 341 338 336 331 333 338 319 319 323 331 331 332 335 336 332 330 332 333 325 324 324 324 328 332 328 327 324 325 324 318 320 322 324
346 346 347 347 347 347 346 345 345 344 342 342 331 329 327 330 318 316 321 332 332 331 330 331 335 332 331 332 333 332 331 331 330 329 332 330 330 330 327 327 324 326 329
345 345 346 347 346 346 343 340 341 342 340 338 335 327 323 325 315 314 322 333 331 332 330 326 330 332 317 318 331 330 330 329 315 315 317 317 319 321 327 329 326 324 323
347 346 346 346 346 341 340 337 339 338 339 335 332 336 323 324 313 310 318 333 331 330 331 327 314 324 310 311 331 330 329 328 327 326 324 319 323 322 318 331 328 323 323
345 344 345 345 345 345 343 341 340 340 338 338 335 334 325 323 322 311 309 331 329 328 327 325 324 309 305 304 310 327 326 325 317 324 320 319 321 325 327 326 327 326 322
343 342 341 341 340 340 341 338 337 338 336 334 334 332 331 329 316 309 309 311 320 325 324 324 325 306 302 300 304 306 303 311 316 315 314 314 315 315 316 317 321 322 323
338 335 333 334 334 334 334 333 332 335 334 333 329 332 333 333 332 309 306 309 313 320 326 323 313 302 300 303 302 304 303 312 314 314 315 315 317 318 320 319 319 321 320
333 332 335 336 336 337 336 335 335 332 331 332 330 329 331 332 331 332 320 314 312 318 321 324 320 314 309 314 314 309 316 318 317 316 316 318 319 319 317 317 315 316 314
333 334 335 334 334 334 333 332 331 332 326 329 329 328 326 329 330 317 320 325 323 319 320 325 321 320 318 316 316 317 319 320 318 319 319 319 319 319 319 320 316 314 311
334 333 332 332 332 331 330 330 310 310 303 300 299 307 323 311 302 297 299 300 302 305 318 319 318 319 318 316 313 315 315 313 315 318 318 318 316 316 315 317 315 311 310
331 331 329 326 330 329 329 329 327 319 302 299 297 297 295 300 295 295 295 295 296 303 317 319 317 321 325 318 316 312 311 312 315 313 314 314 315 315 314 315 314 312 310
330 314 330 329 329 329 329 330 329 327 326 327 303 303 297 295 295 295 295 299 309 304 315 317 317 319 322 317 320 313 310 310 309 312 313 314 315 315 314 313 312 312 311
330 330 330 330 330 326 330 329 328 327 327 327 328 309 303 296 296 294 294 320 318 316 313 314 316 316 317 320 317 315 310 308 309 312 313 313 314 313 313 312 312 305 308
333 321 321 332 331 330 330 329 329 328 327 327 326 326 329 318 324 325 321 318 318 320 321 317 317 316 314 311 309 309 308 308 309 310 311 313 315 314 312 312 312 311 311
326 328 317 328 329 330 330 330 330 330 328 327 327 324 301 321 320 321 322 323 322 322 323 322 321 320 320 317 315 312 310 309 309 309 311 312 313 314 315 313 313 313 312
319 321 322 322 324 325 326 327 329 328 328 328 328 325 299 320 320 321 322 323 324 325 326 325 324 323 322 323 322 319 318 318 318 312 309 310 311 314 312 312 311 312 311
317 316 317 318 319 317 323 327 327 327 328 326 323 320 319 320 320 321 320 322 322 323 323 322 320 319 320 321 322 322 320 321 322 321 313 311 313 314 309 308 309 310 310
316 318 318 317 317 320 323 323 322 311 317 317 318 318 318 318 318 318 318 318 319 319 318 317 316 315 317 317 319 320 320 318 320 320 320 316 312 306 308 308 308 307 307
315 314 314 314 315 317 318 318 317 316 317 317 317 317 318 318 317 317 318 318 318 317 313 313 312 311 308 306 305 302 293 286 296 297 313 314 312 311 309 307 306 306 306
313 313 313 314 314 314 314 313 313 312 312 312 312 313 312 312 313 312 313 313 314 314 314 315 314 311 309 305 297 289 287 285 292 287 299 309 309 309 308 306 307 306 306

GFSGL_sfc_thetae_066.txt.gz
Theta_e
359 359 357 355 354 353 351 350 350 350 348 349 349 349 348 348 350 349 347 346 346 346 347 346 348 351 348 352 355 354 349 342 326 325 327 328 328 330 333 334 334 336 331
359 359 356 356 354 352 351 351 351 349 349 348 347 347 347 346 347 344 343 344 341 341 342 346 346 346 349 351 352 350 351 344 329 324 324 324 324 328 330 331 333 333 332
360 358 355 353 352 352 351 351 349 348 347 347 347 346 346 344 344 343 343 343 342 343 342 342 342 344 345 347 349 346 344 340 331 323 322 322 321 327 327 328 328 330 327
357 355 352 352 351 351 350 350 349 349 348 347 347 346 346 344 343 342 338 340 343 343 343 342 342 341 342 341 346 342 342 330 329 324 322 321 320 322 325 323 324 325 320
357 352 352 352 351 352 350 350 349 349 348 349 347 346 345 343 341 340 339 340 340 341 342 342 342 336 330 336 340 342 339 334 329 326 322 320 319 318 319 323 321 323 324
356 351 353 353 351 351 350 349 350 349 348 348 346 344 341 339 322 326 333 338 340 339 340 341 341 333 330 326 329 329 337 337 332 325 322 319 320 320 324 324 325 319 313
355 352 352 353 350 351 351 351 350 350 350 348 346 344 339 338 320 321 325 337 336 338 340 340 336 333 335 338 326 326 326 326 330 331 326 325 322 325 322 321 320 317 321
353 350 352 352 350 351 352 351 351 349 348 347 346 344 332 333 318 317 321 337 336 336 337 338 340 337 336 337 337 335 334 334 334 334 337 335 335 330 327 328 328 323 330
351 350 350 351 350 350 350 351 351 346 347 347 347 343 331 328 315 314 319 336 335 336 335 334 335 336 321 321 335 335 335 335 319 318 320 322 323 324 329 328 326 324 324
351 350 352 352 350 350 351 350 346 344 344 342 342 342 331 329 311 311 317 334 335 333 337 334 317 325 314 314 334 333 332 333 332 332 331 325 326 328 323 335 332 327 326
352 351 351 351 352 350 349 348 346 345 344 342 340 341 339 334 327 309 310 331 333 332 331 331 331 311 308 307 309 334 330 333 326 333 331 331 332 331 331 333 336 330 326
351 349 348 347 348 345 347 344 342 342 339 340 338 336 338 337 320 310 308 310 322 331 332 333 330 306 303 303 308 308 307 316 327 325 323 321 321 323 327 330 333 332 330
343 339 342 342 344 343 343 341 337 341 337 336 334 335 336 338 337 311 307 308 311 323 329 325 312 303 302 303 302 305 303 315 320 318 318 318 319 319 323 323 324 326 326
336 334 336 337 339 340 341 340 337 337 337 334 336 336 336 337 335 335 327 321 313 320 322 328 323 320 314 318 314 309 315 321 320 320 320 321 322 320 319 319 317 317 315
336 334 336 338 336 339 340 337 337 340 330 335 334 334 333 331 328 310 315 333 333 327 324 331 330 328 326 321 323 325 322 321 320 322 321 321 321 320 320 320 319 318 315
335 336 336 336 336 334 333 332 313 308 305 302 301 311 329 311 301 298 297 297 300 302 318 322 325 328 326 328 328 326 326 322 323 324 324 323 322 321 321 322 322 319 315
340 340 333 329 331 330 328 328 327 319 304 301 299 299 298 298 297 296 294 295 297 301 319 320 322 321 321 322 324 324 322 321 318 317 319 320 322 321 320 319 319 320 317
332 317 330 330 328 329 329 329 329 327 327 329 305 306 298 296 295 294 294 298 323 311 322 322 323 324 322 321 323 320 317 318 318 314 311 313 313 314 314 316 316 318 317
330 327 331 329 330 328 331 330 329 328 328 328 329 308 305 297 297 295 295 320 327 329 325 323 323 321 321 321 319 319 315 315 312 311 310 311 313 312 313 315 315 309 311
332 321 323 335 329 330 328 327 327 327 328 328 328 327 326 321 323 321 324 328 326 326 327 324 324 323 323 322 319 315 312 311 311 312 310 311 311 314 313 313 313 313 314
327 330 319 328 328 327 327 326 327 327 327 328 331 325 302 323 324 325 324 325 326 328 328 328 326 328 327 324 322 318 317 318 315 312 312 314 313 313 313 312 315 314 313
324 324 324 324 325 325 326 326 326 327 327 327 331 328 303 322 325 326 325 325 326 326 327 326 326 324 324 324 324 323 322 321 321 320 320 318 315 314 312 312 312 311 312
321 321 321 322 323 320 324 324 326 326 328 328 324 323 322 322 322 323 323 323 323 322 322 321 321 320 321 321 321 321 319 318 320 321 321 318 318 315 311 312 312 310 310
318 319 319 320 322 322 323 325 326 314 322 323 323 320 320 320 319 320 321 321 321 320 321 320 320 318 317 313 311 308 305 308 312 317 316 317 318 314 313 312 311 310 311
316 316 316 316 317 318 320 318 318 318 316 317 317 317 315 316 318 317 318 318 318 316 317 317 315 315 314 307 305 304 293 286 298 292 308 309 311 312 312 311 309 308 308
315 315 315 315 315 314 314 314 314 315 315 313 312 313 315 316 315 315 316 316 314 315 315 315 314 313 313 314 311 294 287 286 296 288 307 312 311 308 304 301 300 302 301

GFSGL_sfc_thetae_069.txt.gz
Theta_e
358 359 358 354 355 354 353 351 351 351 350 349 348 352 351 349 350 349 349 348 346 347 349 348 349 351 350 355 357 347 350 350 336 328 330 332 332 333 336 338 335 335 331
359 358 357 356 356 354 353 350 352 350 350 349 348 346 349 348 346 346 344 343 343 342 343 345 346 347 349 353 354 349 350 352 336 326 326 325 327 333 335 335 335 334 332
359 358 353 354 354 355 352 351 351 350 349 348 347 347 349 349 343 344 344 343 343 343 343 344 344 345 346 349 350 350 349 348 337 328 323 324 323 329 330 334 335 335 331
357 355 352 353 354 353 352 351 350 350 349 349 348 348 346 345 344 343 340 340 343 343 343 343 343 343 345 346 347 348 347 340 337 326 322 321 321 324 327 326 326 328 324
355 355 352 354 354 353 351 350 350 349 349 350 348 348 347 344 340 343 340 340 342 342 342 343 344 336 333 336 342 346 342 337 331 328 322 321 319 319 321 328 327 327 328
355 354 353 354 355 352 352 350 350 353 351 351 346 346 345 345 324 329 331 340 340 341 341 341 342 334 331 329 332 330 340 338 332 328 325 321 322 322 327 324 325 323 319
357 355 353 355 353 355 353 350 351 352 353 352 350 347 345 344 321 321 326 331 339 339 340 340 338 335 336 338 328 328 329 329 334 336 330 326 324 327 329 322 324 327 325
358 354 354 354 352 353 353 352 352 353 350 350 349 347 346 342 320 317 321 328 338 338 337 338 340 339 338 337 339 337 336 337 336 334 334 333 334 332 331 331 326 329 329
356 354 353 353 352 352 352 355 354 351 349 349 349 346 345 343 317 315 318 328 334 339 337 337 336 337 324 324 337 337 336 335 322 321 323 324 327 325 330 326 324 323 321
355 353 353 353 352 352 353 354 354 350 348 346 346 344 334 341 314 313 316 327 332 337 340 339 321 323 318 318 335 336 333 335 333 332 333 328 329 329 324 336 331 324 325
355 354 354 354 354 353 356 354 350 349 347 347 343 344 343 340 334 310 310 324 330 331 333 335 334 314 312 312 311 335 331 330 330 333 333 333 334 335 333 334 339 336 331
356 354 353 353 350 351 353 352 349 347 345 342 342 341 340 344 322 311 309 310 322 330 333 334 328 308 307 307 312 313 310 316 331 329 330 329 329 330 331 334 338 337 337
356 354 353 352 351 350 348 345 341 342 340 340 337 337 338 339 340 312 308 308 311 324 329 318 313 304 304 306 305 306 305 320 322 324 324 324 324 325 336 335 336 333 331
340 339 342 344 344 344 344 342 340 339 339 337 336 336 341 343 342 340 333 330 316 322 324 329 325 319 316 319 317 310 314 318 321 323 323 324 327 325 321 322 319 320 318
342 338 340 341 341 340 342 340 340 339 333 336 336 336 333 332 330 313 314 327 326 323 323 334 331 331 329 327 326 324 319 319 320 324 324 324 323 325 321 323 321 319 316
337 338 337 338 339 340 339 335 312 312 308 305 302 312 326 308 301 299 297 297 297 299 319 322 323 326 328 330 328 328 328 324 325 325 325 325 320 320 319 321 323 320 318
340 343 339 335 338 334 332 331 330 318 304 301 302 302 302 300 297 296 295 297 297 302 321 324 323 324 323 324 324 325 324 327 327 321 321 323 321 320 318 317 318 319 320
340 320 337 332 331 329 329 330 326 329 328 328 305 307 298 298 299 298 296 299 322 312 327 326 325 325 326 326 325 326 324 321 318 318 318 319 318 316 314 313 313 313 314
326 327 329 330 328 326 330 330 327 327 326 326 331 308 305 297 297 296 295 323 325 325 330 330 328 326 325 325 324 323 321 319 316 315 313 314 313 312 311 313 314 308 311
322 320 320 322 325 329 327 326 325 326 329 331 327 324 325 320 324 325 324 328 328 326 325 329 329 329 325 325 323 323 320 318 317 317 315 313 313 313 312 311 313 313 313
323 324 323 323 321 326 326 325 325 325 328 328 328 320 305 326 323 324 326 325 323 323 323 328 327 331 332 329 326 324 324 321 320 319 317 315 313 312 311 311 312 312 312
323 324 325 325 325 324 324 326 325 324 325 325 328 326 305 323 324 321 321 321 321 324 325 325 324 321 320 320 320 318 319 318 320 321 322 320 318 316 315 314 313 312 311
321 321 320 320 321 319 322 323 324 325 326 325 324 320 319 319 320 320 322 321 320 321 322 321 319 318 320 320 318 315 311 309 311 312 312 314 317 317 316 314 314 314 310
319 320 321 321 322 322 322 323 322 316 318 318 319 322 322 321 320 318 320 320 320 319 320 319 318 315 315 315 315 313 307 302 309 310 314 315 313 311 312 312 312 311 311
318 318 318 318 321 320 321 320 320 319 320 319 318 317 318 318 316 317 319 317 317 315 314 315 315 316 316 315 314 313 297 287 302 293 314 314 313 312 311 311 310 309 307
316 316 315 315 316 318 317 317 317 316 314 315 315 315 314 314 314 315 316 316 314 314 316 314 313 314 310 310 310 295 289 286 296 287 303 313 310 309 308 308 308 307 306

GFSGL_sfc_thetae_072.txt.gz
Theta_e
360 357 358 356 356 358 357 356 356 358 356 356 350 354 353 351 351 350 349 347 344 346 347 345 345 348 346 350 349 347 343 340 329 328 330 333 332 332 335 333 333 329 328
360 358 356 356 356 356 356 355 358 356 356 354 353 349 352 350 351 344 343 346 343 343 341 344 344 347 346 347 345 343 343 341 331 325 325 325 328 333 335 333 334 331 327
359 356 354 352 355 354 355 355 355 354 353 351 353 351 348 349 345 346 346 344 344 344 341 341 344 344 343 345 345 344 343 337 332 326 322 324 325 329 330 331 331 329 327
356 356 355 354 354 353 354 355 353 354 352 346 347 347 346 348 348 347 344 343 344 343 341 342 344 344 344 345 346 344 341 337 331 326 322 321 323 326 329 326 324 326 322
357 355 356 354 355 352 353 354 354 352 350 349 346 346 347 344 336 342 343 342 342 342 341 343 339 336 334 334 340 342 340 334 328 324 322 320 320 321 322 326 325 325 324
357 356 358 358 352 350 351 353 353 352 354 354 350 345 347 349 326 331 333 335 339 340 336 339 337 333 331 332 333 331 340 335 331 327 324 320 320 322 324 324 325 323 318
358 356 357 357 356 354 353 353 351 351 354 353 352 347 345 347 323 322 326 329 331 336 337 340 338 337 338 335 329 330 330 330 334 332 326 325 322 323 324 325 323 322 321
358 354 356 356 352 352 351 352 353 354 353 352 351 350 348 334 320 320 321 330 326 334 335 339 338 338 335 338 337 336 335 335 333 335 335 331 329 327 327 326 324 324 325
357 357 353 355 353 351 351 352 353 354 352 350 351 349 349 338 319 317 323 329 326 330 333 332 336 336 325 325 335 335 334 330 322 324 324 326 325 324 328 327 322 320 318
356 354 354 356 354 352 352 353 355 353 350 348 348 349 338 342 315 313 322 329 330 329 331 334 324 328 318 319 329 332 331 333 328 327 328 327 327 326 325 328 326 322 322
358 353 350 354 354 353 353 354 353 351 348 349 346 347 346 342 327 311 311 331 330 331 329 328 331 316 314 312 312 331 323 321 332 333 333 332 332 332 329 330 332 328 324
352 350 346 352 351 351 352 351 351 349 348 345 345 344 343 342 322 310 309 312 323 332 334 327 322 309 310 310 314 314 311 316 332 331 330 330 330 331 331 330 332 334 334
324 323 343 348 351 353 351 349 347 348 344 342 340 338 342 344 335 311 307 308 311 324 332 323 316 307 306 307 308 309 307 321 322 322 325 328 329 330 333 331 333 334 331
323 322 340 343 347 349 344 347 343 340 340 343 341 337 340 343 342 332 328 322 313 320 325 326 323 317 314 318 318 312 316 319 319 319 320 326 329 327 324 325 323 322 320
332 335 338 341 339 339 343 343 342 326 335 340 341 337 336 330 323 312 323 329 325 314 321 335 333 328 328 327 326 325 317 317 314 315 316 320 325 325 321 322 321 317 315
338 336 337 338 338 339 339 333 318 317 307 303 302 320 318 308 299 299 299 299 299 301 325 326 324 325 324 325 325 325 325 321 321 321 320 320 321 319 318 320 320 317 315
336 338 338 332 335 335 339 336 325 318 303 299 300 302 303 304 298 298 299 298 298 304 324 324 324 324 324 325 326 325 323 324 324 322 319 321 319 319 318 318 318 317 315
320 317 330 329 330 329 333 332 328 325 321 323 304 306 298 298 299 298 298 299 316 310 324 328 325 325 325 325 326 325 324 323 320 318 320 318 319 317 316 314 314 313 313
319 318 318 319 321 323 327 326 323 324 329 330 321 308 303 297 299 299 295 321 326 325 326 330 330 328 325 325 324 324 323 321 319 318 317 317 316 313 313 313 313 308 310
321 316 315 317 317 318 321 324 324 324 324 326 327 324 320 314 319 320 318 329 326 325 324 326 328 330 328 326 324 323 321 320 320 317 318 317 315 314 313 312 312 311 311
324 321 317 318 317 318 322 323 324 323 325 325 323 320 304 323 319 321 321 322 322 323 323 322 322 321 319 320 322 324 320 317 317 318 318 317 316 315 314 314 313 312 312
322 325 323 320 321 321 321 322 323 323 324 324 323 315 307 322 321 321 321 320 320 320 322 320 320 319 318 316 316 314 313 311 313 313 313 314 314 317 316 314 313 312 312
320 321 322 324 323 319 323 324 323 324 324 323 322 319 321 321 320 319 320 320 321 321 320 319 317 315 316 315 314 311 308 308 310 311 313 314 315 314 314 313 312 312 311
318 319 320 321 320 322 322 318 318 313 318 320 320 318 317 316 317 318 318 318 317 317 316 316 315 314 315 314 313 311 305 300 308 308 309 312 310 309 311 311 310 308 308
318 319 319 320 321 322 320 318 317 317 318 315 315 316 317 317 317 316 316 315 315 315 315 315 313 312 311 310 307 302 291 287 296 291 306 310 311 309 307 305 305 304 304
316 316 317 318 318 318 317 316 316 315 314 315 315 315 315 314 315 315 314 315 314 314 314 312 309 307 305 300 297 287 284 283 288 284 290 304 308 307 306 306 305 303 303

GFSGL_sfc_thetae_075.txt.gz
Theta_e
349 351 350 349 348 347 347 347 343 341 340 339 339 341 342 341 341 339 339 339 339 338 340 340 339 341 340 339 339 339 337 335 327 328 329 332 331 332 332 329 328 324 328
351 350 350 349 347 347 345 343 342 341 341 340 339 339 340 341 341 341 339 338 338 337 336 337 336 342 337 336 337 336 337 336 328 324 326 326 328 331 330 328 328 327 324
349 349 348 346 346 346 345 345 343 342 340 341 339 338 338 338 338 339 337 333 336 335 337 336 335 336 334 335 336 335 335 334 331 326 324 324 325 329 329 330 328 322 324
349 348 346 345 346 346 345 344 343 341 341 340 340 341 341 339 339 338 337 331 332 334 336 333 337 336 333 334 336 334 332 331 329 326 324 323 323 325 327 323 321 320 317
349 347 347 346 346 345 344 344 342 342 342 343 342 340 338 337 332 336 335 331 330 333 334 336 333 333 334 332 333 335 335 328 326 323 321 320 320 322 324 324 321 318 316
349 348 349 347 347 345 344 343 341 340 340 338 337 337 335 335 326 328 329 330 329 332 330 332 330 332 331 331 331 333 333 328 325 323 321 320 321 322 324 324 321 318 313
349 349 350 347 345 343 343 344 341 338 339 338 338 337 336 330 322 322 326 325 325 330 331 332 332 335 329 327 329 330 331 332 330 327 323 321 321 323 324 322 322 323 317
349 349 349 349 344 345 343 343 340 339 339 340 338 337 335 327 320 319 323 321 324 330 330 331 330 330 329 329 326 328 329 332 333 333 327 325 325 324 326 326 324 323 323
351 349 350 348 347 343 341 340 341 341 340 339 339 338 336 325 318 317 320 321 323 326 331 329 331 327 324 323 330 328 325 323 322 325 327 325 323 322 325 325 322 320 318
352 351 351 349 346 343 341 342 342 342 340 339 337 337 333 329 314 314 320 322 321 324 326 329 326 325 318 318 326 326 325 325 324 322 322 323 323 322 324 326 324 320 319
346 338 328 325 326 340 342 342 341 341 338 336 337 335 334 331 322 310 312 323 322 323 324 322 327 316 314 313 317 324 320 317 325 323 325 324 325 326 327 327 326 325 321
330 327 325 323 329 328 328 336 339 336 335 336 334 336 335 331 323 310 309 312 323 325 322 321 318 310 310 311 313 315 311 313 319 325 325 325 325 327 325 326 326 327 326
326 322 325 323 328 326 325 327 337 338 336 334 333 331 332 330 321 312 309 308 312 321 324 320 310 307 307 308 310 310 307 312 313 313 314 320 326 329 330 326 326 327 327
319 319 322 325 330 322 324 330 336 335 333 332 332 329 333 333 322 317 316 312 314 316 318 317 316 314 311 314 314 310 312 312 311 310 312 314 318 320 323 326 325 325 323
321 320 321 323 324 334 333 331 333 325 327 330 330 330 331 328 323 315 317 322 320 317 319 324 317 316 315 316 319 317 313 311 310 309 309 311 316 318 317 318 315 315 315
329 327 327 326 332 332 326 323 312 315 309 308 312 317 313 308 299 299 299 300 301 303 317 320 318 321 323 323 323 324 324 319 312 313 315 316 318 318 317 317 318 316 314
319 324 328 325 328 327 328 324 321 316 303 299 299 303 305 303 299 297 301 302 302 307 316 319 319 318 318 319 319 323 321 320 323 322 320 320 319 317 316 317 317 317 317
318 313 318 318 322 324 324 326 323 320 316 315 303 303 296 298 298 298 299 302 307 308 315 317 317 320 322 321 318 320 320 319 318 317 316 317 317 317 316 315 315 314 313
318 318 318 318 317 317 320 322 323 322 320 319 312 305 299 299 302 299 297 315 318 315 317 323 320 319 321 321 319 318 318 316 316 315 313 312 311 311 311 313 312 307 309
318 316 316 318 319 320 321 321 321 321 322 323 320 319 311 308 312 312 313 319 317 318 320 319 319 319 321 318 317 316 315 312 311 311 314 314 313 313 311 310 309 308 306
320 319 316 316 318 320 321 321 321 321 321 322 321 316 307 319 322 319 317 316 316 314 314 314 313 312 313 312 312 313 311 309 309 309 309 312 314 314 312 312 312 311 311
315 317 319 317 316 318 318 320 320 321 322 321 320 318 310 317 317 316 315 315 315 315 315 313 312 311 310 308 307 307 307 306 304 304 305 307 307 308 307 308 309 310 309
315 316 317 318 320 317 318 319 320 320 319 318 318 317 317 317 317 316 315 315 314 312 311 311 309 309 309 308 306 303 301 299 301 302 302 305 305 305 307 304 304 303 302
314 316 316 315 316 315 315 315 314 311 315 315 314 314 314 314 314 314 313 310 310 309 310 310 308 306 306 304 301 296 294 294 297 296 299 301 303 301 302 303 302 303 302
313 313 313 315 317 314 313 313 315 314 315 314 314 314 314 314 312 310 309 309 309 309 309 307 304 301 298 294 291 288 284 283 287 286 289 294 299 302 301 302 303 302 300
313 313 314 314 314 313 311 311 311 312 311 311 309 308 309 309 309 308 308 308 308 308 307 302 299 296 293 291 288 286 284 284 285 284 286 291 296 300 301 300 299 297 296

GFSGL_sfc_thetae_078.txt.gz
Theta_e
345 345 346 345 344 342 341 341 341 338 339 339 339 340 341 340 340 338 337 337 336 335 336 337 336 337 339 339 340 337 337 333 326 327 329 332 332 332 331 329 329 328 331
345 346 346 346 346 342 341 343 341 338 338 337 337 339 339 339 338 336 335 338 335 334 335 336 335 338 335 335 336 335 336 335 328 324 327 327 328 331 327 325 326 327 327
346 346 346 345 344 343 342 342 339 338 337 338 337 336 336 338 337 337 337 333 333 335 333 332 334 334 333 333 334 333 333 334 329 326 324 325 327 331 326 326 321 319 325
346 346 345 344 344 344 343 342 340 339 337 337 336 336 335 336 336 335 335 330 330 332 333 331 334 334 333 333 333 333 332 330 328 327 325 324 325 327 328 324 320 320 318
347 346 345 345 344 343 343 341 340 339 339 338 338 339 339 339 334 337 334 328 328 328 331 335 333 333 333 331 332 333 331 328 326 324 323 322 322 324 324 323 320 317 315
346 346 346 345 344 343 341 340 340 338 338 338 339 339 333 334 325 328 331 330 329 330 328 330 329 333 330 330 331 333 331 327 324 322 321 322 323 324 324 323 320 316 314
347 346 346 346 344 343 343 341 339 336 336 335 334 334 333 331 322 322 326 326 327 327 330 329 328 330 328 328 327 329 329 328 328 326 323 323 322 324 325 323 321 319 316
346 347 347 348 342 340 339 335 339 336 336 334 334 335 333 331 319 318 322 320 324 330 329 330 331 328 326 327 326 326 328 331 329 329 325 322 322 326 327 327 324 323 322
347 346 347 342 329 330 329 327 330 334 335 336 336 335 333 329 316 316 320 320 321 327 330 331 330 328 324 322 328 324 322 322 321 324 324 321 320 320 324 324 322 321 319
339 345 338 335 332 325 320 324 326 325 324 338 337 336 330 328 313 313 319 320 318 321 323 325 324 322 317 319 327 323 320 322 323 322 322 322 320 319 321 324 322 321 320
333 331 329 333 333 326 325 326 324 324 324 336 335 334 334 329 319 310 312 321 320 320 322 324 324 315 311 312 316 324 322 321 322 321 320 321 322 321 321 322 322 323 321
326 325 325 328 331 329 326 326 321 324 323 334 333 333 333 330 318 309 308 315 320 322 321 321 320 311 307 307 312 310 308 313 321 320 320 320 320 321 322 324 324 323 323
321 320 319 323 327 327 325 324 323 322 330 334 333 331 330 329 323 310 307 308 313 321 323 317 310 305 307 309 311 309 308 312 311 313 317 317 321 323 323 322 322 322 322
319 317 319 320 321 320 323 323 322 323 324 331 331 330 330 330 324 318 316 312 313 317 317 317 313 311 311 313 313 310 310 310 310 309 307 309 312 315 318 322 320 323 323
319 318 320 319 325 321 321 319 322 328 331 332 333 332 331 329 326 316 315 318 319 315 316 319 315 313 314 313 315 316 313 310 309 308 307 309 312 316 315 315 317 316 320
326 327 324 327 325 328 324 321 309 306 308 308 310 322 323 314 308 308 301 302 302 304 320 321 320 321 320 321 323 323 322 319 314 312 312 313 314 317 316 316 317 315 313
316 318 319 322 323 325 325 322 317 312 303 301 301 303 306 304 300 298 298 298 300 307 315 319 320 318 315 320 320 322 321 322 322 321 320 318 319 318 316 316 316 316 316
318 312 317 318 320 321 323 325 323 320 316 313 298 298 296 296 296 296 297 301 310 310 315 315 315 316 318 316 319 318 317 317 316 315 313 312 312 314 314 313 313 313 313
316 317 318 319 318 316 322 323 323 322 317 310 307 302 299 297 296 296 296 313 314 312 314 317 317 317 316 315 314 313 311 310 313 314 314 312 313 312 311 311 311 306 305
318 315 315 318 319 320 319 321 322 322 319 318 318 312 307 306 313 313 314 318 318 319 320 318 315 317 317 315 314 311 310 311 311 313 314 313 313 312 310 310 310 308 309
313 319 315 317 318 319 319 319 319 321 322 320 320 317 305 319 318 318 315 314 315 314 313 312 311 309 311 310 309 306 306 307 304 303 305 306 308 305 308 310 310 311 311
311 311 314 315 315 317 318 320 320 320 321 321 319 313 305 319 316 314 313 313 313 313 312 310 307 305 304 304 303 302 302 301 301 301 302 303 303 303 302 302 302 303 304
312 312 312 313 314 314 317 318 320 320 320 320 320 317 316 316 316 315 313 311 311 309 309 308 306 304 303 301 300 299 297 296 297 297 299 300 300 299 301 300 301 299 299
311 311 312 312 311 312 313 312 310 308 313 314 315 314 314 314 313 312 311 309 309 309 307 306 304 301 296 294 292 290 290 290 290 290 292 294 298 299 299 299 300 302 301
310 310 314 311 309 309 311 312 312 313 312 313 313 312 312 311 310 310 309 308 308 306 304 301 296 293 291 290 288 287 285 283 286 286 289 291 295 296 298 298 298 297 295
313 313 313 313 312 312 312 311 311 312 312 312 311 311 309 308 306 307 307 307 306 302 298 295 293 291 290 287 287 285 284 283 285 284 289 292 290 288 290 293 295 294 294

GFSGL_sfc_thetae_081.txt.gz
Theta_e
342 343 343 342 341 341 339 339 338 338 338 337 339 339 339 339 338 336 335 334 333 331 331 331 331 333 336 336 337 337 336 332 327 327 329 332 333 332 332 330 330 330 333
342 342 343 343 342 341 339 339 339 337 336 337 336 337 338 339 337 336 335 337 334 333 332 333 334 336 333 332 334 335 335 333 328 325 327 328 329 331 327 325 327 328 330
343 343 342 342 342 341 340 340 340 336 336 335 334 336 336 336 336 336 335 335 334 333 332 331 333 333 331 331 332 331 329 333 328 327 324 326 328 328 325 324 323 322 327
343 343 343 343 343 342 342 340 339 337 336 335 335 334 335 335 335 335 335 332 330 331 332 332 333 333 331 331 330 332 333 331 328 327 325 325 327 327 327 322 318 317 321
344 343 344 344 344 343 341 340 338 337 336 335 334 334 334 334 336 332 334 330 328 327 329 333 334 334 334 331 329 333 331 328 326 325 323 323 323 324 323 324 320 318 317
343 344 343 343 342 341 339 334 336 335 335 336 335 335 335 335 327 327 331 328 329 328 327 330 329 333 330 330 330 333 332 328 325 324 322 322 323 325 324 323 319 316 315
344 346 345 341 340 333 330 330 328 328 330 332 333 334 332 331 322 323 328 327 326 326 327 328 329 332 329 329 328 329 329 328 328 327 323 323 324 325 327 323 321 318 317
343 344 342 341 333 331 330 329 327 328 327 327 325 330 333 332 320 318 324 323 323 326 327 328 327 328 327 328 329 330 326 328 328 328 326 326 325 326 328 326 324 322 321
342 344 343 338 333 330 329 329 329 326 325 327 326 324 331 333 317 315 319 319 319 324 326 327 329 329 323 321 327 326 324 323 321 322 322 320 320 321 324 326 322 321 319
335 339 342 335 332 328 327 328 328 325 322 324 324 324 326 334 314 312 319 320 317 320 322 322 324 326 318 317 327 325 321 322 322 322 322 321 319 319 321 326 325 321 320
331 331 333 333 331 328 325 323 320 324 326 321 322 323 331 334 320 310 313 320 319 318 321 320 321 315 312 312 315 324 322 322 322 320 320 320 320 319 319 320 321 324 321
324 325 324 327 329 330 325 323 321 320 319 319 322 326 334 332 318 309 309 315 318 320 320 320 320 309 307 309 314 311 310 315 320 321 318 317 318 320 320 320 320 320 321
322 318 318 318 320 325 321 319 320 319 320 323 327 331 332 330 323 309 307 310 313 319 321 316 311 306 305 308 311 309 309 312 312 318 318 316 318 320 320 319 320 320 319
322 318 316 316 317 318 318 321 320 319 320 322 328 329 329 328 324 314 313 313 313 320 316 312 312 311 311 313 313 311 311 310 309 309 308 308 309 312 314 319 319 323 322
322 324 318 319 318 326 321 317 322 321 317 321 324 325 329 328 327 316 316 318 319 317 315 316 316 316 314 313 316 317 315 309 309 308 307 307 307 311 312 312 320 321 320
316 318 319 322 327 327 324 313 304 303 303 307 304 314 325 317 307 306 305 303 303 304 317 321 319 316 315 316 317 320 321 319 315 314 313 314 315 316 316 316 315 312 314
314 316 318 317 322 323 323 323 316 306 299 298 303 303 306 307 303 301 300 298 298 307 321 321 320 321 320 321 318 322 320 321 321 320 319 318 318 318 316 316 316 315 314
316 311 315 318 319 320 323 323 320 318 314 308 301 299 296 298 298 298 298 304 314 314 314 316 315 315 315 318 319 317 317 315 314 314 312 311 312 313 312 312 312 312 312
315 314 317 318 319 318 321 323 320 314 311 308 310 304 298 295 295 295 297 315 314 313 314 314 315 315 315 313 312 311 310 313 313 312 310 309 312 312 310 310 308 305 305
311 315 314 317 319 319 320 320 318 316 316 314 312 310 308 310 313 311 311 315 315 316 319 316 315 314 313 311 309 309 309 309 308 311 313 313 312 312 310 310 310 309 309
309 310 314 316 317 319 320 319 320 317 317 318 317 315 304 318 316 315 315 316 316 317 315 313 311 312 309 309 308 305 303 302 302 303 304 304 303 303 303 305 308 307 305
308 309 310 314 315 314 318 319 320 321 319 319 318 311 302 317 315 313 312 312 313 312 311 307 305 305 306 306 305 303 302 299 299 300 301 301 300 300 300 299 298 298 299
309 311 311 311 312 313 314 317 318 319 321 320 317 317 316 314 312 312 312 311 310 308 306 305 302 300 299 299 299 298 297 295 295 297 298 298 298 297 297 297 297 296 295
308 309 310 309 310 310 310 312 314 312 319 318 316 315 314 313 311 310 311 308 308 307 305 302 298 295 292 291 290 289 289 289 289 289 291 294 296 296 297 296 296 297 295
309 312 312 308 309 311 309 309 309 313 314 312 312 312 312 311 310 309 309 307 305 303 299 295 293 292 291 290 288 287 285 283 285 286 290 293 293 293 295 295 295 294 293
311 312 312 312 313 312 312 312 311 311 312 312 312 311 310 309 308 307 305 303 300 296 293 291 290 289 288 287 286 285 284 283 285 285 289 287 286 285 286 286 286 286 286

GFSGL_sfc_thetae_084.txt.gz
Theta_e
344 344 344 343 343 342 341 341 340 340 342 341 342 342 341 339 340 339 339 340 338 338 337 336 336 337 338 338 339 338 336 335 330 328 330 333 335 335 334 333 334 335 336
343 344 344 345 344 343 342 342 342 341 341 341 341 341 341 342 342 341 339 341 338 337 337 337 336 339 339 339 336 336 335 334 331 327 328 329 331 332 329 327 329 331 332
343 344 345 345 344 343 342 343 342 342 340 339 340 340 340 340 341 341 340 339 338 338 338 337 338 338 338 337 337 336 335 336 333 330 326 328 329 328 325 325 325 326 330
343 342 342 344 345 344 343 343 343 342 340 339 339 339 340 340 341 340 340 339 338 336 337 337 337 338 339 338 337 337 335 334 332 329 327 327 328 328 327 322 319 322 325
341 341 341 343 345 344 343 341 340 339 339 339 338 339 338 338 337 339 338 338 336 334 335 337 336 337 335 336 337 337 336 333 330 327 325 325 324 324 324 324 321 321 321
332 332 331 340 343 342 339 338 338 339 338 338 337 337 337 337 328 328 335 336 335 333 333 335 337 336 334 330 331 332 336 333 329 327 324 325 327 328 325 324 320 319 320
329 329 331 332 339 338 337 336 337 336 336 337 338 337 336 337 325 323 328 335 333 333 334 335 334 334 331 334 329 330 329 328 329 331 326 327 328 330 328 325 323 322 323
327 327 330 332 338 335 334 335 336 336 334 335 336 334 337 337 323 319 324 334 332 332 332 334 334 333 332 333 336 335 333 332 331 330 330 331 332 329 329 328 326 324 321
328 326 330 339 335 333 332 331 333 334 334 335 333 331 332 334 319 316 322 328 327 330 332 333 333 333 323 322 333 334 333 333 322 323 322 321 321 322 327 327 322 320 319
332 333 335 342 335 333 333 332 334 332 331 330 330 327 322 330 316 313 320 328 326 327 330 331 323 330 316 315 333 331 329 329 331 331 330 325 323 324 322 332 327 322 322
331 329 330 335 335 334 330 328 325 328 328 325 325 325 326 327 330 311 315 328 327 325 328 328 330 315 309 308 316 332 329 329 326 330 329 329 329 328 328 329 331 328 324
328 326 324 324 329 331 328 328 326 325 324 325 323 323 325 328 319 310 311 317 321 326 327 329 326 308 306 306 317 313 310 320 329 327 325 326 327 326 328 328 329 330 332
325 325 322 321 322 323 325 325 324 323 321 322 322 322 324 331 331 311 311 314 315 325 328 322 312 303 304 309 307 307 311 323 326 326 327 327 327 329 330 329 329 330 329
318 321 324 321 320 324 322 323 324 322 321 322 324 326 329 331 325 319 318 319 316 321 316 317 314 314 313 315 314 314 320 320 320 320 321 323 319 319 324 328 323 323 324
316 317 319 321 324 325 325 317 319 323 317 323 324 327 329 326 323 315 315 321 324 319 316 318 319 319 319 320 321 320 320 318 314 314 316 316 316 316 319 322 323 323 323
316 316 316 318 320 324 325 318 303 301 298 297 300 314 327 312 306 304 303 304 304 306 321 321 319 322 322 321 322 322 322 319 320 318 316 317 318 319 321 321 321 320 320
315 316 316 317 320 319 320 323 321 309 299 296 295 298 307 307 302 301 302 302 301 308 323 322 323 322 321 322 325 323 321 322 323 318 317 318 319 319 317 317 317 317 316
313 309 316 318 320 320 320 323 321 317 316 309 300 299 300 299 299 299 299 302 311 316 324 322 322 322 322 322 322 319 317 317 317 315 314 314 315 315 314 314 314 313 311
312 314 316 318 320 318 321 320 317 313 310 309 310 302 301 298 298 297 301 320 319 318 319 319 320 322 320 318 318 317 317 317 317 315 314 317 317 316 313 313 313 306 309
313 311 312 316 318 318 320 319 317 316 315 314 313 312 313 314 315 315 316 317 318 319 318 318 319 318 317 315 315 314 314 315 316 317 315 316 315 315 313 312 312 311 311
312 312 312 315 317 318 321 320 318 318 318 316 316 313 304 317 316 316 317 318 320 319 316 317 317 315 314 314 313 310 311 311 312 312 311 312 313 311 312 312 309 307 307
311 312 313 314 316 317 319 322 320 319 319 318 316 310 303 316 314 313 314 314 314 313 311 309 310 311 311 310 309 307 306 306 309 310 309 309 309 308 308 308 307 307 306
311 312 313 314 315 313 317 319 320 320 319 318 318 316 315 313 312 311 310 310 309 308 307 307 304 304 304 304 305 306 305 303 304 307 307 306 306 306 307 307 306 306 305
312 312 313 312 313 315 315 315 317 311 318 317 316 314 313 313 312 311 310 308 306 304 303 302 301 299 297 296 296 296 295 296 297 298 301 305 305 303 305 304 304 303 303
313 314 313 312 313 312 313 313 315 315 314 313 313 312 312 312 310 309 307 306 304 299 298 296 296 296 295 295 294 293 287 284 293 290 300 301 300 302 302 302 302 300 297
311 313 313 313 314 314 314 313 313 313 312 312 312 312 311 309 307 306 306 304 299 297 296 295 295 294 293 292 291 286 284 284 291 288 295 295 294 293 293 292 292 292 292

GFSGL_sfc_thetae_087.txt.gz
Theta_e
351 352 351 352 352 355 354 353 353 354 352 352 353 352 351 349 347 344 343 343 343 345 346 346 347 349 343 345 348 344 342 340 334 334 336 339 338 337 338 340 340 343 340
353 352 351 353 352 352 352 353 354 353 352 351 353 351 351 350 349 348 348 347 347 345 345 345 344 341 343 345 345 346 344 345 340 334 331 332 335 336 334 330 331 336 336
350 351 352 351 352 352 354 354 354 354 352 351 351 350 350 350 350 350 349 347 347 346 346 345 345 346 345 348 347 344 343 343 340 335 335 336 336 331 328 326 327 330 333
350 350 350 350 352 353 355 354 354 355 353 351 351 351 351 350 350 349 349 348 347 346 347 346 345 345 346 346 345 346 342 341 341 338 336 333 334 332 329 322 322 325 328
348 349 346 348 351 353 353 354 355 355 353 352 351 350 350 349 346 348 349 348 347 346 345 345 345 344 339 341 343 344 340 339 335 334 331 330 328 327 324 324 322 322 325
346 340 344 344 344 343 345 348 354 353 352 351 349 349 348 346 331 331 342 345 346 345 344 345 344 338 337 331 332 334 340 339 337 334 332 330 330 329 327 325 324 322 320
337 336 339 339 338 337 338 341 345 351 352 350 350 350 347 349 325 324 329 345 345 345 345 344 342 340 339 342 330 329 331 329 332 341 335 336 335 333 331 327 325 328 327
335 334 335 336 335 334 333 335 338 344 350 351 350 350 349 348 324 320 325 345 345 345 344 344 343 344 342 341 342 339 338 337 338 336 340 341 341 340 335 331 328 325 322
336 337 336 336 335 334 334 335 338 343 348 349 346 345 345 347 320 317 326 345 344 343 343 344 343 343 329 323 341 336 336 338 324 323 324 323 323 324 331 330 324 321 319
333 336 337 337 341 340 337 338 339 342 344 343 340 340 331 340 321 314 322 343 342 340 343 343 325 336 317 317 341 340 338 338 338 337 335 328 328 328 324 336 329 325 326
333 336 335 333 336 337 337 336 333 331 332 334 335 337 338 335 335 311 313 339 340 339 339 338 339 317 310 310 316 343 337 337 333 339 338 337 337 335 334 335 335 333 329
329 333 334 332 331 335 333 331 329 330 329 328 329 331 333 336 320 316 310 314 328 340 338 341 336 310 306 306 316 315 312 324 337 335 333 333 333 334 335 337 337 335 334
324 325 329 332 331 332 332 332 331 333 331 331 331 331 332 334 334 312 308 310 315 337 342 333 314 304 304 309 310 308 310 335 336 333 332 333 335 338 339 337 337 337 336
321 320 322 323 324 332 332 332 330 329 328 325 323 323 327 331 335 336 321 316 316 326 321 324 320 318 317 320 319 320 331 332 332 331 333 337 335 332 335 333 330 328 327
325 325 323 321 323 326 329 328 326 328 323 325 324 327 329 330 332 318 315 321 324 322 324 327 327 327 327 327 328 328 328 327 326 327 325 325 326 327 328 330 328 327 326
320 322 321 321 324 324 325 326 305 304 300 298 297 305 328 313 304 302 302 304 305 307 322 325 326 328 328 328 326 325 325 322 325 325 327 325 324 321 321 323 325 326 325
319 322 321 321 325 323 322 324 325 303 298 297 297 296 296 301 299 299 300 300 302 309 323 323 325 328 329 328 328 329 324 326 325 323 320 321 322 322 324 323 322 317 317
320 311 321 322 324 325 322 324 322 320 318 314 303 298 296 296 298 297 297 302 312 318 324 324 324 325 323 324 325 324 325 323 323 321 321 321 322 321 319 319 318 318 316
319 319 320 322 324 322 327 324 323 320 316 316 314 304 299 294 295 296 298 319 321 323 324 324 323 324 324 323 323 323 323 320 319 319 321 322 321 320 319 318 316 310 313
320 315 315 322 323 324 326 322 322 319 319 319 317 316 316 315 316 317 320 320 320 321 321 322 322 323 321 321 321 321 320 319 320 320 320 319 319 319 317 315 315 315 315
319 319 315 322 323 324 325 321 320 319 319 318 318 314 301 317 318 318 319 319 318 318 320 319 321 320 320 319 319 319 319 318 319 319 319 318 318 316 317 315 314 314 312
319 319 320 321 322 323 326 326 321 321 320 320 317 312 302 322 316 315 314 316 315 315 316 314 315 318 319 318 318 317 318 318 317 317 316 315 313 312 312 311 310 309 308
320 320 321 322 323 319 325 325 325 320 320 318 317 315 316 313 313 313 312 311 311 311 310 309 309 310 311 312 314 315 315 316 315 315 313 312 311 310 310 309 308 308 308
320 321 320 322 321 321 318 319 321 312 318 317 315 314 313 313 311 309 307 306 305 306 307 307 306 305 304 304 306 308 309 311 313 314 313 311 310 307 309 308 308 307 306
317 318 319 320 320 321 320 316 317 318 318 315 313 315 315 315 312 312 308 308 309 307 305 303 303 303 302 302 302 301 290 286 302 298 310 310 310 310 309 308 308 307 306
315 316 317 317 316 316 320 319 315 315 316 318 316 314 312 309 307 306 304 303 303 303 303 303 303 303 302 301 301 290 285 285 296 290 305 306 305 304 304 303 302 302 299

GFSGL_sfc_thetae_090.txt.gz
Theta_e
361 361 359 356 356 355 355 359 357 358 359 357 355 355 356 355 354 353 351 347 347 347 349 349 349 351 354 355 354 350 348 346 340 342 347 347 344 344 346 347 342 346 340
361 361 358 356 355 354 356 358 358 358 359 358 354 356 355 355 354 351 349 347 346 346 347 347 347 346 349 349 345 353 352 347 340 341 344 341 344 345 340 338 340 340 341
355 359 355 353 353 353 356 358 358 358 358 357 353 353 353 353 353 353 352 351 350 349 349 349 349 348 348 349 347 349 348 349 347 341 339 340 340 338 331 330 330 333 336
336 352 352 353 354 353 357 359 358 359 358 357 355 354 353 353 353 353 352 351 350 350 350 349 347 347 348 349 348 349 349 347 347 346 346 338 339 337 334 328 324 328 332
331 331 354 355 356 356 357 358 359 359 358 359 355 356 354 352 350 352 351 350 350 349 349 350 349 347 342 343 343 349 348 345 341 338 337 336 332 330 328 328 325 325 327
341 345 349 353 355 356 358 358 359 357 358 357 356 354 352 349 333 333 342 349 349 349 347 349 349 341 340 334 335 335 341 345 342 336 335 336 337 332 329 325 322 321 322
339 345 346 349 353 355 356 353 351 352 355 356 356 355 352 353 330 327 331 347 347 347 348 348 346 343 342 345 332 330 332 331 334 343 340 341 341 341 333 327 326 327 330
336 338 341 342 347 348 346 348 349 349 350 351 351 355 354 353 327 322 326 348 348 349 349 348 349 348 346 344 345 343 343 343 343 342 346 345 346 347 340 335 332 327 327
335 336 337 340 342 345 341 344 345 345 346 351 352 354 353 352 325 320 328 347 348 348 349 349 348 348 333 326 343 342 341 342 328 327 328 327 327 328 335 334 325 322 320
335 338 340 342 344 343 345 343 345 346 347 348 350 346 337 349 325 315 326 345 348 349 351 352 329 340 319 319 342 344 338 340 341 339 337 331 332 332 326 339 331 325 325
333 337 339 342 342 345 347 347 344 343 341 340 340 343 345 343 343 313 313 339 340 344 346 345 350 321 312 312 318 343 343 344 337 343 343 339 339 338 337 337 339 339 330
329 332 334 338 340 339 340 341 340 338 334 333 333 333 336 340 325 319 312 313 329 339 342 345 345 314 308 308 318 316 317 325 339 340 339 334 335 336 338 340 341 342 342
330 330 331 332 334 338 338 338 336 338 334 335 336 337 340 343 345 316 312 311 312 327 340 336 322 309 306 310 312 311 313 335 336 336 333 338 342 335 340 340 340 341 341
328 329 328 328 328 331 329 333 335 334 333 331 332 333 333 334 336 338 336 331 315 323 326 335 323 324 322 329 324 324 336 336 335 334 334 339 341 344 341 343 335 335 334
325 329 329 330 327 327 330 332 330 331 327 329 331 333 331 332 333 322 327 334 333 327 330 328 324 327 332 334 334 333 334 334 333 333 335 335 335 336 337 339 338 333 330
323 323 325 327 328 329 328 326 311 306 301 299 298 303 326 313 305 303 302 304 306 307 327 324 323 327 331 330 329 330 332 329 331 331 331 330 329 329 331 333 333 330 327
323 323 322 323 326 327 329 328 325 318 300 297 296 297 295 297 296 297 296 298 301 308 326 325 327 327 329 330 331 330 329 329 332 329 330 327 329 327 321 326 330 328 327
324 314 321 323 325 326 325 328 326 325 325 324 306 303 301 294 294 295 296 301 311 315 327 326 327 328 329 330 332 332 329 325 330 327 327 327 326 323 319 319 320 321 318
322 322 322 321 324 324 326 329 325 326 323 321 320 311 303 293 293 294 297 321 320 323 324 325 326 325 325 326 325 325 324 326 326 327 325 324 324 323 322 321 320 312 315
323 318 316 321 323 326 328 329 325 324 322 323 323 319 320 312 315 312 317 321 322 323 325 325 325 325 322 322 321 324 320 321 323 322 323 324 324 323 321 319 319 318 318
322 322 318 322 322 324 327 330 330 324 321 324 323 317 300 319 319 320 319 319 320 319 319 319 319 320 321 321 322 323 323 322 322 321 320 320 320 318 318 318 317 317 317
321 322 322 322 322 323 326 330 331 324 322 325 321 321 302 319 318 316 315 317 318 318 319 320 320 319 320 319 319 320 321 320 321 321 319 319 319 318 317 316 315 314 313
320 322 322 323 324 321 326 328 327 327 322 319 320 318 316 320 315 314 314 317 317 318 319 318 319 318 319 320 322 322 320 319 319 319 316 314 312 311 311 311 311 310 310
320 321 322 323 325 324 324 322 325 314 321 317 316 314 313 311 311 310 309 310 310 310 313 315 316 316 316 317 317 318 318 318 317 316 315 312 311 309 311 310 310 310 309
319 322 320 322 323 324 323 320 320 320 318 316 317 317 316 313 311 310 309 309 312 315 314 312 310 309 310 310 310 309 294 288 310 303 313 313 312 313 311 310 310 309 309
319 319 319 320 320 319 322 322 322 321 320 319 320 317 312 311 310 310 311 312 311 311 312 312 312 310 309 308 305 291 286 287 300 291 310 311 311 311 310 310 308 306 305

GFSGL_sfc_thetae_093.txt.gz
Theta_e
361 366 366 362 361 360 358 361 360 360 362 359 356 355 355 355 355 355 353 350 349 350 351 350 350 352 348 351 352 353 353 350 341 346 353 352 347 348 348 350 350 349 342
354 360 360 361 358 356 355 359 361 360 362 359 357 354 355 355 353 352 350 348 347 347 347 349 348 348 351 353 349 353 351 353 347 343 350 348 346 348 348 345 344 341 345
340 343 343 338 354 355 355 357 359 358 360 357 356 353 353 353 354 352 351 350 349 349 349 351 349 350 352 354 350 353 348 353 350 347 346 350 343 343 334 334 333 335 336
338 337 333 332 333 343 358 359 358 361 357 359 357 354 353 352 352 354 353 352 353 350 351 351 349 347 350 351 351 350 352 348 347 347 345 347 345 342 338 330 328 330 332
342 337 334 335 335 338 354 357 359 359 358 359 358 355 356 352 348 353 350 350 352 351 351 350 350 349 345 345 349 353 353 345 340 340 341 344 340 336 333 333 331 328 328
343 340 335 335 335 335 351 355 357 360 361 360 357 355 355 350 336 336 345 350 351 349 350 349 350 345 342 337 337 337 345 347 348 345 343 338 344 338 336 334 327 323 321
344 344 339 337 335 336 351 354 355 357 362 360 357 356 355 355 330 330 334 349 348 350 349 348 345 344 344 346 334 333 333 333 335 345 343 342 344 343 338 330 325 324 325
339 342 345 345 345 349 350 354 356 360 356 353 355 360 358 356 325 325 329 351 350 350 349 349 350 349 349 346 347 343 342 342 340 338 344 347 347 349 343 336 331 329 328
337 338 339 340 342 345 347 347 350 352 350 350 353 356 358 357 326 321 329 350 349 349 349 350 350 348 338 329 344 345 345 347 329 329 327 329 332 336 339 337 328 325 320
338 340 341 342 343 345 345 341 343 348 348 346 350 355 346 357 325 317 327 346 346 344 353 354 333 342 327 322 345 345 344 342 343 341 340 331 331 334 328 341 333 326 324
334 339 341 342 343 344 344 348 349 348 345 346 348 351 352 349 347 314 315 345 343 343 342 344 346 324 315 314 321 346 343 348 341 345 340 338 339 339 338 340 340 334 328
333 333 334 336 339 340 343 342 343 343 342 340 341 342 346 346 327 319 314 316 333 340 342 344 344 317 312 312 317 323 319 327 347 340 338 341 337 337 338 340 343 345 347
334 333 333 334 333 337 336 338 338 343 341 338 337 337 339 343 346 320 313 313 315 332 339 332 318 310 310 312 313 312 316 339 338 338 336 338 344 339 342 344 343 346 345
330 332 334 333 330 333 333 335 335 334 335 335 333 331 334 338 339 341 337 332 318 325 327 333 329 322 321 330 326 323 338 337 334 334 335 340 340 347 344 343 343 341 339
328 328 331 329 332 331 332 331 331 335 329 329 331 332 332 333 329 308 311 328 335 328 329 335 333 334 333 333 337 334 334 337 334 336 341 339 342 343 342 343 343 340 334
325 324 324 324 326 330 329 332 316 314 308 302 299 307 322 312 304 299 297 297 299 303 325 332 330 331 333 334 332 330 332 330 332 332 335 336 339 338 336 340 338 337 334
325 325 322 320 323 326 327 326 327 322 304 300 299 298 296 300 297 297 296 296 297 300 319 327 330 331 334 330 330 330 329 333 335 337 340 335 334 328 328 331 333 330 330
326 317 324 323 322 323 326 327 327 327 324 325 306 305 302 296 295 294 294 296 316 308 322 327 330 330 329 329 328 328 329 330 334 335 333 330 329 328 327 329 330 327 325
323 323 323 322 322 321 325 328 328 327 326 326 328 312 310 296 294 293 294 322 323 322 324 327 329 329 329 328 327 327 326 326 326 327 328 329 328 326 324 322 321 313 317
324 321 316 322 322 322 324 327 327 327 326 326 325 325 323 318 318 315 316 322 322 323 326 325 326 325 324 324 324 323 323 323 324 325 324 324 326 324 321 321 320 319 320
321 322 322 322 322 323 322 323 330 328 326 324 325 320 302 320 318 317 320 320 321 320 323 323 323 323 322 322 321 321 322 321 322 323 324 325 325 323 322 321 320 320 319
322 322 322 322 323 322 324 324 328 329 327 324 324 321 305 318 318 318 317 317 318 319 320 319 319 320 321 321 321 320 320 319 320 320 320 321 321 320 319 318 318 318 317
321 321 322 322 323 319 323 326 327 328 326 325 321 321 319 317 314 313 315 317 319 319 321 318 319 319 320 321 321 321 320 322 323 321 321 320 320 318 318 317 316 314 312
320 321 319 320 322 324 325 323 323 317 323 323 319 316 314 312 313 312 311 312 312 317 318 320 321 321 321 322 323 324 323 323 323 321 320 316 314 309 314 313 311 311 311
320 319 319 318 318 320 323 322 321 320 319 322 320 319 316 313 312 310 311 314 318 321 319 317 318 319 320 320 320 314 295 289 314 307 317 316 314 315 312 311 311 310 309
319 318 318 317 317 318 320 322 324 323 324 322 323 319 315 313 313 313 312 314 315 314 313 315 314 315 315 315 314 294 288 288 301 295 313 314 312 311 311 311 310 309 309

GFSGL_sfc_thetae_096.txt.gz
Theta_e
362 363 364 363 361 360 357 355 358 365 362 357 359 357 356 356 357 355 354 353 350 350 349 349 348 350 345 344 345 344 341 340 336 339 347 346 344 345 345 347 344 344 338
363 360 358 342 356 352 353 355 357 359 361 357 358 358 357 356 355 354 351 350 349 349 348 347 347 350 348 349 347 345 344 344 341 337 344 344 343 345 345 344 343 342 339
342 341 335 336 333 334 342 349 355 356 357 357 358 356 356 356 354 353 351 352 352 350 349 348 346 347 347 345 346 345 345 346 346 342 341 345 344 342 336 337 336 336 335
339 338 334 334 336 337 342 343 349 351 353 355 355 356 355 355 356 352 352 351 352 351 352 349 346 346 347 345 346 345 345 343 343 342 342 342 341 340 335 329 327 332 331
340 336 335 334 333 334 335 341 347 351 352 354 353 356 355 355 350 353 352 351 351 349 350 350 346 348 349 348 347 345 345 343 342 339 339 338 338 335 333 333 330 329 329
340 338 336 335 333 331 333 340 348 350 352 353 354 353 352 350 338 340 349 350 351 351 350 351 351 345 343 338 340 339 345 343 341 339 338 336 336 337 337 334 329 323 321
340 344 338 338 338 339 340 343 346 350 355 352 351 349 350 353 333 331 338 352 351 351 351 349 348 345 342 345 335 335 335 334 337 341 338 338 337 339 337 333 327 326 325
341 343 344 342 341 340 342 343 345 349 349 346 347 347 352 352 328 326 331 351 351 351 352 351 348 347 349 345 346 339 340 340 337 336 338 343 344 344 340 333 329 329 330
340 341 342 344 343 340 338 341 342 343 341 343 349 354 352 349 324 322 330 349 349 349 350 351 350 347 338 330 344 343 342 341 330 328 326 330 333 336 338 335 328 325 321
334 336 343 344 342 342 344 341 340 342 341 343 343 350 344 350 328 320 326 346 346 346 350 350 333 343 329 322 341 343 340 341 341 335 332 329 331 334 329 336 331 325 323
335 335 334 337 340 344 343 345 342 342 342 346 347 349 349 347 349 317 318 344 346 346 344 344 346 325 319 314 320 345 340 341 338 341 339 339 336 339 339 340 334 331 326
336 334 333 333 334 337 340 342 344 345 343 342 340 338 341 347 330 319 312 315 332 343 344 346 344 315 314 314 316 323 318 325 342 339 338 336 335 335 336 338 340 335 334
334 336 336 332 330 336 337 339 337 342 341 341 339 339 339 343 346 320 314 314 316 329 341 334 316 314 309 311 313 316 315 335 339 337 336 335 338 338 339 338 340 339 339
332 333 337 339 332 335 335 333 332 333 334 333 332 332 335 337 333 326 330 333 318 325 328 335 330 322 321 325 324 319 332 338 338 336 335 338 339 337 337 338 335 336 334
330 330 333 331 332 336 336 334 332 336 330 331 330 331 330 330 329 309 309 319 320 314 313 331 332 333 333 331 331 333 333 335 336 336 335 334 334 334 334 336 335 335 331
327 325 325 324 323 325 334 333 317 315 310 305 301 310 325 313 305 299 297 296 297 299 318 327 328 333 332 333 333 332 332 332 335 331 331 331 331 331 332 332 333 331 328
328 327 324 323 325 327 327 328 329 326 307 303 299 299 297 301 297 296 295 295 295 299 317 322 326 329 330 332 334 334 331 333 330 329 328 328 331 329 328 330 328 327 326
328 318 324 326 323 322 323 327 327 328 326 327 304 304 298 296 296 294 295 294 309 304 318 322 324 327 328 330 332 330 331 329 328 328 327 328 330 327 327 326 325 325 323
324 324 325 324 323 321 322 323 326 328 327 328 330 309 307 301 297 295 293 306 320 323 323 322 325 328 329 330 332 328 329 327 326 327 326 325 324 323 321 321 320 315 317
324 323 319 324 323 323 323 326 325 331 331 327 326 325 322 319 319 319 316 317 321 322 324 326 327 328 329 329 327 325 323 324 324 324 324 324 324 324 321 320 319 318 319
320 322 323 323 323 323 325 326 332 331 330 330 327 316 302 320 318 318 318 318 318 319 322 325 324 323 325 325 325 324 323 323 323 322 322 322 321 319 322 321 320 319 319
320 320 321 322 323 324 323 324 326 328 326 325 322 317 304 320 317 316 318 318 319 319 319 319 319 320 321 320 321 321 321 319 320 320 319 319 319 318 317 317 317 317 316
319 320 320 320 321 319 323 324 322 325 326 323 322 320 319 318 315 313 314 315 318 320 319 319 319 319 320 320 321 320 319 318 319 319 318 318 317 317 317 316 316 316 314
317 319 317 320 321 321 321 321 322 316 322 322 320 318 316 316 313 312 313 314 316 317 319 319 318 319 319 320 320 321 321 321 320 320 320 318 317 313 316 315 313 312 307
315 318 316 317 316 316 317 321 323 322 321 321 320 319 317 315 313 312 313 317 319 318 317 318 320 320 320 319 320 314 298 296 315 308 316 315 312 313 312 311 310 310 308
318 318 318 318 316 317 316 319 320 323 323 323 323 320 317 315 314 312 313 313 314 315 316 316 316 314 316 317 307 293 288 289 298 294 316 315 312 310 311 310 310 308 306

GFSGL_sfc_thetae_099.txt.gz
Theta_e
353 354 354 353 350 334 336 348 350 349 351 351 351 348 349 348 347 346 344 343 342 342 343 343 342 341 340 339 336 336 334 335 330 333 339 341 339 340 341 342 341 336 336
355 347 343 342 334 332 333 334 343 348 348 349 350 348 348 347 346 345 343 344 342 340 340 340 341 345 340 339 338 338 338 337 334 332 336 338 338 338 337 337 339 340 334
342 338 338 335 335 333 335 330 331 335 345 347 347 346 348 348 346 345 344 342 342 341 341 339 338 340 338 338 339 338 340 340 340 337 334 337 336 334 334 336 335 334 333
338 336 335 335 335 336 334 333 331 332 341 346 348 348 348 347 348 346 345 342 342 342 342 341 340 339 337 338 337 337 337 336 335 333 332 333 333 333 333 329 328 331 331
336 334 333 334 334 335 332 333 332 331 339 348 348 348 348 347 348 346 344 343 341 341 342 342 341 342 341 340 338 336 336 334 334 332 331 330 330 332 326 327 326 328 330
336 334 334 332 331 332 332 331 333 342 345 345 345 347 346 350 338 337 344 343 343 342 339 340 341 342 341 338 339 342 339 335 333 332 329 329 330 329 329 327 327 324 322
336 338 333 332 330 329 335 336 336 339 341 341 344 345 344 345 334 329 337 344 344 343 342 342 341 344 339 338 332 336 336 337 337 335 330 330 329 332 333 329 326 325 323
335 336 335 334 333 333 333 334 334 336 339 340 339 340 341 345 333 327 328 341 343 343 344 343 341 338 337 338 336 332 332 331 332 334 333 333 335 334 336 333 328 327 328
331 334 336 336 335 334 332 333 335 337 336 338 341 341 339 340 329 322 326 334 339 340 341 343 343 340 333 329 338 333 332 332 328 327 328 329 329 330 332 330 327 325 322
331 333 333 334 335 334 333 333 335 336 336 339 338 337 335 341 332 317 322 335 338 338 339 341 330 338 327 323 335 336 333 334 332 326 325 325 330 330 327 332 328 325 322
329 330 331 333 332 334 333 336 335 336 336 336 337 338 341 339 338 318 318 337 340 338 339 338 341 323 319 316 321 336 335 335 333 330 329 328 328 331 332 330 329 328 324
328 327 326 326 328 332 330 333 333 335 332 332 334 335 337 339 328 318 314 315 328 338 338 337 330 315 310 309 313 322 320 326 335 333 332 331 329 330 332 334 329 329 329
323 323 325 326 325 328 329 329 330 330 330 330 328 328 332 334 328 315 311 310 313 320 332 329 317 313 312 314 311 313 313 328 332 331 332 332 332 333 333 332 333 331 329
320 320 322 322 324 323 326 327 323 322 324 325 325 324 327 328 323 321 320 321 318 322 323 328 327 322 322 325 325 318 324 331 333 333 332 333 332 330 332 333 332 332 330
319 319 318 317 316 323 326 325 325 325 323 324 322 322 320 321 317 308 308 315 314 311 306 321 324 325 325 322 322 325 326 329 332 332 332 330 329 330 330 334 331 330 327
318 317 317 316 314 315 317 324 318 314 307 306 303 312 318 310 306 298 296 296 297 298 309 315 322 326 327 327 327 325 327 327 330 332 331 330 328 330 329 331 330 330 327
317 317 317 316 317 315 313 316 320 321 307 304 300 299 299 303 298 296 295 295 294 296 303 313 319 322 325 327 328 328 328 330 330 331 329 329 330 330 326 327 327 325 322
317 315 315 316 316 313 313 315 316 318 318 319 303 305 299 297 295 294 294 294 304 299 305 314 319 322 324 324 327 328 330 330 328 329 328 328 329 328 326 325 325 323 322
317 316 317 316 315 315 314 313 314 318 319 319 315 303 304 297 296 299 294 307 311 318 317 315 320 322 323 327 328 329 329 329 329 327 326 326 326 326 324 324 323 316 317
315 317 316 314 315 318 316 317 318 320 318 318 317 315 314 312 315 316 317 317 317 318 320 321 323 324 326 327 328 327 326 324 327 326 325 324 323 324 322 321 321 320 320
312 314 317 315 318 320 319 320 321 319 318 318 313 311 301 312 315 317 317 317 317 316 317 318 321 324 324 323 326 324 325 325 326 326 324 324 323 321 321 320 320 319 319
312 313 314 314 315 315 316 318 320 320 319 316 313 311 300 312 314 314 314 315 317 318 319 318 318 318 319 319 322 324 324 323 323 323 322 321 321 320 319 318 318 318 317
312 311 313 312 314 314 315 317 315 317 318 317 315 312 312 314 313 313 313 314 316 316 318 318 318 318 319 320 320 320 318 318 319 321 319 319 318 317 318 317 316 315 314
309 309 310 310 313 311 312 313 315 312 315 318 316 311 314 313 312 312 313 315 316 315 314 316 317 317 317 318 319 319 319 319 319 319 319 317 316 314 316 316 315 314 309
306 309 312 311 311 309 309 315 315 315 315 315 317 316 315 314 311 310 312 313 316 315 315 312 314 316 316 317 316 314 302 297 313 306 316 315 315 314 314 313 312 308 302
306 308 309 313 311 308 309 314 316 316 315 315 315 316 313 313 312 310 311 313 310 310 313 312 313 314 316 311 307 295 291 292 304 296 312 311 310 307 305 306 306 304 302

GFSGL_sfc_thetae_102.txt.gz
Theta_e
352 350 349 348 339 339 338 335 338 343 346 347 349 348 348 347 347 345 343 342 341 340 341 340 340 339 339 338 336 333 333 333 330 332 337 340 339 340 341 339 341 339 339
345 342 340 336 335 335 333 334 336 336 338 345 346 347 347 347 346 344 343 343 340 338 339 338 338 341 337 337 336 333 332 333 331 328 333 337 336 337 336 336 336 336 333
344 337 335 333 335 334 334 333 335 337 338 337 339 344 345 346 345 345 344 342 341 340 340 338 337 338 336 336 336 336 336 336 335 331 331 334 334 334 335 336 335 335 333
339 336 334 332 331 333 334 335 336 337 335 335 334 343 345 344 344 344 343 340 339 340 340 339 338 337 338 336 336 337 336 336 336 336 331 331 330 333 331 330 329 332 331
335 336 335 334 335 335 333 334 335 332 332 334 332 344 343 343 345 343 343 341 339 338 339 340 339 340 338 336 338 335 334 333 331 330 328 328 328 330 330 329 329 328 330
332 332 332 333 334 333 334 334 334 333 332 333 341 343 340 346 335 333 339 340 340 338 337 338 339 340 338 333 334 335 336 334 331 329 328 327 327 329 329 326 325 325 323
333 332 332 330 329 329 331 331 331 334 338 339 341 340 338 340 330 327 332 342 340 340 339 338 338 342 337 338 333 332 332 332 333 334 328 328 327 329 329 324 323 324 324
332 332 331 330 329 328 330 331 334 335 333 335 337 339 339 340 326 324 327 337 338 339 341 340 339 339 337 337 335 332 334 335 335 336 333 332 332 332 334 332 328 326 326
328 329 332 332 331 330 329 329 330 332 333 334 338 339 338 339 327 321 325 333 334 337 337 338 339 338 331 325 334 330 329 331 327 324 327 327 326 325 329 329 325 324 323
327 328 330 331 332 330 329 329 330 331 332 335 336 336 331 337 322 319 320 334 333 335 336 336 329 334 325 320 333 334 331 332 330 327 326 325 324 325 325 333 329 325 322
325 325 327 325 328 329 329 330 330 330 330 332 333 334 334 334 335 320 314 333 336 336 334 334 335 322 316 314 318 335 334 334 329 330 327 327 327 329 330 328 330 329 321
321 324 323 322 325 328 327 329 329 330 329 329 331 333 335 335 314 317 311 313 321 334 336 337 334 314 313 309 314 317 313 319 335 330 327 326 326 329 332 329 329 328 328
317 317 318 323 323 324 323 323 324 326 327 325 325 325 326 325 321 310 311 313 314 318 327 327 316 313 311 315 311 314 316 326 332 331 330 330 330 331 332 333 327 325 323
315 315 315 319 321 321 323 322 320 322 322 322 320 319 321 323 319 317 317 316 315 316 316 317 320 320 318 325 324 321 323 327 331 332 332 333 332 328 329 331 331 329 327
315 315 314 313 311 312 319 321 321 321 319 319 319 319 317 316 316 306 306 311 310 308 305 312 317 321 324 324 324 324 322 323 327 330 332 330 329 330 329 330 330 329 328
313 314 313 313 313 313 311 312 314 314 306 306 304 310 316 308 303 297 296 295 296 298 308 312 313 318 321 323 322 323 324 323 324 327 330 332 330 329 329 331 330 329 327
311 312 312 312 313 312 309 309 316 316 304 300 299 301 302 303 297 295 295 294 294 296 302 308 311 315 319 322 324 324 324 325 326 326 327 329 330 329 325 329 330 329 328
312 311 311 311 312 311 310 309 310 313 314 316 299 301 297 296 295 295 295 297 310 300 302 307 310 314 318 321 324 324 326 328 328 329 329 330 330 329 327 327 328 327 325
311 310 311 311 311 311 313 312 310 309 315 315 312 305 303 298 297 296 295 309 313 315 317 315 315 316 319 322 323 325 325 326 328 329 329 330 330 329 327 327 327 318 319
309 312 312 311 313 315 318 318 318 318 318 315 314 312 311 308 310 312 315 315 315 315 316 316 318 319 322 323 324 326 327 327 328 329 329 329 329 328 328 327 326 323 324
309 309 312 311 312 313 314 316 320 320 319 318 312 310 300 309 313 314 315 315 315 316 317 317 318 318 321 323 324 325 326 326 327 327 328 327 327 326 325 325 324 324 322
310 308 308 310 312 311 314 314 315 315 314 313 311 310 297 308 311 313 313 314 315 317 318 317 317 318 318 318 318 321 323 324 325 326 325 325 324 324 323 323 322 321 320
310 309 307 306 309 310 312 314 313 313 314 313 312 313 309 311 313 312 313 313 315 315 315 316 316 316 318 318 318 318 317 317 318 323 322 321 320 321 321 320 320 319 318
304 303 304 306 307 308 308 310 312 309 312 313 312 309 309 311 312 312 312 314 315 315 313 311 312 315 316 316 316 317 317 318 319 319 320 317 316 314 316 316 316 315 315
303 303 304 304 306 308 308 307 311 312 313 313 312 311 310 309 309 311 309 312 314 315 314 314 315 314 311 310 314 312 298 291 309 303 317 316 315 315 315 314 312 310 309
304 305 304 304 304 307 305 305 311 312 312 312 313 312 311 308 307 308 309 312 313 310 311 311 311 314 310 309 307 295 291 289 302 296 313 315 312 312 313 312 310 308 306

GFSGL_sfc_thetae_105.txt.gz
Theta_e
334 338 345 338 337 335 335 340 345 345 346 346 346 347 347 345 345 344 343 342 340 339 339 338 337 338 337 337 335 334 332 333 332 329 332 338 337 338 342 341 341 340 340
338 338 335 334 334 333 333 334 336 338 344 345 347 346 346 346 345 344 343 343 340 338 337 337 337 339 335 335 334 332 331 331 329 325 328 334 336 337 338 337 336 336 334
338 336 332 332 329 330 331 335 335 337 337 337 341 344 343 345 345 345 344 342 340 339 338 338 338 336 335 334 334 333 333 333 331 328 326 331 332 333 335 336 336 334 333
337 333 331 331 328 329 330 333 335 339 339 339 338 339 341 343 344 343 343 341 340 340 339 338 338 336 336 335 334 334 334 336 335 333 332 330 331 334 335 331 330 332 331
332 333 330 330 332 332 331 333 336 337 337 336 337 337 340 343 345 343 343 342 340 338 338 338 338 338 338 337 337 334 333 333 332 331 331 327 330 330 331 331 330 329 331
334 332 334 333 330 329 333 334 333 333 330 330 330 334 337 343 334 331 339 341 339 338 336 337 338 338 337 333 334 335 335 332 330 328 327 326 326 332 331 329 328 326 324
332 331 331 331 333 333 333 333 333 333 333 333 331 332 337 340 329 326 331 339 339 338 337 337 338 341 336 337 331 330 330 331 333 333 328 328 327 329 328 327 328 327 325
333 333 330 328 327 328 329 330 331 332 331 333 336 335 333 336 325 324 327 333 336 337 338 338 337 338 336 337 335 333 332 332 332 333 333 333 332 331 331 329 329 326 325
327 327 329 329 328 327 326 327 331 332 332 332 336 336 337 338 320 319 324 332 333 335 337 337 337 336 331 325 335 332 331 330 327 325 327 326 324 324 329 327 325 325 324
324 327 327 328 328 327 327 325 327 332 333 335 333 335 331 337 320 318 324 336 333 333 333 336 327 334 322 320 332 332 330 331 329 328 325 323 323 324 324 333 328 327 323
323 323 322 323 326 326 327 328 329 328 328 328 330 333 334 332 332 316 314 332 334 334 335 334 336 319 315 312 314 333 332 332 329 330 329 327 326 327 326 331 331 331 321
317 317 320 320 322 323 324 325 328 328 327 327 328 329 329 324 315 313 314 314 318 332 334 335 333 316 311 308 311 315 313 317 330 329 326 326 326 327 330 330 331 331 330
314 313 313 320 320 320 320 318 320 323 325 324 322 322 323 324 322 311 308 312 316 322 327 324 315 311 308 312 311 311 310 323 329 330 330 329 329 332 330 331 328 325 324
313 313 313 313 311 312 319 319 318 318 318 321 320 320 321 321 320 320 318 315 313 314 314 314 315 313 313 320 322 318 322 325 329 331 333 334 329 326 328 332 329 328 327
312 312 311 311 310 311 311 314 318 317 317 317 319 319 317 314 315 306 306 310 309 306 304 310 311 314 319 323 326 329 329 327 326 328 331 332 331 331 329 330 331 329 327
310 310 310 309 310 310 308 308 313 309 302 301 301 309 315 307 298 296 295 295 295 296 307 311 313 313 313 317 320 322 324 324 325 326 327 329 330 330 330 329 329 328 326
309 309 308 308 309 310 309 307 309 313 302 299 299 300 300 299 296 297 296 296 295 298 305 308 309 311 313 314 316 320 322 323 324 324 324 326 328 329 326 329 328 327 327
309 308 307 308 309 309 310 308 308 308 309 313 300 301 297 295 296 296 296 298 309 302 305 308 310 312 314 315 317 319 321 324 324 324 325 325 327 327 327 326 327 326 327
307 307 308 309 311 311 312 313 311 308 308 311 310 301 299 295 295 296 296 311 313 314 314 315 316 316 317 318 319 321 322 324 324 325 327 327 327 327 327 327 326 318 321
308 310 309 308 310 311 313 315 315 315 315 317 317 314 310 307 308 308 309 312 314 314 316 316 317 317 318 319 320 322 322 323 325 325 327 328 329 329 328 327 327 326 325
309 307 310 306 308 309 311 313 314 313 313 313 311 308 300 309 311 313 314 314 314 315 315 316 315 315 318 318 318 318 321 323 325 326 327 327 328 327 328 329 327 327 326
309 307 306 304 305 306 308 312 312 311 312 312 310 309 298 307 309 313 313 313 314 316 315 315 314 314 317 316 316 317 316 317 321 323 325 326 327 326 327 326 326 326 326
310 306 304 302 302 305 305 308 311 310 311 312 311 310 308 308 308 312 311 313 314 315 312 312 310 311 315 316 316 316 315 315 317 318 321 323 324 324 325 324 324 323 323
304 303 301 301 302 303 304 305 307 306 309 311 311 310 307 307 308 309 312 309 310 311 311 312 310 310 310 310 311 313 310 307 315 317 317 317 316 313 316 317 321 322 321
303 302 302 301 301 301 302 304 306 307 310 310 311 310 309 308 307 307 309 308 310 313 314 314 314 314 312 310 309 308 298 289 302 298 316 315 314 314 314 312 313 313 312
303 303 303 301 301 302 302 303 304 306 308 311 312 311 310 308 307 307 306 307 307 312 310 310 312 312 314 310 305 295 291 289 299 291 311 313 312 312 312 312 312 310 310

GFSGL_sfc_thetae_108.txt.gz
Theta_e
334 335 338 332 338 339 341 343 344 346 346 347 347 348 347 347 347 346 346 346 343 344 344 343 343 344 344 344 342 342 339 338 334 339 338 343 343 343 345 349 348 348 349
335 334 334 333 333 332 333 334 336 339 345 347 347 347 348 348 347 346 345 346 343 342 342 343 343 343 342 344 342 339 340 339 337 335 336 339 341 339 344 342 342 343 341
336 332 332 331 332 331 330 333 335 338 340 345 347 347 347 347 346 346 346 346 345 344 343 343 343 342 341 342 341 341 340 339 338 334 334 337 339 340 337 339 339 339 338
336 331 330 331 332 332 332 333 336 337 338 339 342 344 344 344 345 345 346 345 345 345 344 344 343 342 343 342 341 341 340 337 336 335 334 334 337 340 339 337 336 338 339
337 332 330 331 330 331 330 331 333 335 338 341 340 341 343 345 345 345 345 344 343 344 342 343 343 343 339 341 341 341 340 336 334 335 334 333 333 334 334 336 335 336 338
333 332 332 331 331 330 330 330 333 337 336 334 335 337 339 341 332 330 338 342 342 343 341 342 344 340 338 332 334 335 340 339 335 333 332 331 334 336 337 336 335 330 328
332 333 333 332 330 330 331 333 333 334 334 333 332 333 336 338 326 327 329 341 340 341 340 341 340 343 339 342 332 331 331 331 335 340 337 337 337 337 339 334 332 331 332
331 333 332 331 332 332 332 332 333 334 333 334 335 334 333 335 325 322 325 336 338 340 341 341 341 343 343 341 342 339 338 339 338 339 342 343 342 342 341 339 336 337 334
325 328 331 332 331 330 328 328 330 332 332 333 335 336 335 336 320 318 326 334 335 334 337 339 341 341 332 325 341 341 340 340 330 325 328 327 325 325 333 335 332 329 328
324 325 327 329 329 330 331 329 331 333 334 335 334 338 332 339 314 314 328 336 333 333 334 335 326 333 323 319 335 339 337 339 338 338 334 329 326 329 324 339 336 330 330
319 323 324 325 327 328 330 331 332 333 333 333 334 335 336 333 324 313 314 334 333 333 333 333 334 321 313 312 315 336 334 340 336 339 338 336 336 336 333 336 339 337 333
318 318 321 323 322 324 325 328 331 331 330 330 331 326 325 325 316 311 312 315 319 329 332 333 332 312 307 308 313 315 314 318 335 336 336 336 334 334 335 335 339 339 341
317 316 316 317 317 321 323 323 324 327 327 326 327 325 324 325 322 310 310 312 314 323 324 318 313 309 307 311 313 312 312 324 331 332 334 335 336 338 340 335 336 338 339
315 315 315 315 316 316 318 323 322 322 322 322 322 323 325 324 321 320 317 317 314 316 314 315 314 311 311 314 316 321 322 326 328 330 334 338 337 335 335 336 331 329 328
314 314 313 314 315 315 315 316 321 323 320 322 322 322 321 320 316 306 309 313 311 307 306 315 317 317 318 319 323 327 330 329 327 329 331 333 334 332 332 333 333 330 327
313 312 312 312 313 315 314 314 309 306 302 300 302 312 315 304 297 297 297 296 296 297 310 313 314 315 316 316 317 318 321 324 327 328 330 330 331 331 331 331 331 330 328
312 311 311 311 314 314 314 313 315 314 301 299 299 301 298 299 296 297 296 296 295 300 312 313 313 314 315 316 316 317 318 321 326 328 327 328 330 330 330 330 329 329 328
311 307 311 314 314 315 317 317 314 313 314 315 302 302 296 295 300 299 295 300 313 309 313 314 315 316 316 316 317 317 319 320 322 324 324 326 328 328 328 328 328 327 327
311 311 311 313 314 314 318 320 317 315 314 314 318 308 301 295 294 295 295 316 316 316 316 317 317 317 316 318 319 319 320 320 322 323 325 326 326 326 326 327 328 317 320
313 311 310 311 313 314 316 318 319 320 320 320 320 319 314 309 315 315 315 316 317 317 317 317 315 316 316 317 318 318 318 319 322 323 323 325 326 327 326 327 327 325 325
313 312 310 308 308 311 312 314 318 318 318 318 318 315 303 317 316 317 317 317 317 316 317 318 316 315 316 318 317 317 317 317 318 319 322 325 327 326 328 328 329 328 327
314 313 310 307 307 308 309 310 313 317 318 317 318 315 297 309 315 316 317 317 317 317 318 318 317 316 316 318 317 317 316 316 317 317 317 319 323 325 326 326 326 327 327
314 310 308 307 306 306 307 308 310 313 316 317 317 317 314 313 315 315 316 317 318 318 318 317 318 318 319 319 319 318 315 314 314 317 316 317 317 317 321 324 325 325 325
310 308 307 306 306 306 306 307 308 304 309 315 316 317 317 316 316 315 315 317 317 317 318 318 318 318 318 318 319 318 316 311 311 316 318 316 316 314 315 314 314 319 324
309 309 307 307 307 307 307 307 308 309 310 312 314 316 317 317 316 316 316 316 316 316 316 318 318 317 318 318 316 316 306 288 298 294 317 319 315 315 314 314 313 313 312
308 308 307 308 309 308 307 307 308 309 309 312 314 315 317 317 317 316 315 316 315 315 315 316 317 316 316 315 314 301 291 287 297 288 307 318 314 312 312 311 312 311 310

GFSGL_sfc_thetae_111.txt.gz
Theta_e
339 340 342 342 345 351 349 354 353 356 357 355 357 356 355 355 356 355 356 355 352 354 353 352 351 354 357 352 350 348 346 346 339 343 347 348 351 351 351 355 355 356 354
344 342 340 342 343 346 351 351 351 353 356 354 354 356 355 355 356 354 352 352 352 351 352 352 351 351 353 355 352 345 345 345 340 338 344 344 347 351 348 347 351 352 352
341 342 344 344 344 343 347 349 350 353 354 353 354 355 355 357 355 355 354 353 353 353 354 352 352 352 350 350 351 348 345 346 344 341 342 344 346 347 347 342 342 342 344
339 341 341 342 342 341 341 340 342 344 346 349 354 353 354 356 357 356 353 355 354 354 354 353 353 352 352 351 350 350 349 345 342 341 339 337 341 347 345 342 340 344 343
336 339 340 342 339 339 340 340 340 340 339 344 345 348 350 350 349 351 352 351 351 351 352 353 353 350 343 347 349 350 350 343 341 339 336 337 338 338 338 341 340 342 342
336 339 339 338 336 335 336 337 337 339 338 341 342 343 344 347 332 331 344 352 352 351 350 350 352 344 343 334 336 337 346 347 341 339 337 336 338 342 344 340 338 336 335
334 336 338 337 336 335 336 337 336 337 339 338 340 340 342 345 328 326 329 347 345 343 344 344 349 348 343 350 334 331 333 333 338 349 345 344 345 348 349 345 341 341 339
331 333 333 334 334 335 334 333 333 334 335 335 337 337 334 336 324 322 326 340 343 340 341 342 344 348 349 349 351 349 348 349 346 345 349 351 351 355 353 351 348 345 343
327 331 334 334 333 334 337 338 337 335 334 333 335 339 338 337 321 318 325 339 337 338 340 341 342 344 331 323 346 347 348 349 334 328 330 329 329 328 337 348 342 337 333
328 329 333 336 335 335 335 338 338 337 338 339 339 339 332 338 322 317 321 339 336 337 337 339 327 335 322 319 338 343 345 345 352 351 346 337 330 338 325 345 347 339 337
328 331 332 334 336 338 339 341 339 337 337 338 338 337 336 336 335 312 313 342 339 334 334 334 338 317 314 311 314 339 341 338 342 349 352 354 348 347 346 343 348 345 340
327 326 327 330 332 333 338 339 340 340 339 338 331 330 328 326 315 314 314 318 323 336 334 336 331 309 307 308 312 315 312 315 336 341 338 341 340 341 344 347 348 349 349
326 326 327 327 327 333 334 334 333 335 334 332 328 329 330 329 323 310 309 311 314 329 330 319 311 307 306 312 309 309 310 328 329 332 334 336 338 343 344 346 348 349 349
324 324 325 326 326 326 327 331 329 328 328 328 329 329 329 328 325 325 324 322 316 322 318 321 316 313 309 315 319 322 327 328 329 330 333 336 341 341 338 341 338 337 335
322 323 323 323 325 325 324 328 331 332 325 328 328 328 327 326 323 309 314 325 324 313 315 323 323 322 324 325 325 326 328 331 330 331 331 333 335 337 336 338 337 336 329
320 320 320 321 322 323 323 325 307 306 302 301 301 314 321 304 299 298 298 298 298 299 321 323 321 320 321 320 320 321 322 323 325 327 329 331 331 333 332 334 334 332 329
319 320 322 321 324 325 326 324 323 315 301 299 300 299 299 304 297 297 296 297 297 301 323 324 323 323 322 321 321 321 321 322 325 325 324 325 327 329 330 332 331 331 330
319 308 322 322 323 324 325 326 325 324 322 323 304 304 296 295 296 295 295 298 319 314 322 321 322 322 320 318 319 320 321 322 323 324 324 325 326 325 327 328 329 329 329
318 317 319 321 321 320 324 324 323 322 321 323 328 310 301 295 296 296 297 322 323 323 322 319 321 318 318 318 319 321 321 320 321 323 324 324 325 325 325 325 326 318 322
321 313 313 317 317 318 318 319 320 322 323 321 321 323 327 315 323 326 325 324 322 320 320 318 319 320 319 322 322 321 321 320 320 320 320 322 324 325 324 325 326 326 326
321 321 310 317 315 314 314 315 317 318 320 319 322 321 302 323 323 323 324 324 323 322 322 320 319 318 318 320 323 322 321 319 321 323 321 320 320 319 323 325 326 326 326
319 322 319 317 315 314 314 314 315 316 317 320 321 321 298 319 323 323 324 324 325 325 324 324 321 319 319 322 323 320 318 317 319 319 320 321 321 322 320 318 320 324 329
321 320 317 317 316 311 315 315 313 314 315 317 318 320 321 321 322 323 323 323 324 324 325 323 321 319 323 324 324 323 321 320 320 319 319 320 319 319 320 318 318 317 317
319 318 317 317 316 314 315 316 316 309 314 316 317 318 321 322 322 323 324 324 324 325 325 324 323 322 324 325 325 324 324 323 320 320 321 320 322 319 317 315 316 315 315
319 317 316 316 315 316 317 317 317 317 316 316 316 317 319 321 321 323 324 325 324 324 324 324 324 322 324 325 321 321 313 291 305 301 317 321 322 321 320 314 313 313 315
318 318 318 318 317 317 317 316 317 317 316 316 317 318 318 318 319 320 322 323 324 323 323 323 323 323 324 324 323 310 296 289 300 289 311 315 320 320 319 318 313 311 311

GFSGL_sfc_thetae_114.txt.gz
Theta_e
346 347 350 351 348 354 354 353 361 363 356 357 363 361 361 361 362 363 361 360 357 356 357 356 355 358 353 359 362 355 354 355 345 345 347 352 354 353 354 356 356 356 361
350 350 349 348 351 350 356 357 360 360 354 357 360 358 362 360 362 360 357 356 354 353 354 356 355 354 358 360 359 357 356 356 347 345 348 347 351 356 355 355 353 353 356
347 349 349 348 348 349 349 353 356 358 359 359 359 359 358 358 359 360 359 356 356 355 355 356 356 356 356 358 356 355 352 353 350 345 344 347 348 350 352 353 351 351 346
347 346 346 347 348 346 348 349 350 352 352 355 357 355 357 358 358 357 357 357 357 357 357 356 355 356 355 356 355 355 356 350 349 348 345 344 344 351 350 345 345 348 347
345 344 345 344 343 345 345 345 344 346 346 346 348 351 354 355 354 356 357 357 357 356 355 354 356 353 345 349 352 353 357 349 344 342 344 343 340 342 344 345 343 355 348
343 343 344 345 341 343 343 343 344 344 344 346 345 345 347 347 337 334 344 359 356 355 356 355 356 347 344 336 336 337 350 355 348 344 343 342 345 347 348 344 344 340 337
336 338 343 342 341 342 341 342 342 341 343 344 344 345 346 349 328 326 331 354 356 356 356 355 353 351 346 353 335 332 335 333 338 353 348 348 347 350 354 352 350 344 341
336 335 338 339 338 339 342 340 340 342 343 341 341 346 346 346 326 321 325 343 352 352 352 354 352 350 350 346 345 344 347 349 348 349 351 353 356 356 354 352 352 353 350
332 332 334 337 335 338 338 340 343 343 340 337 338 340 339 344 321 319 323 336 342 346 347 348 346 340 330 322 338 339 341 349 337 328 331 329 326 326 338 351 345 346 341
328 332 335 338 337 339 341 341 344 344 344 344 343 340 334 344 320 315 321 337 339 342 346 341 330 335 323 321 335 337 337 342 352 351 352 343 336 344 326 348 349 344 341
332 331 334 338 339 341 341 342 343 345 345 342 335 333 333 324 332 313 313 338 343 341 342 336 336 319 314 312 313 335 334 342 340 345 345 351 350 355 355 350 351 351 346
332 332 332 336 336 341 343 343 344 345 343 337 333 329 328 325 312 309 311 315 325 342 338 343 337 311 309 308 311 317 314 319 338 339 344 342 349 351 351 345 353 356 359
331 333 333 333 334 340 340 339 335 340 340 335 333 332 331 331 328 309 309 313 317 329 328 316 313 308 307 312 308 310 310 325 333 334 335 339 347 346 348 341 343 345 355
329 330 332 331 331 334 336 334 331 330 330 330 331 332 332 332 331 332 330 326 316 325 318 325 319 316 313 321 321 321 326 332 335 335 335 333 336 337 336 339 336 338 340
328 328 328 326 328 330 331 331 331 331 321 329 330 330 329 328 323 310 315 327 326 316 321 330 328 328 329 328 331 332 332 333 332 333 333 333 334 338 339 341 340 339 335
326 325 324 326 327 327 325 329 306 305 302 300 300 314 324 305 300 301 300 300 300 301 323 330 329 329 329 329 324 323 328 326 328 328 328 329 331 332 334 339 338 334 333
326 327 326 323 325 326 327 326 327 316 302 301 301 301 302 305 299 299 298 299 302 304 326 329 329 328 329 330 328 326 323 324 327 326 325 325 328 327 327 330 334 333 330
325 310 325 324 323 324 325 325 325 326 326 326 305 307 299 297 297 296 297 301 324 316 328 325 326 329 327 326 324 323 323 323 322 324 327 326 324 328 327 325 327 331 332
322 320 321 321 321 319 322 322 322 323 322 322 326 309 304 296 296 296 296 322 325 324 325 326 326 328 325 324 324 325 327 325 323 324 323 323 325 328 326 328 325 315 319
323 314 315 320 320 319 319 319 319 320 321 322 321 321 325 317 322 325 325 327 326 326 326 326 327 323 321 322 323 326 325 325 326 323 324 325 326 325 323 323 326 326 325
322 323 315 320 318 317 317 317 318 318 318 319 320 322 303 320 320 321 323 324 325 326 326 326 326 326 324 324 325 325 325 324 324 324 323 322 321 322 324 327 326 323 322
323 322 321 319 319 319 318 318 317 316 317 318 319 320 300 323 321 321 322 323 324 326 327 326 325 325 325 325 326 325 324 323 323 324 323 322 322 323 323 322 321 322 324
322 322 321 321 321 317 319 320 320 320 318 316 317 318 319 321 322 322 322 323 324 325 326 326 326 325 326 326 326 325 323 322 323 324 323 323 323 322 322 320 320 318 317
319 321 320 320 320 319 320 320 320 313 319 320 319 318 319 320 321 322 323 324 325 325 326 326 325 325 326 326 325 326 327 327 327 326 324 323 322 319 322 321 321 320 317
321 321 320 320 320 319 320 319 319 319 319 320 320 320 320 321 321 322 323 324 325 326 326 326 325 325 325 327 327 327 318 295 315 305 323 323 323 323 322 321 321 321 319
319 319 318 318 317 317 317 317 317 317 316 316 317 318 320 320 321 321 322 322 322 323 324 325 325 325 326 325 325 314 300 290 306 290 316 322 321 319 320 321 320 318 317

GFSGL_sfc_thetae_117.txt.gz
Theta_e
350 351 350 352 356 358 351 356 360 364 360 348 358 357 363 364 365 363 362 362 361 360 359 359 358 361 354 354 353 353 352 353 345 345 350 357 355 357 355 358 358 356 357
348 356 355 351 352 354 358 359 360 360 362 352 349 349 343 356 363 361 359 358 359 358 358 358 358 354 359 360 359 358 353 356 349 347 351 350 356 361 359 357 356 352 356
348 349 353 354 352 355 355 356 358 357 357 357 354 342 350 357 361 361 360 359 359 359 357 357 358 358 358 359 359 357 354 355 352 349 346 348 350 352 356 357 357 357 353
347 348 347 351 351 351 353 353 353 354 352 355 356 353 350 352 360 360 359 360 359 358 360 359 360 359 360 359 358 359 359 352 352 348 345 342 345 353 352 348 350 352 348
344 346 346 349 350 350 350 350 349 350 350 351 350 352 353 352 356 357 358 357 359 358 359 360 360 357 348 354 355 360 358 352 347 346 342 342 343 347 344 346 347 345 355
341 343 345 348 345 347 346 346 346 346 346 347 347 347 347 347 338 334 346 356 357 358 358 360 359 348 346 337 337 339 351 352 349 344 343 342 354 349 346 345 346 344 339
338 341 342 345 344 345 345 345 345 346 346 345 345 346 345 347 330 329 334 351 353 356 357 359 357 351 349 354 338 335 335 334 339 354 350 350 352 355 355 353 352 350 344
334 337 339 338 340 345 345 345 345 346 346 346 345 347 346 346 327 324 328 350 353 354 355 358 356 356 357 351 355 352 351 350 349 348 348 350 355 358 358 356 357 355 352
327 332 334 334 336 339 339 341 345 343 346 346 346 345 346 347 321 319 330 345 346 349 352 352 353 349 328 325 351 350 347 347 338 327 327 328 328 327 338 356 349 349 341
325 328 329 333 335 339 341 343 345 347 346 347 344 344 334 344 321 315 326 341 342 343 346 345 329 336 323 322 344 340 340 338 339 340 341 333 331 339 327 352 350 345 345
332 333 334 335 334 336 344 345 345 345 344 342 338 336 336 330 332 312 315 339 344 345 341 336 336 319 315 315 320 337 333 334 336 341 338 338 343 350 355 351 357 349 348
333 334 336 337 339 340 341 342 343 339 339 337 332 330 328 326 314 312 311 316 329 337 337 340 333 315 310 310 317 317 314 319 334 336 337 337 335 339 344 355 355 354 348
334 334 335 338 337 340 342 344 337 340 340 335 337 338 333 334 328 310 311 316 319 340 334 320 313 307 308 314 310 312 312 332 334 334 332 333 336 339 341 344 348 351 345
332 332 333 333 333 339 337 336 333 331 334 333 335 335 332 335 334 332 329 328 317 327 321 324 320 319 319 325 324 320 327 331 335 337 337 338 343 341 336 335 332 332 335
329 329 329 327 329 331 332 331 330 323 318 330 329 331 329 325 320 307 315 327 327 317 322 331 330 331 331 332 333 334 334 335 334 335 335 335 335 336 337 340 342 339 336
327 324 325 326 326 326 327 330 306 306 303 300 299 313 322 305 301 300 300 300 301 303 324 329 329 330 329 329 329 329 329 328 330 330 330 329 328 329 330 332 337 337 335
327 329 325 322 324 325 326 325 328 319 303 302 301 299 299 304 299 299 299 301 302 305 325 327 328 328 329 328 329 328 326 328 330 326 326 326 326 327 327 329 329 329 330
328 314 325 323 322 323 323 323 323 323 325 326 306 306 298 298 298 298 301 302 324 316 327 326 325 327 327 327 326 325 327 326 326 326 326 325 326 327 327 325 327 328 327
322 320 322 322 320 320 321 321 321 322 321 321 325 312 305 298 299 300 299 325 323 323 324 324 327 327 328 327 326 326 327 327 325 325 327 326 326 326 324 325 325 314 318
324 316 318 321 321 319 319 318 318 319 320 321 321 323 326 319 323 326 325 329 327 325 325 325 326 327 328 326 326 326 327 325 325 325 324 324 325 323 322 322 323 325 325
323 323 321 321 319 320 320 319 318 317 317 318 320 319 308 320 318 320 321 323 323 323 323 324 323 325 328 326 327 326 326 325 326 325 324 324 324 321 323 324 323 321 322
322 322 321 320 321 321 320 320 321 320 320 317 317 318 301 321 321 321 321 322 323 325 325 326 325 324 323 324 325 324 323 323 324 325 323 324 323 323 323 322 321 320 320
321 321 320 320 320 318 320 320 320 320 321 320 320 320 319 320 320 321 322 324 324 324 326 326 325 324 326 326 326 326 323 323 325 325 324 323 323 323 322 321 320 318 319
322 321 320 320 320 319 319 319 319 313 318 319 319 320 321 321 321 321 322 325 324 326 325 326 326 324 326 328 327 326 326 327 327 326 327 326 323 321 323 321 321 320 320
318 319 318 319 318 318 318 317 317 317 317 318 318 318 319 319 318 318 321 322 323 322 323 324 324 322 323 322 322 318 317 298 319 310 326 325 323 323 321 321 320 320 320
317 317 316 316 316 315 315 314 314 314 314 316 316 316 317 317 316 316 316 316 318 319 319 319 319 321 322 319 307 297 295 291 308 296 323 323 321 320 319 321 321 320 318

GFSGL_sfc_thetae_120.txt.gz
Theta_e
356 355 352 351 356 359 357 356 357 359 357 352 354 354 354 349 352 353 355 355 354 355 356 354 353 355 352 351 352 351 349 348 342 345 350 351 356 353 352 356 356 355 355
349 354 355 357 356 353 354 358 357 356 356 355 349 343 342 337 343 345 349 353 353 353 354 354 352 354 353 352 352 350 349 351 348 343 347 348 349 354 354 354 353 353 353
345 342 350 351 350 351 353 354 357 355 354 352 349 343 341 339 338 337 341 350 352 352 353 354 352 353 351 351 351 348 350 350 350 346 344 351 348 351 352 353 354 353 353
341 342 343 344 348 349 350 352 352 354 354 350 349 344 340 340 339 336 338 344 348 352 353 354 354 353 351 352 352 351 352 350 350 347 346 346 347 349 349 346 347 350 348
339 339 343 346 348 348 348 349 350 351 350 353 352 349 346 340 336 337 340 340 338 350 353 355 355 353 349 351 353 352 352 349 348 346 344 344 342 344 341 344 343 346 348
336 338 341 342 345 346 347 349 348 348 347 349 349 348 346 344 335 332 337 343 339 330 349 353 354 348 346 341 342 344 352 350 347 345 343 341 343 343 344 344 342 340 335
334 336 338 340 342 346 347 346 345 346 350 348 349 349 346 347 334 333 334 339 336 346 350 352 353 353 345 351 336 336 337 337 341 347 344 346 343 346 346 341 341 341 341
330 332 332 333 336 340 341 341 343 345 346 346 347 347 345 345 326 324 330 344 346 348 351 352 352 351 351 348 348 345 345 345 343 343 350 350 348 347 346 342 340 344 348
327 330 331 330 334 332 333 337 339 345 344 343 346 345 346 343 319 320 330 346 345 347 350 352 351 350 335 327 346 345 345 344 335 330 332 332 329 329 331 340 337 338 337
326 327 330 330 330 334 335 340 338 343 341 344 342 344 329 342 317 315 325 342 342 343 349 346 330 338 322 321 342 341 337 337 338 339 344 334 327 331 326 338 339 336 339
327 329 330 331 330 332 334 335 336 336 337 336 335 336 336 326 326 313 314 339 340 343 344 341 338 320 318 318 321 337 333 334 334 336 336 336 338 340 342 338 340 339 335
329 329 330 331 332 333 331 330 332 333 333 334 334 331 329 329 313 314 313 315 327 337 338 341 334 314 313 313 319 318 315 321 332 332 332 334 333 334 337 339 342 343 343
330 331 334 333 333 335 332 333 331 332 332 332 334 335 333 336 330 312 313 317 319 335 336 322 312 308 308 313 311 312 313 331 331 329 332 334 333 335 339 339 340 341 340
329 331 333 333 333 335 333 328 326 324 329 332 333 333 334 332 330 333 331 329 320 325 320 325 322 321 319 323 323 319 329 333 333 334 336 338 340 339 337 339 336 334 332
328 330 333 333 334 333 329 326 326 316 317 325 327 324 326 323 315 304 310 320 320 312 322 328 328 329 328 328 331 334 334 334 332 334 334 334 335 336 335 338 337 335 333
326 328 327 326 327 330 331 328 306 305 301 299 302 317 314 304 300 301 300 299 300 301 325 330 331 332 331 331 329 330 331 330 332 330 330 330 329 329 329 331 333 332 330
327 328 326 323 322 328 327 326 325 316 304 301 298 299 307 305 300 300 301 301 300 305 327 332 331 331 329 331 330 327 326 329 330 328 328 327 327 327 324 326 328 327 326
331 318 323 324 322 322 323 324 324 326 325 323 307 307 298 298 299 298 301 304 324 315 324 328 329 330 329 328 327 327 327 328 328 326 326 324 325 325 324 323 325 324 325
323 321 322 325 324 325 325 322 321 322 323 329 319 308 303 299 302 300 300 320 326 326 328 328 326 331 329 328 329 328 328 327 325 326 327 327 326 324 323 322 322 313 316
327 319 318 324 322 321 320 319 319 324 325 322 323 326 322 312 317 320 320 326 329 327 327 326 328 328 329 328 328 329 327 326 326 326 325 325 324 324 322 321 320 320 321
320 323 320 320 322 322 322 321 322 324 323 322 323 323 311 324 323 323 326 328 327 326 326 325 324 329 330 329 327 327 326 325 326 323 324 324 324 320 323 322 321 320 319
323 325 322 320 322 321 319 321 320 321 321 319 323 321 304 322 323 323 322 321 321 325 327 330 326 325 326 327 327 325 323 322 323 323 322 322 323 324 323 322 321 321 320
321 320 321 319 321 318 322 320 319 320 320 320 320 318 319 319 319 320 319 321 324 323 322 323 324 321 321 325 327 328 323 324 326 327 326 325 325 323 322 321 320 319 319
321 317 318 319 317 318 317 318 318 312 317 319 319 319 319 319 319 319 320 320 321 322 323 322 321 320 319 311 309 312 309 306 311 325 326 325 324 322 323 321 320 320 319
320 318 317 318 316 316 315 315 315 314 314 316 316 316 316 317 317 316 318 318 317 318 319 319 317 319 309 305 303 299 291 287 295 296 314 321 323 322 321 320 319 319 319
315 315 314 314 313 312 311 311 312 313 313 314 314 315 315 314 314 314 315 315 314 314 315 315 315 316 315 305 299 291 288 286 290 288 295 311 319 319 319 318 318 317 318